GFSNW_250_rhum_000.txt.gz
RH
100 84 52 37 100 100 94 85 80 67 100 100 100 100 100 100 100 100 100 100 100 100 100 100 100 100 100 100 100 100 100 100 100 100 100 100 100 100 100 100 99 82 80 90
100 95 54 25 56 99 100 94 97 98 68 99 100 100 100 99 100 100 100 100 100 100 100 100 98 100 100 100 100 100 100 100 100 100 100 100 100 100 100 100 100 81 83 94
99 92 58 27 32 82 100 100 87 94 100 78 85 100 100 100 100 100 100 100 95 98 100 95 99 100 100 100 99 100 95 83 94 100 100 100 100 100 100 100 100 100 100 100
97 84 60 45 23 40 93 86 90 99 100 91 85 69 57 58 76 88 96 97 100 86 98 92 100 100 100 100 100 100 100 100 99 100 98 100 100 100 100 100 100 100 100 100
100 77 63 48 32 29 46 58 82 89 97 95 85 74 75 77 60 52 66 89 98 79 85 100 100 100 100 100 100 100 100 100 100 100 100 97 100 100 100 100 100 100 100 100
80 90 68 55 44 38 32 40 61 78 71 82 84 89 88 90 100 85 66 73 82 97 95 99 100 100 100 100 100 94 94 86 98 91 99 100 100 100 100 100 100 100 100 100
45 71 70 62 51 47 44 40 40 54 58 59 65 72 82 78 88 99 80 81 88 85 88 86 100 100 100 100 100 100 100 99 100 100 96 100 100 100 96 90 98 93 87 98
57 51 55 61 65 54 45 46 42 40 40 41 46 54 69 71 81 91 89 76 74 68 73 85 79 70 76 74 72 76 78 79 81 80 80 74 84 98 98 96 100 90 86 86
72 63 50 49 58 67 62 54 46 46 44 44 42 47 56 61 64 52 49 62 67 67 63 59 69 66 63 66 66 61 56 56 62 66 80 96 94 89 89 86 80 86 95 96
39 60 72 54 49 56 58 56 64 61 49 51 52 53 58 58 56 47 55 57 52 49 48 48 54 60 65 67 63 60 69 74 81 76 74 95 91 91 99 99 92 91 91 81
38 32 44 57 62 70 61 67 70 69 76 72 60 53 52 54 59 61 67 67 70 65 63 62 62 59 57 58 61 60 62 60 54 55 54 69 80 80 66 56 53 51 48 46
42 46 41 45 49 53 72 76 78 80 84 90 94 86 75 72 64 64 71 59 56 58 56 58 63 68 74 80 75 66 48 40 52 48 52 46 52 50 43 41 42 42 50 48
45 42 43 45 49 52 54 65 76 80 92 98 87 72 75 80 78 80 93 79 71 84 87 94 98 91 89 87 92 84 73 69 81 65 79 67 48 44 39 36 40 39 37 38
59 56 46 46 56 53 49 73 65 69 79 88 85 75 71 66 76 78 70 86 77 80 85 83 80 71 68 66 70 72 58 66 57 52 49 41 41 45 46 42 38 34 34 35
76 74 63 49 50 54 54 62 64 63 60 61 58 66 60 65 55 49 54 54 67 66 62 62 64 63 58 69 76 65 48 52 55 54 60 57 54 46 42 38 33 30 30 33
86 89 83 72 62 56 51 51 70 73 57 67 62 76 84 82 84 71 68 64 68 60 63 62 66 72 75 78 87 76 85 87 70 55 44 41 41 40 37 37 39 34 32 35
95 89 94 94 78 61 62 57 52 55 60 59 56 61 62 72 76 73 72 63 64 80 92 98 95 84 72 86 97 82 51 40 44 45 48 54 46 39 38 34 37 40 48 53
100 96 93 91 94 81 72 65 70 64 57 56 61 67 62 56 57 54 57 65 68 73 74 83 82 75 74 80 58 56 55 56 59 55 51 46 47 46 52 59 54 56 54 66
100 100 100 100 93 90 81 72 68 74 71 74 78 84 90 82 73 71 72 67 71 68 83 82 62 68 94 88 95 88 85 81 66 56 55 47 52 55 52 51 55 61 62 68
100 100 100 100 100 100 100 97 96 97 90 83 90 87 84 84 82 73 72 68 70 76 82 58 59 91 100 88 98 91 89 65 60 58 59 60 53 47 49 57 58 70 79 81
100 100 100 100 100 100 100 100 100 100 100 100 100 97 97 95 90 82 70 63 62 61 63 66 69 100 100 100 92 76 82 89 88 80 53 60 60 55 55 62 69 70 81 63
100 100 100 100 100 100 100 100 100 100 100 100 100 100 100 100 100 93 87 84 75 75 85 90 98 100 100 84 78 85 91 84 75 68 68 65 60 60 68 67 75 77 49 40
100 100 100 100 100 98 100 100 100 100 100 100 100 100 100 100 100 97 99 100 100 100 99 100 100 100 98 94 80 68 63 73 85 76 65 60 62 71 70 87 80 33 31 23
99 100 100 100 100 100 100 100 100 100 100 100 100 100 100 100 100 100 100 100 100 100 100 100 100 87 99 95 94 86 78 73 65 54 54 58 65 72 85 83 40 26 18 14
81 88 100 100 100 100 100 100 98 88 98 100 100 100 100 100 100 100 100 100 100 100 100 96 75 83 87 77 69 71 59 53 54 58 57 67 71 80 78 32 22 17 13 11
67 65 75 95 100 100 100 100 100 100 99 88 83 86 82 83 91 98 100 100 100 100 90 80 81 77 77 70 62 56 56 62 60 64 73 75 82 76 25 22 16 14 11 9
64 68 61 61 74 90 100 100 100 100 100 100 100 99 94 99 100 100 100 100 91 79 81 76 68 74 75 68 69 73 66 54 60 70 70 62 61 26 20 15 13 11 9 7

GFSNW_250_rhum_003.txt.gz
RH
100 100 100 43 82 89 96 76 66 92 92 100 100 100 100 100 100 100 100 90 100 100 100 100 100 100 100 100 100 100 100 100 98 100 100 100 100 100 100 100 100 100 96 83
100 100 100 54 62 93 81 96 100 76 84 92 99 100 100 100 100 100 100 100 100 100 100 100 100 100 100 100 100 100 100 100 100 100 100 100 100 100 100 100 100 100 100 99
90 100 94 48 38 82 72 93 84 79 75 85 67 85 100 100 100 100 99 100 100 100 100 100 100 100 100 100 100 100 100 100 100 100 100 100 100 100 100 100 100 100 100 100
79 87 91 49 32 59 62 75 90 84 97 96 96 86 78 94 100 100 100 90 100 100 100 100 100 100 100 100 100 100 100 100 100 100 100 100 100 100 100 100 100 100 100 100
74 74 79 50 38 47 44 43 70 100 93 100 93 93 100 93 85 93 100 94 85 86 96 96 100 100 95 100 100 100 100 100 97 100 100 98 94 94 95 95 90 91 84 84
56 72 69 58 41 43 40 44 47 71 74 98 99 100 100 74 94 99 100 94 90 65 80 82 89 98 100 100 94 89 100 100 100 100 100 100 100 96 87 76 73 73 83 98
42 54 79 63 51 41 48 39 42 49 64 82 98 100 90 76 68 63 81 89 78 80 52 68 78 97 88 100 98 96 100 98 98 100 100 100 96 98 99 96 90 88 95 92
48 43 60 80 62 48 45 49 48 43 52 69 69 82 64 75 82 87 63 59 62 67 72 49 72 87 98 91 96 98 96 100 94 97 100 100 100 100 99 100 100 97 99 100
62 49 40 58 67 63 50 49 54 54 50 53 56 65 65 62 62 60 51 52 49 52 56 56 57 77 80 83 67 74 75 78 83 76 84 91 99 99 98 100 98 85 68 55
59 61 51 40 53 54 60 55 48 45 46 56 60 62 59 62 60 60 61 66 62 50 44 50 60 60 62 60 58 56 57 65 76 74 72 71 72 66 61 55 58 64 75 78
38 34 52 54 46 49 60 65 67 54 46 48 52 63 70 76 77 71 71 76 77 69 53 57 64 61 55 62 66 68 71 70 73 93 96 82 75 71 80 82 68 52 43 49
58 39 29 45 45 53 54 57 61 71 71 62 57 58 55 56 67 78 85 90 95 95 95 85 86 86 81 82 80 71 75 87 98 100 92 84 77 66 58 62 68 66 59 59
77 60 42 36 36 37 40 55 65 63 68 78 84 84 79 70 66 68 66 77 81 79 83 87 89 81 73 69 66 69 74 74 82 88 78 72 69 64 54 51 52 46 37 27
73 69 52 42 37 37 43 46 44 54 62 56 64 72 74 78 86 87 77 77 84 98 100 96 83 83 75 74 71 71 60 68 68 70 63 57 50 43 35 29 25 27 30 31
71 69 54 49 47 40 43 51 57 47 41 61 76 53 44 57 60 56 65 64 72 95 93 79 80 84 78 74 68 60 62 64 59 60 55 54 58 54 41 44 45 44 44 40
90 79 62 50 55 55 45 45 52 44 43 46 53 47 48 51 55 53 44 50 58 64 78 73 76 60 61 67 63 59 76 81 80 77 73 71 72 62 54 52 54 43 31 27
100 98 80 65 59 59 60 54 53 50 41 43 44 45 52 49 52 61 70 73 78 69 75 85 81 82 95 100 100 100 97 84 79 77 74 74 75 66 50 38 30 30 32 38
100 100 100 87 82 79 66 68 65 60 61 54 45 48 51 62 63 69 72 68 74 74 78 84 82 88 99 100 80 75 64 61 63 65 62 57 48 41 36 34 38 46 48 55
100 100 100 100 90 87 83 77 82 85 83 69 65 62 56 54 57 59 57 59 59 63 72 79 85 100 100 66 70 58 49 51 52 46 39 37 35 36 50 68 67 57 61 59
99 100 100 100 99 87 86 88 78 80 97 100 94 74 68 69 67 65 60 59 60 65 74 65 60 89 85 67 62 53 46 48 51 60 67 67 74 71 71 68 65 64 64 66
100 100 100 100 100 98 76 68 74 77 82 89 99 98 95 95 83 80 82 78 76 76 77 72 69 83 74 68 63 65 67 69 73 79 85 80 73 65 63 62 61 67 79 93
97 96 92 98 100 100 93 95 86 83 91 100 100 98 92 86 90 97 99 100 98 95 89 81 84 83 89 82 73 76 84 90 94 85 74 74 69 66 66 71 77 75 73 69
88 89 91 96 94 90 90 98 100 98 94 94 98 100 97 92 88 86 88 90 100 100 100 100 100 100 93 76 81 84 85 82 75 80 80 73 74 75 77 74 70 68 77 81
83 89 98 84 95 98 99 99 100 100 99 91 77 91 99 100 100 93 89 91 99 100 100 100 99 76 73 74 72 74 81 77 78 85 88 77 73 75 73 76 78 76 74 83
70 73 86 94 89 98 100 100 100 100 100 92 90 97 100 100 99 96 96 100 100 100 98 80 76 80 82 91 95 96 96 96 90 84 78 74 72 77 82 80 71 70 64 63
52 56 69 79 85 92 93 99 100 100 100 100 100 97 98 92 84 92 100 100 100 100 97 99 100 100 100 98 94 92 92 92 82 70 77 88 88 74 68 60 63 66 59 54
42 45 54 64 69 75 76 85 89 100 100 100 100 100 100 98 92 100 100 89 83 83 89 90 85 87 89 84 79 80 84 87 90 88 84 78 63 52 57 61 60 50 24 16

GFSNW_250_rhum_006.txt.gz
RH
76 100 100 100 52 95 73 86 77 100 100 100 100 100 100 100 100 100 89 100 100 66 38 40 40 42 42 38 32 26 25 26 24 24 23 24 27 29 29 29 37 59 84 100
71 99 100 100 50 81 72 88 86 100 94 100 100 60 100 100 100 100 63 71 81 87 66 45 38 35 39 41 55 55 38 35 31 28 30 35 34 37 33 29 60 93 100 100
67 95 100 100 50 87 77 95 71 77 99 97 100 100 77 99 100 98 100 87 100 88 85 86 76 72 63 57 50 40 38 37 42 46 42 36 32 30 41 99 100 99 100 100
62 89 100 93 47 73 75 97 100 62 60 95 95 100 97 92 100 88 100 100 100 100 100 96 100 100 100 98 96 97 90 83 78 66 43 43 49 92 100 100 100 100 100 100
51 79 100 88 57 58 74 78 100 95 61 81 95 100 100 100 87 76 99 100 100 100 94 100 100 100 97 100 100 100 100 100 100 100 97 100 100 100 100 100 100 100 100 100
42 62 89 96 50 40 68 69 70 92 72 88 70 76 100 100 100 100 59 74 75 100 100 99 84 100 99 100 100 100 100 99 100 100 100 100 100 100 100 100 100 100 100 99
51 49 67 91 58 42 46 56 59 80 84 100 84 66 73 85 94 100 100 94 50 86 100 100 100 90 90 94 100 100 100 98 94 96 89 94 94 95 96 94 96 97 93 90
77 47 54 67 78 48 42 49 47 55 76 82 92 98 78 72 95 100 100 100 97 44 56 87 100 100 100 100 99 99 94 95 100 100 100 100 100 100 100 96 94 100 100 98
95 65 44 55 60 52 46 44 54 49 55 68 67 82 100 98 70 79 77 94 84 83 57 47 63 70 93 100 100 100 100 100 100 100 100 100 100 100 100 100 100 99 93 89
83 87 63 43 55 54 49 44 46 51 52 53 63 92 84 96 94 70 70 63 62 66 56 53 45 52 65 75 69 74 85 93 95 99 100 100 100 100 96 89 81 82 76 66
73 88 78 63 48 48 54 47 45 45 53 62 65 64 79 87 80 67 77 89 70 51 47 47 44 40 44 58 64 56 54 68 76 76 74 72 68 62 62 66 68 69 67 61
70 74 79 59 52 47 53 63 52 45 43 46 56 63 67 70 74 69 79 82 94 93 90 80 69 59 51 50 68 72 70 71 66 66 64 76 79 80 80 75 73 75 90 99
80 69 73 51 56 47 47 54 63 56 53 48 50 54 59 67 75 82 90 86 84 90 98 100 86 69 63 63 71 80 86 86 100 90 83 87 94 97 100 99 90 92 91 73
92 77 64 77 48 48 47 47 53 63 63 64 66 61 57 61 65 69 70 71 86 93 94 92 96 98 97 88 91 91 81 90 90 89 85 85 84 94 96 91 76 61 52 46
97 98 78 67 78 51 46 44 47 54 64 64 75 88 92 88 83 74 75 75 80 86 87 92 100 99 92 92 100 90 99 100 100 100 94 88 75 64 60 53 44 42 44 45
98 100 99 80 80 80 50 40 38 42 48 50 55 69 82 77 88 94 95 97 98 98 93 97 100 100 96 96 99 75 93 89 80 71 61 53 52 49 46 47 47 58 67 60
88 99 100 99 83 82 69 53 41 36 41 37 40 42 52 49 43 46 46 54 65 62 77 88 91 95 98 95 91 74 78 73 70 64 54 51 54 58 57 62 67 59 47 38
86 93 100 100 100 86 75 63 52 48 41 38 37 40 41 41 44 46 44 50 52 65 73 70 68 70 70 71 71 72 70 77 69 72 66 64 76 73 64 55 46 39 35 34
94 86 86 91 100 100 89 69 55 53 60 54 52 51 50 43 50 51 51 54 56 64 73 82 86 90 92 75 81 83 84 71 63 56 63 74 75 66 54 44 45 46 39 36
99 95 92 84 77 94 100 95 67 54 54 65 70 60 59 62 60 54 52 50 51 62 72 77 97 100 84 83 83 76 63 58 57 63 67 64 56 48 45 47 47 38 38 39
98 100 100 96 82 69 77 88 89 74 72 76 83 80 78 81 76 71 68 66 65 69 75 77 82 84 76 76 68 61 59 66 72 70 63 52 44 44 46 41 40 46 50 51
96 97 97 89 86 85 75 80 99 100 98 93 75 69 74 78 81 82 90 90 84 82 82 77 81 81 81 84 83 81 83 81 76 70 62 51 43 43 42 46 52 53 55 64
84 93 94 97 79 79 79 85 89 100 97 90 86 85 81 81 80 76 78 77 77 84 86 83 76 76 79 76 75 81 92 97 91 72 60 55 62 59 55 56 62 66 71 75
68 79 84 85 83 78 93 100 100 100 93 95 95 88 78 75 74 72 75 81 88 89 83 72 71 63 61 70 73 71 67 58 58 68 76 70 77 72 69 69 73 68 64 72
50 62 70 89 96 91 86 90 96 100 98 94 95 96 93 98 100 98 96 92 84 78 69 67 64 64 61 60 63 66 68 73 76 77 74 67 66 68 71 68 65 70 76 88
32 39 48 71 89 92 91 90 91 93 95 100 100 97 92 90 90 100 100 100 90 80 76 77 75 73 80 83 82 83 85 83 79 79 80 79 72 65 68 80 80 83 94 89
23 27 34 42 70 83 92 94 90 94 96 100 99 96 99 93 99 100 100 84 78 85 86 85 86 92 98 100 100 100 98 93 82 72 70 72 78 87 86 82 88 75 60 51

GFSNW_250_rhum_009.txt.gz
RH
100 95 69 99 100 84 73 69 90 100 100 84 100 100 100 100 96 42 38 22 20 28 24 24 24 23 19 19 19 17 14 14 14 14 15 15 15 16 16 17 22 29 26 28
100 90 67 94 100 79 62 77 87 100 100 77 83 100 100 100 100 76 45 42 27 24 26 29 38 34 26 21 20 20 19 17 15 14 13 14 15 16 18 17 22 29 26 28
100 92 62 95 100 82 62 83 88 82 100 68 86 100 100 100 98 100 72 48 49 39 35 29 29 34 36 30 23 20 19 19 19 17 19 17 20 21 19 23 30 29 27 28
100 86 62 91 100 88 71 58 89 96 100 100 89 94 93 100 99 100 100 93 67 51 54 55 45 33 33 34 35 32 26 22 22 19 18 17 16 18 24 30 27 26 31 35
97 88 60 85 100 93 54 60 84 87 95 99 100 64 100 69 100 100 90 95 99 98 77 59 45 49 48 46 51 43 32 29 30 30 29 29 29 28 27 26 30 44 38 54
93 99 57 79 100 86 41 65 63 56 95 84 100 100 100 85 95 100 100 98 79 89 98 100 96 66 53 51 44 43 49 55 53 50 42 42 46 48 48 49 46 50 97 100
97 100 63 69 100 88 44 57 59 69 63 84 83 100 100 100 67 91 100 100 100 100 97 100 97 91 100 95 91 75 63 41 52 51 50 47 74 73 75 74 96 100 100 100
100 100 77 64 95 84 50 51 54 81 68 80 81 88 100 100 94 46 70 95 100 100 100 82 89 100 100 100 100 100 100 98 98 90 81 98 88 95 100 100 100 100 100 96
100 99 91 66 78 85 64 49 60 66 75 59 93 75 78 86 100 95 62 81 69 71 100 100 100 100 62 89 99 100 100 100 100 100 100 100 100 98 88 86 84 92 87 88
97 97 98 77 62 68 67 52 49 71 57 52 61 94 87 74 78 95 100 95 80 58 63 78 93 100 100 100 86 70 74 68 80 80 83 96 100 100 95 98 100 99 99 100
81 97 94 85 75 63 62 55 47 45 58 60 57 63 70 81 94 72 65 100 100 94 81 54 48 61 86 98 100 100 100 100 100 100 100 100 100 100 100 99 100 100 95 77
74 89 97 85 85 75 59 58 53 50 47 61 63 68 71 64 72 99 99 80 73 74 69 72 50 44 47 54 62 67 93 98 86 86 97 100 98 96 99 94 87 77 66 68
58 78 98 93 78 77 64 54 52 48 49 52 56 61 65 69 66 73 77 92 89 72 80 72 67 52 61 64 61 60 71 93 100 100 100 81 85 97 82 75 71 74 93 95
52 63 92 100 82 69 72 58 54 51 45 47 50 54 59 69 74 72 69 65 76 66 69 80 85 83 91 89 92 73 62 64 80 86 92 90 97 91 97 98 95 88 84 76
73 62 82 100 96 72 56 73 63 56 54 48 48 50 56 58 58 61 71 71 77 76 72 76 83 92 99 98 88 94 70 96 99 86 77 82 89 96 99 89 81 85 86 94
81 75 73 95 100 83 74 53 71 74 58 58 63 54 56 59 61 64 68 72 75 69 68 77 84 74 73 85 82 58 71 85 98 100 95 90 91 92 97 98 95 82 73 68
85 89 80 80 100 98 81 88 57 65 66 62 67 74 86 83 78 73 71 67 69 73 77 79 80 80 85 94 90 90 100 100 100 100 100 97 89 82 70 62 65 66 58 50
97 90 86 68 89 96 94 87 78 62 58 55 59 81 79 81 78 79 80 81 74 79 90 90 88 91 95 97 85 83 100 100 95 87 85 76 64 60 60 60 54 54 52 51
99 92 88 78 73 90 94 85 77 74 70 57 58 61 60 54 64 66 62 56 59 74 82 82 72 84 83 78 77 76 76 77 70 63 63 74 80 69 57 53 52 51 55 53
86 94 97 96 84 71 88 92 81 76 93 80 72 65 59 55 59 56 60 55 54 56 64 62 76 84 72 75 90 99 100 97 87 87 88 83 79 64 52 55 62 63 60 59
81 90 100 100 84 75 75 76 79 82 88 96 97 87 77 62 57 55 56 54 47 47 52 50 64 74 67 63 68 73 74 68 72 80 74 68 64 68 71 71 67 61 52 45
85 87 94 96 89 77 71 75 86 84 90 100 100 82 73 77 74 70 67 61 57 58 62 60 61 62 56 56 61 66 67 68 74 75 74 73 71 64 58 55 54 53 53 58
79 85 85 86 90 91 86 80 90 98 100 96 79 80 76 73 74 80 74 60 59 67 67 73 75 74 75 79 79 81 87 87 83 80 81 76 72 72 69 66 60 56 54 56
66 71 69 68 76 88 99 96 94 99 99 96 84 74 74 79 82 77 69 66 62 59 61 65 68 75 81 79 81 82 81 80 78 73 70 69 71 68 62 55 56 62 61 61
63 58 55 61 73 88 100 99 97 95 95 95 91 79 82 83 79 89 91 89 75 70 72 79 84 88 84 87 88 78 73 74 76 73 68 67 66 64 62 58 57 60 62 63
54 49 52 60 70 74 80 99 100 100 100 92 86 83 80 78 70 78 81 73 65 66 69 69 65 65 71 74 68 65 61 57 57 60 63 60 53 54 55 54 58 63 70 77
38 48 52 55 58 62 70 76 85 100 99 98 94 90 85 90 99 94 89 79 77 76 77 76 79 78 72 70 69 67 69 72 70 64 63 66 62 61 64 73 84 89 87 85

GFSNW_250_rhum_012.txt.gz
RH
80 100 100 100 97 100 100 84 82 74 99 100 78 100 100 64 52 32 18 16 16 19 20 20 20 16 13 13 16 17 16 17 18 21 23 22 26 26 24 29 33 26 25 25
74 100 100 99 96 100 100 87 73 70 77 100 83 98 100 93 59 38 27 20 21 20 21 20 19 16 14 14 15 18 16 16 17 19 20 21 24 24 25 28 28 23 21 23
66 100 100 100 90 100 100 90 74 100 88 100 89 81 100 100 66 50 30 31 25 24 25 26 21 20 19 16 16 16 17 17 18 21 24 23 23 24 24 25 22 20 20 20
58 100 100 100 87 96 100 84 74 95 85 100 100 95 75 100 100 65 57 30 26 27 31 25 24 27 23 21 20 18 19 19 18 19 19 17 18 18 16 16 17 17 19 19
58 100 100 100 84 90 100 96 63 70 100 100 100 89 100 93 100 100 54 53 26 26 33 43 38 35 28 25 25 23 21 19 17 16 16 15 16 15 15 17 17 18 18 16
56 100 100 100 79 87 100 98 60 76 82 100 83 100 95 100 100 100 100 78 50 44 31 33 37 41 38 36 34 27 26 25 22 20 18 18 19 20 19 19 18 19 24 26
54 95 100 100 77 84 100 79 60 59 68 100 100 78 96 100 100 100 98 100 100 81 58 42 36 34 35 38 42 41 39 38 33 30 25 27 29 23 24 25 27 29 33 35
43 87 100 100 74 84 100 73 52 59 72 86 99 100 99 82 100 100 100 92 100 100 100 98 81 60 55 56 51 48 46 50 41 30 28 34 31 33 34 34 38 39 43 46
34 77 100 100 81 88 96 79 50 61 61 76 86 99 100 95 74 98 100 100 100 88 100 100 100 100 100 90 75 72 65 51 51 48 48 43 37 38 46 50 46 48 44 44
31 66 100 100 96 96 88 90 58 56 60 61 78 77 85 87 71 69 86 100 100 100 100 82 88 96 100 100 100 100 100 100 98 99 93 92 85 68 76 78 98 95 86 93
31 47 94 100 98 100 79 90 70 54 63 64 63 58 89 96 91 89 68 56 76 86 96 94 100 100 100 96 99 100 100 100 100 100 100 100 100 96 93 95 95 87 93 85
41 42 81 100 100 100 97 79 69 60 51 60 72 72 66 97 99 99 77 84 61 64 60 63 66 86 100 100 98 75 70 78 81 79 89 82 82 93 95 100 88 78 76 68
48 46 74 94 100 96 100 88 65 62 54 48 56 58 58 59 71 92 94 74 70 75 93 57 51 52 64 61 77 92 99 100 93 81 84 78 82 79 85 97 89 84 81 88
61 60 60 84 99 98 95 87 75 55 55 54 54 57 60 64 61 62 61 65 66 68 65 93 99 85 73 60 51 48 54 66 83 99 100 100 100 100 97 95 92 92 95 100
78 66 44 67 87 93 96 89 72 67 59 56 49 52 52 58 64 71 74 73 71 75 79 69 67 69 80 76 66 61 51 59 70 69 73 88 100 100 98 96 91 92 98 97
88 78 44 54 74 92 81 93 82 64 73 51 57 51 48 54 56 58 65 77 87 92 88 91 84 73 66 67 71 80 84 89 80 74 73 66 73 81 78 78 89 95 94 92
84 88 57 52 55 68 93 85 87 63 54 63 57 62 57 54 52 57 61 66 71 74 75 75 75 72 78 83 87 76 82 97 88 86 70 60 66 75 94 98 99 100 100 96
86 87 85 59 60 56 75 93 78 83 65 50 65 66 60 63 58 51 49 54 57 65 68 71 72 73 77 90 87 67 87 97 99 98 80 77 87 96 93 89 95 99 97 91
97 86 90 85 76 67 62 81 92 78 76 76 73 67 67 58 63 69 67 68 64 66 67 64 63 75 79 80 77 86 97 95 87 87 90 97 98 99 99 94 86 71 66 67
89 76 90 99 99 95 66 65 84 93 90 78 82 80 72 63 69 72 70 70 68 88 87 76 78 89 81 88 100 99 100 100 100 99 94 85 77 75 67 67 70 65 63 62
92 82 80 94 96 95 99 80 77 88 98 100 100 96 82 72 65 61 61 63 60 61 70 54 74 76 61 66 82 88 85 82 78 74 64 65 68 62 60 56 59 64 66 69
97 98 90 89 92 96 92 95 87 75 97 100 100 100 91 82 74 73 62 53 50 56 76 73 85 85 74 72 69 69 73 68 63 62 61 57 57 60 66 73 80 84 84 88
93 93 85 90 87 87 92 100 100 93 79 95 94 85 80 75 69 62 59 55 62 59 58 73 89 77 70 72 75 74 71 71 72 73 74 76 78 82 85 84 84 80 76 76
72 85 84 90 85 81 99 100 100 100 100 83 76 83 94 94 89 82 74 60 54 54 64 82 74 65 72 75 75 75 73 70 70 75 77 77 78 80 75 64 56 55 54 51
66 70 71 78 83 98 100 100 100 100 100 100 99 91 81 77 84 95 94 88 83 89 96 91 89 91 88 87 85 77 74 76 75 70 68 64 60 59 57 58 56 55 55 56
47 57 63 72 80 86 100 100 100 100 100 100 97 94 94 96 90 91 91 93 99 98 95 92 90 90 88 88 88 86 78 69 64 62 60 62 65 68 67 65 64 62 60 63
34 39 46 60 66 70 83 95 99 100 100 100 100 100 100 100 98 95 93 96 93 90 87 87 92 93 92 89 88 86 80 74 72 70 69 70 68 64 64 62 62 65 70 67

GFSNW_250_rhum_018.txt.gz
RH
76 92 100 100 92 86 100 84 100 100 96 74 74 71 79 78 44 30 26 25 25 21 23 24 26 22 21 22 21 19 14 16 20 32 24 25 23 26 30 31 33 44 49 40
54 83 87 88 90 96 93 98 100 100 96 66 82 76 77 72 48 35 28 27 27 28 25 25 24 26 24 26 24 23 20 18 19 28 22 24 22 21 26 31 34 36 42 45
46 66 81 91 100 98 82 100 100 98 99 69 72 94 71 71 53 42 40 32 32 35 32 23 23 25 24 25 24 22 22 21 21 28 42 31 26 24 25 28 32 35 38 39
36 60 76 97 100 99 74 100 100 100 94 72 70 83 76 72 54 47 42 36 35 33 35 27 21 19 19 23 22 20 21 22 22 25 33 36 34 26 24 23 25 25 31 29
38 61 79 89 99 100 74 100 100 100 96 70 72 59 91 68 57 62 47 40 34 29 27 21 18 17 16 17 21 23 21 22 22 23 26 33 37 36 31 28 24 27 30 36
38 60 80 94 100 100 82 100 100 100 100 76 60 80 100 76 79 63 66 56 45 37 33 29 23 17 13 13 16 18 20 21 22 22 23 25 31 39 39 37 33 33 32 35
33 56 81 100 95 99 90 100 98 100 100 81 68 70 100 100 74 73 75 70 50 44 35 31 25 21 18 16 13 16 18 19 20 22 23 25 27 29 35 37 36 37 37 34
40 65 87 100 94 94 99 100 97 100 100 89 68 60 100 100 100 83 82 84 77 44 36 33 33 27 22 20 19 17 16 18 19 20 21 22 22 22 23 24 26 30 32 31
43 62 87 98 91 96 100 100 100 100 100 98 71 77 90 100 100 100 86 84 94 70 67 43 40 40 35 27 23 20 19 17 17 19 21 20 19 21 22 22 23 23 23 23
44 61 92 88 90 94 100 100 100 100 100 99 64 70 84 96 100 100 100 100 79 90 86 71 60 57 54 49 45 36 27 23 24 23 24 22 22 23 23 24 24 24 25 25
45 59 81 84 88 99 100 100 100 100 100 99 78 76 87 78 94 100 100 100 100 95 77 86 94 82 71 60 54 47 60 64 55 54 43 41 40 40 43 43 50 43 41 39
47 50 68 85 88 98 100 100 100 97 100 87 76 90 80 88 75 96 100 100 100 100 99 99 94 77 68 64 67 63 61 48 51 60 53 44 45 44 48 47 49 47 50 49
47 52 68 82 87 96 98 100 100 93 98 92 65 82 93 82 75 80 91 90 99 100 100 100 100 100 100 100 96 82 77 83 89 94 93 82 61 62 58 60 59 61 64 71
44 53 68 82 93 98 95 100 100 94 96 100 66 60 69 92 62 70 85 85 85 99 100 100 100 97 98 97 100 100 99 99 100 95 91 100 95 89 84 87 94 100 99 100
46 52 73 83 94 95 91 100 100 100 100 99 87 64 59 66 82 72 72 71 74 85 95 99 92 94 94 90 86 86 91 97 100 100 100 100 100 100 100 100 100 100 100 98
51 54 70 81 89 92 81 99 100 100 100 82 100 76 68 65 69 73 72 71 69 66 74 67 65 65 68 72 73 66 62 63 68 73 91 96 85 90 88 81 80 77 68 64
45 54 65 80 85 80 67 94 100 100 99 84 87 97 72 66 64 61 62 62 65 64 69 69 64 65 77 82 70 62 64 60 54 54 59 60 60 57 54 57 54 50 47 46
54 56 65 84 77 73 67 79 97 97 86 90 74 100 97 78 68 65 65 69 64 63 71 81 78 70 74 90 86 79 72 66 60 72 66 58 49 48 48 43 41 39 44 54
58 63 66 72 75 69 66 63 81 98 96 100 100 90 90 85 74 64 62 59 61 66 67 64 66 75 82 91 80 72 67 65 61 62 62 57 55 57 56 55 61 69 73 76
54 60 67 73 76 75 60 58 65 93 100 100 100 95 59 72 80 77 67 62 62 67 69 65 67 78 82 85 82 75 67 66 76 75 71 72 70 68 69 71 67 67 73 75
38 53 71 86 85 78 54 61 58 88 100 100 100 99 82 68 70 74 75 77 80 72 64 55 69 85 65 54 66 87 94 67 61 60 63 64 64 67 71 71 73 70 67 69
43 64 82 88 84 73 57 54 61 70 98 100 100 100 88 97 76 61 74 65 73 85 76 77 100 76 62 58 75 78 81 78 74 68 63 62 61 67 73 73 70 74 81 83
38 50 56 73 68 60 64 64 66 53 64 92 100 100 89 83 95 88 68 63 67 91 95 100 99 83 80 77 80 83 83 77 72 71 74 76 76 72 68 68 70 68 67 69
27 33 50 60 64 58 72 83 91 84 62 49 65 81 85 79 86 91 91 95 93 85 100 100 76 78 84 78 68 66 71 77 80 82 83 83 80 74 73 73 74 80 85 87
23 29 38 60 73 70 82 86 92 97 89 60 50 59 69 80 77 89 92 96 98 100 100 98 99 94 99 100 100 100 100 100 97 94 90 82 82 86 88 89 93 98 96 94
25 23 37 56 67 76 82 82 87 92 86 82 72 66 62 60 62 71 80 90 96 99 92 87 88 92 91 90 92 95 99 100 99 97 93 93 92 90 91 91 91 92 96 97
21 26 35 54 62 76 87 86 83 88 88 84 89 84 81 82 70 66 66 67 68 70 76 84 91 93 88 86 85 90 94 96 95 96 95 92 88 88 88 91 92 88 86 83

GFSNW_250_rhum_021.txt.gz
RH
16 23 17 28 60 65 89 100 91 82 100 99 91 63 53 95 82 52 39 34 31 26 19 19 22 27 24 37 38 38 41 51 31 32 32 36 33 34 37 47 43 38 38 40
18 19 21 48 60 62 98 100 85 86 100 94 90 57 61 86 76 47 38 38 32 28 29 23 24 28 24 23 30 32 24 17 29 30 35 32 30 31 38 41 41 40 34 33
20 17 36 53 52 67 100 100 91 100 100 92 98 57 69 83 76 48 40 41 37 35 36 33 32 35 35 25 28 23 23 20 21 27 40 37 34 37 38 40 38 38 33 28
16 20 40 52 51 80 98 99 98 100 100 97 98 65 71 93 70 53 54 51 43 39 37 42 35 37 42 46 42 30 22 21 22 22 32 28 30 31 25 26 30 30 31 29
14 24 49 44 47 84 100 97 100 100 100 100 97 70 61 93 81 49 47 50 42 37 34 26 32 31 31 41 52 38 32 27 23 24 33 33 29 27 26 27 31 33 34 37
17 29 48 43 52 84 99 98 100 100 100 100 96 68 58 91 86 58 45 51 52 47 42 33 32 22 20 22 27 28 27 26 23 26 29 34 34 31 31 32 35 35 36 35
18 24 35 37 60 88 97 100 100 100 100 100 94 70 71 84 89 85 52 45 48 48 42 34 21 24 26 26 24 25 25 20 20 23 23 29 42 45 36 31 31 32 34 30
22 39 39 46 72 97 100 100 100 100 100 100 91 76 91 84 94 95 76 48 43 38 40 35 29 22 19 19 21 24 24 24 21 21 22 24 26 33 39 41 42 43 49 44
22 36 39 58 86 97 98 100 100 100 100 99 99 75 92 70 93 94 96 71 52 44 39 38 32 27 26 24 20 20 22 23 23 23 22 22 22 24 26 29 33 36 40 42
15 34 44 64 81 94 95 99 100 100 100 100 100 82 95 76 80 98 99 94 77 52 44 46 37 32 27 24 21 20 22 22 23 23 22 21 22 23 23 24 24 24 26 28
15 36 42 62 90 91 94 100 100 100 100 99 100 92 81 96 95 91 95 94 86 81 68 59 46 48 46 42 33 28 23 22 22 23 24 23 23 23 24 26 27 28 29 29
21 34 46 65 85 94 86 100 100 100 100 99 100 96 80 100 100 100 100 95 89 88 88 77 54 49 51 49 50 47 42 34 30 27 24 23 24 27 29 28 28 28 27 28
21 37 46 60 84 89 87 99 100 100 100 100 100 100 79 89 95 100 100 100 92 94 89 90 90 77 59 56 44 40 43 46 45 44 41 35 40 39 42 39 38 38 41 43
22 38 47 56 76 86 86 95 100 100 100 100 100 100 82 88 88 95 100 100 100 100 100 99 100 88 82 79 78 76 66 68 74 79 74 65 58 53 52 55 53 52 56 64
35 50 53 58 70 79 82 95 98 100 100 100 100 96 86 83 97 85 98 100 100 100 100 100 100 100 100 100 100 100 98 95 100 96 96 88 84 80 80 87 91 98 99 97
41 53 56 57 63 73 83 98 99 100 100 100 100 93 71 78 86 99 79 91 99 100 100 100 100 98 100 100 100 96 99 100 100 100 100 96 94 100 93 90 97 100 100 100
44 56 55 55 60 69 81 100 100 100 100 100 99 98 76 73 82 91 81 72 76 89 95 97 98 100 100 99 99 98 95 88 83 76 72 71 72 72 81 95 96 82 77 72
34 51 56 55 56 69 81 94 93 96 100 98 93 100 95 77 73 71 76 70 67 78 83 89 85 91 93 98 92 82 74 73 72 70 66 60 56 50 49 53 56 58 58 52
42 55 59 60 57 71 88 88 85 91 93 100 100 100 100 99 88 75 64 61 60 61 64 66 67 66 71 99 74 66 66 66 62 61 58 56 64 64 56 51 51 52 50 48
50 60 54 55 58 69 84 81 81 82 92 100 100 100 98 98 88 79 77 72 66 65 62 59 62 87 81 71 67 67 62 61 58 61 68 67 61 63 66 71 71 69 69 68
39 62 55 64 62 64 74 78 75 83 98 100 100 100 93 90 100 100 92 83 80 81 82 67 71 86 72 65 66 60 54 54 61 67 73 84 88 87 83 82 81 78 74 68
30 62 71 73 59 63 62 70 71 82 100 100 100 100 87 92 96 96 100 97 82 81 79 67 91 99 65 59 64 65 64 64 65 77 85 89 87 82 76 73 71 67 60 60
35 52 67 57 50 56 58 70 77 84 100 100 100 100 90 78 90 82 76 68 97 100 95 90 78 70 67 64 66 71 74 72 71 70 69 66 66 66 66 59 56 56 65 74
26 30 38 43 50 58 70 87 93 99 100 100 99 92 83 74 84 82 70 77 92 99 100 100 82 85 87 78 70 69 70 70 67 66 70 72 73 75 74 75 80 89 97 99
23 33 33 45 52 68 88 92 92 92 92 84 72 74 92 81 71 86 90 94 93 100 100 95 69 67 70 68 60 57 64 71 76 77 78 80 81 81 85 96 98 99 100 98
17 26 41 43 45 62 82 90 87 92 83 73 62 60 75 93 86 96 88 92 100 100 98 88 88 85 81 84 87 88 90 91 91 87 82 83 92 99 100 99 98 98 98 90
12 21 29 39 44 55 73 85 88 89 84 72 60 52 57 72 86 99 99 100 94 93 94 95 98 100 100 100 100 100 100 99 93 89 93 99 100 100 98 98 98 93 88 85

GFSNW_250_rhum_024.txt.gz
RH
5 6 8 10 13 16 25 41 66 77 81 96 100 90 100 91 64 62 55 53 41 36 41 26 19 18 29 30 51 47 38 70 83 83 87 72 34 32 39 44 44 46 45 60
6 7 9 11 15 20 34 39 81 67 92 100 100 100 100 68 81 65 58 52 39 36 37 26 31 55 58 60 65 84 97 100 91 75 62 31 27 31 46 36 53 44 50 60
7 8 10 12 18 27 28 46 70 85 90 100 98 100 99 62 82 74 62 54 42 36 38 23 31 44 57 66 74 100 100 94 80 53 55 26 29 38 34 44 46 42 58 62
7 8 10 14 21 22 30 60 88 93 100 94 100 100 90 76 91 84 64 59 56 41 48 27 22 29 57 77 72 77 99 84 56 39 32 29 31 34 40 59 59 54 55 63
8 9 14 22 25 20 54 75 89 100 97 100 100 100 68 77 94 81 64 64 64 67 42 49 30 20 44 52 55 53 55 57 47 31 28 29 34 34 45 53 47 50 52 54
8 11 16 17 18 34 75 94 95 96 94 100 100 100 61 75 99 80 60 64 63 72 79 52 51 54 32 30 31 30 24 16 24 23 25 30 35 35 44 46 46 54 54 47
10 14 16 17 30 64 74 84 94 94 100 100 100 100 64 73 89 84 57 72 71 70 54 70 73 64 58 54 42 33 25 24 26 26 30 37 34 34 36 39 43 48 48 44
14 18 17 26 62 71 77 96 99 100 100 100 100 100 68 64 84 90 65 61 72 58 56 51 47 50 56 51 40 41 40 31 28 26 26 28 35 38 37 35 37 43 44 40
17 18 18 31 56 64 86 98 94 100 100 100 100 100 89 73 93 89 66 61 56 61 46 44 40 36 38 40 45 41 34 33 32 30 29 28 32 43 48 48 35 37 36 34
15 16 24 58 74 68 86 96 95 100 100 100 100 100 98 83 97 90 74 79 62 50 47 39 36 35 27 27 29 31 30 29 28 28 29 30 29 32 41 52 47 40 37 38
13 18 34 57 60 68 87 98 95 100 100 100 99 100 96 92 92 95 91 83 74 60 51 51 40 34 31 28 22 22 24 26 26 26 25 26 28 30 32 33 38 44 48 51
14 21 35 68 58 76 82 99 98 100 100 100 100 100 92 100 90 90 91 92 82 79 64 49 53 46 38 32 32 29 29 26 26 26 27 25 24 24 26 28 28 28 29 29
16 21 34 66 59 72 91 96 100 100 100 100 100 100 97 100 98 71 94 100 99 86 81 81 58 52 51 48 43 36 38 32 30 29 26 29 30 30 29 30 30 29 28 28
17 26 40 55 62 78 95 100 100 98 100 100 100 100 100 95 100 84 76 92 99 93 78 77 77 66 63 58 55 56 50 46 36 29 26 25 27 27 28 28 28 28 28 28
17 23 43 53 68 91 96 95 100 99 100 100 100 100 100 98 97 100 90 69 88 99 99 98 96 95 93 88 82 79 69 63 63 57 51 51 51 46 42 46 46 53 65 65
19 24 48 57 72 83 92 99 100 100 100 100 100 100 100 100 97 98 99 88 78 90 96 100 100 100 97 100 97 82 82 82 76 80 79 76 87 98 97 95 95 86 86 88
19 23 47 55 65 79 87 100 100 100 99 100 100 100 100 100 100 95 87 100 98 74 94 98 96 98 100 100 100 97 86 81 79 84 86 82 77 77 75 77 82 91 96 97
20 22 34 53 60 73 87 99 94 89 93 92 100 100 100 100 100 100 91 85 99 98 74 90 100 100 100 97 100 100 95 94 99 99 98 95 90 82 77 74 73 72 70 66
20 22 34 54 60 72 86 100 96 86 86 90 99 100 100 100 100 100 100 96 75 78 98 96 91 100 100 99 96 92 93 87 83 83 85 86 80 73 66 66 63 58 52 48
18 20 28 61 73 81 82 89 91 80 79 96 99 100 100 100 100 89 90 96 99 81 77 79 83 100 100 91 84 84 86 84 79 68 66 64 58 57 56 56 56 64 62 66
15 16 29 69 84 78 80 80 83 83 83 98 100 100 100 100 100 92 76 80 88 94 85 77 78 80 84 80 85 78 72 68 67 64 66 66 68 67 67 70 70 81 89 84
18 29 60 84 77 76 81 81 78 89 96 95 100 100 100 100 95 97 100 94 88 95 96 82 92 82 66 63 61 60 61 61 60 63 64 67 69 67 71 76 79 84 80 79
19 26 39 54 66 69 68 81 86 88 100 100 100 100 96 96 99 99 95 88 94 99 99 100 100 80 80 72 67 67 67 68 70 69 67 65 64 66 72 80 79 78 72 70
15 21 32 38 56 72 84 96 100 98 100 100 100 98 85 80 95 92 86 95 100 100 100 100 84 88 81 72 66 62 61 61 62 66 66 63 66 71 70 66 62 60 58 56
12 17 20 29 51 86 90 93 100 100 100 100 100 93 80 79 76 88 85 96 100 100 100 100 82 86 92 86 75 72 67 68 72 72 69 67 65 61 56 53 56 63 71 74
12 16 22 26 37 75 92 98 100 100 100 100 100 99 83 71 68 68 85 100 100 100 100 100 85 75 78 86 90 92 87 77 70 66 63 60 60 63 69 80 83 78 76 76
12 16 21 30 37 58 92 98 100 100 100 98 95 90 79 69 62 69 88 100 97 100 98 96 98 95 93 91 89 84 80 76 77 78 80 83 87 90 88 84 83 86 92 94

GFSNW_250_rhum_027.txt.gz
RH
2 3 4 4 6 8 10 13 15 18 30 45 80 100 86 95 100 100 98 78 63 43 40 39 37 14 22 22 38 74 87 64 93 74 98 97 90 100 100 99 42 40 29 48
3 3 4 5 6 8 11 14 19 22 36 64 100 86 100 100 100 100 78 76 50 44 39 36 27 40 46 45 70 88 100 100 100 100 100 100 100 100 100 46 43 32 31 64
3 4 5 6 7 9 11 14 15 27 46 100 90 100 100 100 100 86 92 67 50 44 30 42 35 57 67 97 100 100 100 100 100 100 100 100 100 100 85 52 35 32 41 67
3 5 6 7 8 10 12 14 28 49 100 91 99 100 100 100 100 87 86 69 56 40 55 54 30 49 55 93 100 100 100 100 100 100 100 100 100 89 58 44 34 35 57 62
4 6 7 8 10 13 17 24 36 84 72 100 100 100 100 100 80 100 94 70 74 66 75 66 41 35 32 58 79 100 100 100 100 100 99 100 50 57 39 33 33 40 54 57
5 7 8 8 11 16 24 32 63 73 94 96 100 100 100 100 76 99 99 89 88 97 97 82 59 44 43 57 64 76 97 95 98 93 70 47 46 44 33 29 26 28 46 50
6 7 8 12 17 26 28 38 65 81 97 100 100 100 100 98 77 99 97 100 100 100 100 100 90 73 48 43 47 50 76 82 68 70 38 40 30 28 27 22 22 37 49 53
7 8 12 14 19 23 27 52 72 92 99 100 100 100 100 94 80 100 99 100 100 100 100 100 96 100 77 74 67 58 62 58 58 53 43 34 31 27 25 32 40 46 47 55
8 10 14 18 22 20 48 64 90 100 98 100 100 100 97 96 80 97 99 89 100 100 100 100 100 96 96 86 74 64 56 59 60 42 43 35 32 30 37 46 59 57 47 52
9 12 20 22 18 33 64 82 96 100 100 100 100 100 95 87 86 89 100 86 85 92 95 91 78 66 62 57 60 61 52 48 44 37 36 29 31 38 51 57 57 52 45 44
10 16 22 20 18 56 68 86 100 100 100 100 94 100 100 94 92 93 100 91 77 74 71 59 61 61 50 50 52 52 49 44 40 37 31 31 33 37 48 53 60 63 58 49
12 18 20 17 27 57 70 93 100 100 100 100 100 100 99 90 100 100 97 89 82 74 62 51 42 43 44 39 41 42 40 36 36 34 29 31 32 32 38 46 52 60 59 56
13 20 20 18 47 66 77 95 100 100 99 95 98 100 100 89 98 100 100 100 85 84 58 57 48 38 35 37 38 38 37 40 38 34 29 28 29 31 33 34 37 39 42 45
14 17 20 28 55 70 81 95 97 99 100 99 100 100 100 93 87 100 99 100 84 84 76 65 57 49 48 37 37 37 38 30 29 28 29 30 31 30 30 30 31 31 32 32
14 17 21 42 62 72 76 88 93 100 98 96 99 100 100 100 93 91 100 88 99 84 85 83 81 76 73 82 66 60 59 50 36 31 30 30 30 28 29 29 30 31 32 33
14 17 22 46 68 77 84 100 99 100 99 100 98 100 100 100 100 92 99 94 100 100 100 100 100 100 94 86 92 93 74 78 77 74 57 45 45 52 52 49 47 46 48 50
14 18 21 50 68 76 86 100 100 100 100 100 96 100 100 100 100 100 95 87 87 98 94 97 97 100 100 94 89 93 93 89 94 97 89 83 86 86 84 82 82 85 95 93
15 19 21 48 74 71 80 94 100 100 100 98 95 100 100 100 99 98 98 96 94 82 79 90 87 100 100 100 100 100 100 100 100 98 90 83 76 79 92 98 90 87 81 80
14 20 23 38 74 76 78 96 100 100 100 99 98 87 94 100 100 95 91 94 100 100 94 76 84 80 98 100 99 91 95 97 96 96 95 92 87 89 82 83 88 82 76 70
14 18 19 33 76 80 78 76 92 96 100 100 100 100 99 95 100 100 100 100 100 100 99 100 100 98 74 77 82 88 80 76 81 88 92 96 99 91 84 78 74 64 59 55
14 13 20 47 67 74 78 74 88 94 100 100 100 100 100 100 100 100 100 100 100 100 91 98 100 100 100 93 99 99 97 95 89 85 81 78 74 69 65 62 56 53 53 58
12 14 27 46 53 64 77 81 88 99 100 100 100 100 100 100 100 100 96 100 100 99 94 88 99 90 93 98 92 88 90 96 90 85 91 90 82 74 68 70 68 69 70 69
11 14 19 25 42 60 73 80 88 100 100 100 100 100 100 100 92 83 80 100 100 93 87 100 83 78 84 85 95 97 94 85 84 91 87 77 74 72 72 69 73 78 78 74
9 12 14 16 26 56 77 80 89 100 100 100 100 100 100 88 86 80 78 99 100 100 100 100 80 74 82 82 73 65 68 66 61 58 62 66 67 65 67 68 73 68 64 70
8 10 17 19 32 48 74 79 89 100 100 100 100 99 94 82 78 84 86 100 100 100 100 98 80 77 80 81 77 75 75 78 82 82 77 76 73 70 69 70 73 76 76 72
8 11 26 33 42 58 66 78 89 100 100 100 100 99 92 95 94 100 93 92 100 100 100 100 100 100 99 99 98 99 100 100 100 98 89 84 84 84 82 80 76 73 72 70
6 16 26 43 48 58 67 82 85 94 100 100 100 100 92 87 92 100 100 97 90 94 100 100 100 100 100 100 98 93 93 97 100 100 99 98 92 88 81 74 72 75 80 81

GFSNW_250_rhum_030.txt.gz
RH
1 2 2 3 3 4 6 8 9 10 10 16 36 66 96 89 70 83 72 95 64 92 89 70 54 44 58 45 46 61 53 97 98 67 34 18 13 7 19 23 28 50 62 50
1 2 3 3 3 4 6 9 10 10 13 20 33 52 64 65 85 69 100 76 94 88 66 56 41 69 64 63 70 71 100 100 100 100 100 100 64 80 30 29 48 72 84 46
2 3 3 3 4 5 8 9 9 11 15 19 25 32 52 74 71 96 96 97 90 70 51 55 51 77 59 90 97 100 100 100 100 100 100 100 100 100 99 74 75 81 51 52
3 3 3 4 5 7 8 9 14 18 26 26 34 48 59 69 92 99 100 86 87 58 36 43 83 65 75 89 100 100 100 100 100 100 100 100 100 100 100 100 100 65 44 45
3 3 4 5 6 8 10 14 16 25 23 28 48 66 70 99 100 100 100 82 68 43 37 58 84 75 85 88 100 100 100 100 100 100 100 100 100 100 100 97 85 51 59 44
4 4 5 6 7 9 12 15 29 30 36 53 65 77 100 100 98 100 96 84 55 39 83 90 79 68 62 91 100 100 100 100 100 100 100 100 100 93 100 100 71 63 47 44
4 5 6 7 9 11 13 22 29 40 69 65 72 99 100 98 100 100 89 74 45 46 84 100 93 75 59 75 85 100 99 92 97 100 100 95 91 84 98 76 54 44 36 41
5 6 8 9 10 12 15 24 37 60 66 71 85 100 100 94 99 100 90 66 60 98 98 95 99 93 82 91 69 81 93 90 88 98 90 82 66 98 95 58 37 36 32 49
6 8 8 10 11 14 19 35 55 69 86 92 98 100 100 100 98 100 98 69 98 97 100 100 98 100 97 96 82 76 67 71 75 79 73 69 64 76 61 38 35 30 36 65
7 9 10 12 13 16 27 48 65 93 98 94 100 100 100 100 97 100 100 88 78 99 99 100 100 100 100 100 100 100 94 94 89 88 81 84 84 52 33 32 30 35 56 77
8 11 12 15 16 22 39 54 86 98 94 97 98 100 100 99 89 99 100 100 90 100 100 100 100 100 100 94 94 94 100 95 81 73 64 66 64 52 34 34 32 43 71 89
8 11 13 18 22 27 45 71 88 95 91 82 92 100 100 100 83 91 100 100 98 98 100 100 95 85 80 74 83 77 67 59 59 55 57 53 49 46 34 32 36 51 68 78
8 10 15 19 24 32 50 65 87 94 86 76 93 100 100 100 84 80 99 100 100 98 92 96 89 66 54 49 53 62 60 61 60 56 50 42 41 39 38 34 40 55 65 70
8 11 17 22 24 37 53 65 89 87 80 83 100 100 100 100 98 81 90 100 99 99 94 93 88 69 48 42 45 49 46 46 47 47 48 42 39 39 37 37 41 54 63 67
8 12 20 25 29 41 55 67 91 87 78 86 100 100 99 100 100 99 94 93 100 99 85 80 77 76 54 49 47 41 41 40 39 37 37 38 34 32 33 35 38 42 47 51
8 13 19 25 32 46 55 74 88 90 89 88 99 99 94 95 100 100 95 83 98 100 100 94 85 90 91 82 76 63 37 35 37 37 38 34 31 30 29 30 31 32 32 32
8 13 18 25 33 50 66 93 84 83 98 92 94 100 97 97 98 100 100 85 96 100 99 100 96 91 85 85 92 77 62 62 62 58 48 44 35 34 30 29 27 27 28 29
9 14 18 23 39 56 69 80 87 78 88 97 93 98 99 93 95 100 100 83 100 100 92 91 92 89 86 82 86 92 73 78 79 71 68 70 70 60 45 39 36 38 42 54
10 14 19 22 46 70 72 80 99 84 84 88 86 97 97 92 91 89 100 98 91 96 100 100 100 98 91 96 95 91 89 85 82 79 90 93 91 96 96 92 94 96 99 96
10 13 20 24 57 68 65 81 94 100 98 96 89 98 100 98 99 94 90 100 100 95 90 100 100 100 100 91 80 77 93 98 99 100 98 100 100 97 90 83 86 85 83 88
9 10 22 34 44 66 70 74 83 99 100 100 100 100 100 100 100 94 79 98 100 100 100 95 85 96 100 100 100 95 90 93 99 100 100 100 99 91 95 100 100 94 86 76
10 11 21 26 31 49 62 71 85 99 100 100 100 100 100 100 99 99 86 75 90 93 96 100 100 92 83 91 94 100 100 98 95 93 91 89 90 94 93 86 71 72 72 70
10 12 18 20 19 30 67 90 99 100 100 100 100 100 100 100 100 97 91 87 82 82 91 100 94 96 99 100 100 100 99 100 100 100 99 96 96 92 86 84 83 83 73 67
9 11 14 14 16 35 92 99 99 100 100 100 100 98 100 100 100 90 88 98 100 100 100 97 90 99 96 78 84 90 97 100 100 100 100 100 99 100 99 89 73 65 62 63
10 10 13 16 22 53 90 100 100 100 100 100 99 81 83 91 89 89 100 100 100 100 92 76 79 78 76 78 73 72 72 69 69 71 75 78 74 63 64 72 80 83 82 83
8 9 17 21 26 59 85 96 100 100 100 100 100 98 91 90 98 100 98 98 100 100 91 78 77 78 83 86 89 95 94 94 95 97 95 96 95 96 100 99 99 98 99 99
6 10 19 25 33 52 80 90 100 100 100 100 100 100 98 90 89 100 100 100 100 100 100 100 99 99 100 100 100 100 100 100 100 100 100 100 100 100 100 100 100 100 100 99

GFSNW_250_rhum_033.txt.gz
RH
2 2 2 2 2 3 4 4 7 8 20 16 19 46 100 100 100 94 80 87 100 100 71 64 59 98 99 100 84 90 84 52 39 90 70 46 7 7 6 5 6 6 10 25
2 2 2 2 3 3 4 5 7 7 13 16 26 43 84 98 97 94 90 96 96 69 69 74 100 70 63 82 95 94 60 58 90 93 100 100 70 40 14 10 8 8 8 30
2 3 3 2 3 4 4 5 6 8 9 12 12 21 39 68 76 70 73 98 68 74 75 100 97 68 87 99 94 82 84 100 100 100 100 100 100 100 59 29 19 18 14 26
2 3 3 3 3 4 5 6 7 9 11 15 20 27 32 26 36 64 94 73 72 85 100 77 69 94 99 96 94 94 98 100 100 100 100 100 100 100 100 75 55 32 30 37
3 3 4 4 4 4 6 8 12 16 17 14 13 20 27 37 67 91 89 69 90 92 95 65 92 100 100 86 80 92 100 100 100 100 100 100 100 100 100 100 100 100 100 94
3 3 5 5 5 6 8 11 13 11 11 13 16 23 34 49 72 91 78 80 94 73 69 59 90 100 99 78 75 100 100 100 100 100 100 100 100 100 100 100 100 100 100 99
3 4 6 6 6 7 8 8 10 12 16 16 19 35 68 80 87 83 72 93 76 58 48 65 98 100 95 95 77 94 98 100 100 99 100 100 100 100 93 100 100 100 100 91
3 4 6 6 7 7 8 9 12 15 16 24 59 83 79 85 93 70 81 83 68 52 44 74 100 100 81 77 87 100 92 79 93 100 98 100 100 100 100 100 100 100 100 84
4 6 8 8 9 10 10 12 15 18 40 69 72 76 79 100 84 65 86 78 53 38 74 90 100 99 84 83 91 100 95 89 65 66 66 96 100 100 100 100 100 82 95 56
4 6 8 9 10 10 13 17 22 47 72 90 80 77 96 100 81 66 81 61 49 52 92 97 98 98 95 85 90 88 92 87 98 100 100 100 100 100 100 99 99 98 76 69
4 6 9 11 12 15 21 23 39 65 97 92 79 78 100 100 77 66 84 67 60 73 100 100 100 100 100 96 99 100 100 100 100 100 100 100 100 100 100 97 69 73 56 52
4 7 10 12 15 22 28 35 48 76 90 86 80 89 100 100 89 77 83 94 88 74 97 94 96 91 94 100 100 100 100 100 100 100 100 100 100 100 100 95 64 51 46 48
4 8 10 14 21 29 35 47 59 71 88 77 92 96 98 96 100 100 90 86 99 95 84 91 93 99 98 100 100 99 100 99 98 100 92 88 95 93 91 73 73 58 50 46
5 8 11 19 29 35 45 60 57 70 87 81 86 90 85 91 100 100 100 90 99 100 100 100 98 99 99 94 96 88 85 84 80 73 65 65 67 72 83 67 48 45 46 44
6 10 12 23 38 35 54 66 61 73 70 71 77 85 71 79 95 100 100 100 100 100 99 100 98 96 86 66 63 60 71 64 53 52 57 57 58 50 54 58 45 40 39 46
6 10 13 23 33 41 63 72 63 72 66 68 88 86 80 84 81 80 100 100 100 100 100 100 100 100 85 82 65 64 59 51 47 46 45 43 42 43 40 38 36 33 35 41
6 10 16 26 38 60 85 80 67 74 66 73 79 74 79 86 96 91 90 100 100 100 100 100 100 100 94 87 70 59 56 60 50 45 40 35 34 33 34 35 34 33 33 35
6 11 18 30 52 66 81 79 59 76 72 74 68 69 85 91 94 99 85 89 99 100 93 90 100 100 88 93 86 79 74 73 69 80 83 60 44 38 31 28 28 30 30 30
6 11 18 28 50 62 83 79 68 71 82 77 72 68 74 92 100 100 84 86 92 100 84 91 99 100 100 89 82 90 86 89 94 83 78 74 74 70 67 64 69 80 83 82
5 10 16 29 42 53 72 78 78 65 87 74 74 78 75 83 97 98 97 78 100 100 95 94 95 81 88 88 93 98 92 91 97 100 91 88 84 86 98 100 100 100 100 100
6 9 15 26 34 43 60 77 76 76 98 91 76 78 80 85 92 92 94 97 88 99 100 100 100 91 90 88 84 81 90 95 92 97 100 100 100 100 100 100 100 100 100 100
7 9 13 22 29 35 48 79 85 92 100 100 100 92 89 91 90 88 86 99 99 95 95 98 100 100 100 100 100 100 98 100 99 89 99 100 100 99 100 99 89 88 90 97
7 8 11 16 21 28 44 94 100 100 100 100 100 100 100 97 93 89 82 84 100 100 100 91 85 100 100 100 100 100 100 100 100 100 100 100 100 99 96 91 86 80 78 78
7 8 10 12 19 35 68 98 100 100 100 100 94 92 100 98 97 94 87 79 79 93 97 94 92 94 92 94 91 85 85 89 92 97 97 91 92 93 97 95 92 96 96 96
6 8 9 12 22 40 72 95 100 100 100 100 100 88 98 90 82 83 83 90 96 89 78 84 86 85 85 86 98 100 100 100 99 88 97 100 98 97 96 99 98 89 78 79
7 8 11 14 19 29 59 91 93 100 100 100 100 88 97 99 98 96 90 88 90 84 74 72 72 71 71 75 87 95 100 96 87 95 95 90 89 92 90 81 77 84 97 100
8 10 15 21 22 27 39 70 85 91 100 100 100 96 90 94 91 97 96 93 79 70 75 79 78 79 88 100 100 100 100 100 100 95 91 90 89 94 99 100 100 100 100 100

GFSNW_250_rhum_036.txt.gz
RH
3 2 2 3 2 2 2 3 4 7 8 13 18 39 86 97 100 100 100 96 100 100 100 100 100 97 75 66 81 78 81 99 100 98 86 66 76 53 12 7 4 3 3 4
3 2 3 3 2 2 3 3 5 7 8 9 14 26 77 98 92 98 97 99 100 100 100 100 91 71 66 82 77 92 100 100 90 78 98 83 68 60 17 8 4 4 3 3
3 2 3 3 3 3 3 4 4 6 7 8 10 20 47 96 96 87 89 100 98 97 100 100 72 67 97 75 82 100 100 99 100 91 82 95 94 67 64 16 9 8 7 4
2 2 3 3 3 3 3 4 5 8 8 10 11 16 26 57 93 89 81 91 90 100 100 79 73 95 93 83 100 100 98 82 76 100 90 99 100 98 81 68 27 26 13 8
2 2 4 3 3 3 3 4 6 8 10 11 11 12 20 47 83 95 86 85 100 100 84 69 96 100 82 100 100 100 83 100 100 100 100 100 100 100 93 78 90 63 67 59
2 3 4 3 4 4 3 4 6 10 12 12 12 16 20 28 51 84 86 91 98 91 65 92 98 100 90 100 95 87 90 100 100 100 100 100 100 100 100 100 100 98 72 52
2 3 4 4 5 5 5 6 8 10 12 14 14 14 19 25 32 43 56 76 80 62 97 64 100 95 81 99 98 67 100 94 100 100 100 100 100 100 100 100 100 99 79 79
2 3 4 5 6 6 6 7 9 10 10 12 15 17 20 29 28 34 51 59 64 97 70 84 67 89 81 100 89 65 65 97 99 98 100 100 100 100 100 100 100 100 100 96
3 3 4 6 7 8 8 8 9 13 16 21 21 24 36 42 45 50 60 68 89 66 61 74 92 99 89 96 78 70 76 84 76 84 100 100 100 100 100 100 100 98 100 100
3 4 6 7 9 10 10 12 13 16 18 26 33 40 49 50 57 72 85 88 71 70 54 61 89 94 95 100 74 80 85 80 98 100 100 100 100 100 100 100 100 94 96 100
3 4 6 8 10 11 13 14 17 20 27 33 45 58 64 64 72 75 88 80 62 47 43 76 84 100 97 97 76 87 97 100 100 100 100 100 100 100 100 100 100 100 89 100
4 4 7 8 10 13 16 18 24 42 48 60 65 75 64 59 67 82 86 73 59 44 52 84 93 95 100 92 91 99 100 100 100 100 100 100 100 100 100 100 100 100 80 99
4 5 8 10 13 16 20 30 53 58 60 70 74 71 59 61 75 85 74 62 55 55 72 91 93 100 100 100 100 100 93 95 100 100 100 100 100 100 100 100 100 85 70 84
4 5 8 12 16 22 34 56 63 68 61 68 74 72 59 66 72 69 62 68 71 70 84 88 100 100 100 100 100 97 94 97 100 100 100 100 100 98 100 86 83 72 59 53
4 6 8 12 17 30 50 63 64 67 65 67 80 74 61 71 64 64 66 75 86 95 98 90 96 100 100 96 92 86 88 91 90 84 92 91 92 100 100 94 69 59 61 52
5 6 9 14 19 42 63 76 66 63 67 69 75 70 78 80 60 58 69 84 89 88 92 91 88 86 96 96 95 84 73 73 68 66 62 64 68 72 87 90 90 80 62 59
5 6 10 16 22 46 63 67 68 62 63 67 62 70 92 92 77 81 78 76 84 96 98 98 98 100 100 94 66 65 64 66 65 62 60 60 57 60 64 67 77 84 85 76
5 6 10 16 24 36 60 71 84 70 67 61 58 66 77 93 89 94 98 95 76 85 92 100 100 100 100 95 75 69 68 62 66 67 62 64 56 57 62 64 63 62 59 55
5 6 9 15 19 28 69 69 84 75 86 84 75 71 70 74 78 74 96 98 100 100 100 100 100 100 98 100 95 95 89 94 95 95 84 75 78 73 66 62 58 65 68 71
5 6 10 16 20 32 70 72 83 80 80 98 100 91 67 74 79 74 79 96 99 96 98 100 100 100 100 100 100 100 100 100 100 100 100 100 99 99 100 100 100 100 100 100
6 7 10 15 19 22 60 74 76 82 81 92 100 100 82 71 80 85 76 74 96 97 93 97 98 100 100 100 100 100 99 100 100 100 100 100 100 100 100 100 100 100 100 95
6 7 9 13 18 23 36 90 90 96 82 85 100 100 100 82 73 82 83 72 78 96 93 87 97 97 100 94 87 86 86 84 86 99 98 90 96 98 99 93 93 98 97 98
7 7 9 10 14 21 40 100 100 100 97 81 88 97 100 100 83 74 80 92 90 89 93 92 96 98 90 94 90 90 85 84 94 94 97 100 100 100 100 100 100 100 100 94
8 9 9 9 14 23 48 100 100 100 93 91 80 87 91 100 100 92 76 82 91 97 86 97 100 100 99 93 89 88 95 100 100 100 96 89 85 90 91 91 95 98 99 96
9 8 8 10 17 29 56 100 100 100 97 93 88 83 90 93 100 100 100 94 85 84 89 86 79 83 90 91 90 90 85 80 76 81 88 93 97 94 88 93 87 78 71 71
12 8 8 11 16 20 43 68 90 97 100 95 86 92 89 87 90 94 95 100 100 81 84 93 87 81 83 89 96 99 100 100 100 100 100 100 100 100 98 96 87 78 82 86
16 10 10 9 12 16 29 50 55 63 89 100 94 92 94 84 78 83 86 95 78 73 77 80 82 89 94 100 100 100 100 100 100 100 100 96 94 100 89 79 82 93 99 99

GFSNW_250_rhum_039.txt.gz
RH
6 4 2 2 2 3 2 2 3 4 5 6 9 21 56 88 78 84 96 100 100 100 100 100 100 91 96 100 92 80 73 87 72 83 60 100 97 78 57 51 32 22 6 11
7 3 2 2 3 3 2 2 4 4 5 8 10 21 53 80 80 90 95 96 100 100 100 100 100 100 100 100 86 68 72 76 73 85 100 92 75 76 94 52 63 26 8 4
6 3 2 3 3 3 3 3 3 4 6 9 11 23 48 67 94 98 97 99 100 100 100 100 100 100 100 94 66 66 80 66 100 95 84 75 80 85 87 76 29 16 10 6
6 3 2 3 4 3 3 3 4 5 6 9 10 14 39 57 91 100 100 100 100 100 100 100 100 100 98 71 62 73 70 100 97 70 75 100 90 99 100 95 50 21 9 6
6 3 2 3 4 3 3 3 4 6 8 9 10 13 26 51 90 97 100 96 100 100 100 100 100 100 85 59 69 77 85 100 97 59 84 100 93 100 100 91 91 76 36 16
6 3 2 3 5 4 4 4 5 6 8 10 11 14 20 43 80 95 98 100 100 100 100 100 100 88 74 68 93 64 100 88 76 69 94 100 93 90 100 88 95 99 88 66
6 3 3 3 6 5 5 4 6 8 9 10 10 12 22 39 64 97 100 100 100 100 100 100 95 79 73 79 76 81 94 89 83 91 100 98 100 100 95 100 96 98 100 92
6 3 3 5 6 6 6 5 6 8 10 11 13 15 17 27 54 80 97 100 99 100 100 96 91 74 82 77 72 97 92 85 72 96 100 100 98 79 100 92 100 99 87 97
6 3 3 5 7 6 8 7 8 8 10 12 13 15 17 21 31 45 61 98 99 99 90 82 85 90 68 62 74 100 88 92 68 84 100 100 100 100 100 85 96 100 100 100
6 3 3 5 7 7 8 8 9 10 12 13 14 14 17 20 24 36 62 90 92 81 75 78 89 74 65 84 96 100 98 90 91 100 100 100 100 100 100 100 94 96 100 100
6 3 3 5 8 8 10 11 11 12 13 14 16 17 18 22 24 28 36 46 54 60 70 94 63 70 87 96 97 92 89 94 100 100 100 100 100 100 100 100 100 100 100 100
6 4 4 6 10 10 12 13 12 14 17 20 26 30 32 29 27 33 46 57 66 63 67 57 64 72 75 89 98 78 80 92 100 100 100 100 100 100 100 100 100 100 100 100
6 4 5 7 10 11 13 14 14 18 20 35 48 45 46 55 69 77 72 67 58 54 54 54 70 70 82 93 100 100 86 98 100 96 100 100 100 100 100 100 100 100 100 100
6 5 5 7 10 12 14 15 16 20 31 45 51 56 71 75 74 76 69 58 52 49 46 54 65 76 88 100 99 100 100 97 96 87 91 88 95 96 92 99 98 98 98 100
5 5 5 7 11 14 15 17 20 32 40 52 63 68 71 76 79 75 72 66 60 52 52 60 70 82 96 100 100 98 100 98 80 81 88 93 92 93 97 100 97 96 79 80
5 5 5 8 12 15 20 21 34 46 55 59 67 70 62 73 71 79 75 72 65 63 60 62 69 84 100 99 98 100 97 99 96 92 95 97 96 96 100 100 100 100 98 84
5 5 5 8 13 18 25 30 46 59 57 60 63 64 56 66 74 83 82 75 73 75 71 71 81 95 93 90 99 93 83 77 75 80 83 83 82 86 97 100 100 99 100 100
5 5 5 8 12 16 23 48 62 66 65 64 62 62 56 57 65 78 70 80 82 87 94 99 99 100 92 97 91 82 97 97 88 72 70 76 75 79 86 88 95 99 98 99
5 5 6 8 12 16 24 41 64 66 70 69 68 60 62 61 72 67 66 74 83 90 87 94 92 88 91 100 100 99 100 100 99 96 92 95 88 85 72 69 77 82 89 95
6 5 6 9 15 18 30 40 60 72 78 76 76 81 81 72 82 87 79 75 84 87 84 74 68 79 91 100 100 100 100 100 100 100 98 100 100 100 100 100 100 100 100 100
7 6 6 9 14 22 25 45 66 78 85 74 76 87 100 94 94 98 100 98 91 88 87 87 87 85 86 90 83 92 100 100 100 95 95 100 99 97 97 100 100 96 92 88
9 7 7 9 14 22 28 55 84 83 92 86 65 78 90 99 87 88 95 100 98 100 95 100 98 97 95 97 92 98 96 100 100 100 100 100 100 100 99 99 96 95 98 99
11 9 8 8 14 24 32 80 94 82 76 96 88 75 87 81 96 82 80 87 100 100 100 100 99 100 98 92 94 100 100 100 100 100 100 100 100 100 100 100 100 100 100 100
13 12 9 9 13 25 41 79 80 74 70 75 96 92 84 80 82 98 100 89 81 86 99 100 100 95 97 97 92 88 85 81 81 81 85 88 90 90 96 100 100 100 100 99
20 12 11 11 12 21 50 66 67 76 72 71 75 95 97 81 77 79 96 100 100 100 96 96 100 100 94 94 97 89 82 84 89 95 98 95 98 100 100 97 96 90 87 88
31 18 14 11 12 12 23 45 56 66 76 73 68 71 86 98 89 80 84 100 100 100 100 100 100 100 100 100 96 97 99 96 95 97 98 98 100 100 100 100 99 99 100 100
42 33 17 14 12 13 12 16 26 43 62 83 82 74 71 79 97 100 85 80 72 64 83 98 100 100 100 100 100 100 100 100 100 100 100 98 95 96 94 94 100 100 99 98

GFSNW_250_rhum_042.txt.gz
RH
4 5 4 2 2 3 2 2 2 2 3 4 7 14 37 68 80 70 78 83 79 84 94 94 76 70 83 86 99 97 100 100 90 88 90 83 72 80 65 66 60 47 38 66
5 6 4 2 2 3 2 3 2 3 3 5 8 14 31 69 56 70 80 92 95 100 97 98 92 87 97 99 92 95 96 96 86 91 74 75 67 59 62 60 54 81 59 26
5 6 3 2 3 3 3 3 2 3 4 7 10 20 43 64 64 73 83 96 99 100 99 91 78 95 100 90 92 95 86 89 97 73 72 67 64 82 56 84 85 74 33 15
5 6 3 2 3 4 3 3 3 3 5 8 11 15 45 68 76 75 87 99 100 100 100 92 84 100 99 94 95 93 91 96 73 68 80 69 61 60 98 98 85 63 31 13
5 6 3 2 3 4 3 3 3 4 6 8 12 18 45 73 81 87 94 96 98 100 100 100 100 100 100 100 100 91 98 72 68 80 85 71 56 100 90 100 93 76 56 25
5 7 3 2 4 4 4 3 4 5 7 9 12 19 37 54 76 90 100 100 100 100 100 100 100 100 100 100 96 99 68 74 62 85 64 59 82 99 100 100 96 91 59 49
6 7 4 3 4 5 5 4 5 6 7 8 10 14 25 53 79 94 100 100 99 100 100 100 100 100 99 92 93 74 77 57 91 76 95 99 73 92 100 100 100 88 84 70
7 8 4 3 4 6 6 6 6 7 9 10 13 18 25 47 71 86 100 100 99 98 100 100 100 98 91 94 93 80 68 60 93 73 100 100 100 100 99 100 100 87 96 93
8 9 4 4 5 6 7 7 7 8 9 11 12 17 24 38 64 75 100 100 100 100 100 100 96 96 90 94 93 94 59 95 92 79 100 100 100 100 100 100 100 100 92 98
8 11 5 4 5 8 8 9 8 8 10 11 12 14 19 27 48 66 95 99 100 100 100 97 98 92 85 82 99 68 72 100 94 85 77 100 100 100 100 100 85 100 100 93
8 12 5 4 5 7 8 9 10 10 10 11 11 12 17 22 33 54 83 99 100 100 98 97 95 87 75 100 84 60 100 100 97 76 76 100 100 100 81 100 93 88 100 100
11 12 5 5 6 8 10 11 12 12 12 13 14 15 15 18 28 41 62 80 88 90 94 82 92 85 92 91 66 88 100 100 92 86 100 100 100 100 99 97 100 99 95 100
10 12 6 5 5 8 11 12 13 14 13 14 14 16 18 19 21 26 42 58 64 76 74 77 80 80 97 86 84 72 100 91 91 91 100 100 99 90 98 96 99 100 94 100
10 10 6 5 5 9 12 14 15 16 16 17 17 16 23 27 30 32 36 44 53 70 65 62 87 90 72 78 87 85 77 82 100 98 85 100 93 84 100 98 99 100 100 95
12 8 5 5 6 10 13 16 17 19 24 25 28 29 33 41 42 42 43 44 45 47 65 86 81 77 77 86 90 99 98 98 93 83 77 83 82 81 91 100 98 96 100 100
14 8 5 5 6 10 14 17 18 20 28 34 42 49 57 67 63 64 76 77 71 66 72 74 73 78 65 85 93 95 100 98 82 78 79 82 83 82 89 100 100 98 99 100
15 7 5 5 6 10 14 16 18 25 31 47 57 70 73 74 85 83 63 56 54 53 58 68 67 63 63 67 80 98 93 97 96 99 100 100 97 91 96 89 94 92 98 98
17 7 5 5 7 12 16 23 24 28 32 54 72 77 81 88 77 75 78 70 60 65 67 67 60 60 58 77 99 100 92 91 99 100 99 97 91 87 85 90 92 90 97 96
18 8 5 6 8 14 20 22 27 34 42 62 76 76 98 90 87 90 91 87 81 73 66 61 63 62 89 98 86 87 90 96 96 99 99 100 92 87 75 81 86 90 95 98
20 9 6 6 9 16 19 25 30 39 48 65 71 71 94 90 84 97 98 99 100 95 94 92 86 100 94 89 96 100 100 99 99 100 100 100 100 100 100 100 100 83 90 100
26 12 7 8 12 17 23 26 30 42 50 65 77 73 83 88 96 95 97 99 100 100 96 88 83 87 90 91 97 99 100 100 100 100 100 100 100 94 92 90 97 100 90 87
25 18 9 8 11 18 26 28 33 42 58 67 77 79 72 78 84 86 86 86 90 96 93 90 82 77 77 81 84 88 88 91 96 97 92 98 100 99 98 98 100 100 100 99
26 28 14 9 11 18 30 34 31 42 55 72 76 80 76 82 91 93 85 90 95 93 95 93 88 81 85 87 89 88 87 93 97 100 98 100 100 100 100 100 100 100 100 99
25 34 20 12 12 15 32 34 27 41 54 72 83 83 86 84 85 96 100 99 99 100 100 99 97 89 87 88 93 97 91 97 100 100 100 100 100 98 99 100 98 92 89 91
27 37 33 18 12 12 13 19 23 33 46 58 86 88 92 94 87 87 98 100 100 100 100 99 100 98 100 100 100 100 100 100 100 100 100 100 99 94 90 88 88 87 92 94
27 33 41 30 18 14 13 12 15 22 38 42 63 89 89 92 100 95 86 87 90 91 100 100 100 100 100 100 100 100 100 100 100 97 94 93 96 97 98 100 100 99 94 87
32 37 39 45 31 20 14 13 16 15 20 31 43 50 81 89 94 100 100 97 80 78 84 91 100 100 100 100 100 100 100 100 100 96 92 94 94 98 99 97 89 83 81 81

GFSNW_250_rhum_045.txt.gz
RH
4 4 5 5 2 2 3 2 2 2 3 4 5 8 15 36 49 60 82 72 74 83 88 90 88 66 52 62 74 86 88 88 72 58 74 91 99 74 91 77 72 70 65 56
4 5 5 5 2 2 3 2 2 3 3 4 6 10 20 45 46 69 86 70 78 84 91 100 75 54 50 61 76 90 89 81 76 85 99 95 94 90 76 72 73 56 66 68
4 5 6 5 2 3 3 2 3 3 4 5 7 11 17 41 55 89 82 76 84 87 98 96 71 54 53 57 74 80 87 93 100 88 93 94 87 78 63 58 69 70 82 75
5 6 7 4 2 3 4 3 3 3 4 7 8 12 20 37 42 80 85 86 86 87 100 96 82 72 74 82 88 99 100 100 97 98 100 86 77 58 68 85 91 91 100 81
6 6 7 5 2 4 4 3 3 4 5 8 10 12 23 38 55 80 83 96 97 90 98 97 92 90 87 90 91 100 97 95 100 98 73 59 54 76 79 84 100 100 100 63
7 8 8 5 3 4 5 4 4 5 6 8 10 18 43 51 82 91 97 100 100 99 100 100 99 95 94 90 90 87 94 100 93 76 54 60 69 70 74 81 100 100 98 72
7 9 10 6 3 5 6 6 5 6 8 9 10 16 38 65 97 100 98 100 100 97 99 100 100 100 98 93 93 100 100 98 80 64 68 80 74 96 89 83 100 100 96 77
7 9 9 6 4 5 6 7 7 7 9 11 12 16 43 81 100 100 100 100 100 100 100 99 95 92 91 92 100 100 100 88 64 64 79 100 100 100 98 73 100 96 96 79
8 9 8 8 4 7 7 8 8 8 10 12 13 16 32 65 86 93 100 100 100 100 100 96 96 96 97 100 100 100 98 81 59 67 66 100 100 80 63 80 92 99 100 89
9 10 12 9 5 6 9 8 9 9 10 11 13 16 26 48 63 85 93 100 100 100 100 99 100 100 100 100 100 100 95 82 73 94 75 91 99 81 76 72 72 91 100 100
12 12 13 10 5 5 10 10 10 10 10 11 13 15 23 43 62 80 98 100 100 100 100 100 100 100 100 100 100 98 97 83 78 79 76 72 81 100 100 78 86 71 99 100
11 12 13 11 5 6 10 11 11 12 12 11 11 13 17 22 39 60 87 90 98 100 100 100 100 100 95 100 100 97 97 98 91 62 71 70 89 100 100 86 92 73 91 94
11 12 12 11 6 6 11 12 13 13 12 13 13 13 14 18 26 39 68 79 90 98 96 100 100 93 100 100 94 97 100 100 83 66 66 80 92 99 100 89 99 98 80 92
12 11 14 10 5 6 11 12 13 14 13 14 14 15 15 16 20 30 44 61 85 93 92 99 99 98 100 100 93 94 98 92 87 70 70 75 78 83 82 100 93 100 98 90
13 11 13 8 5 6 10 12 13 15 16 15 16 17 17 17 19 24 36 60 95 96 92 92 95 99 100 100 93 90 90 80 75 74 80 65 60 69 82 92 100 100 98 98
12 12 13 7 5 5 9 12 14 17 19 19 20 20 23 25 24 25 32 51 72 84 83 78 93 98 100 100 95 80 79 83 100 95 68 58 70 74 80 96 97 100 98 92
12 12 14 6 5 6 11 16 17 19 26 27 29 26 30 29 29 31 33 38 44 53 61 70 86 97 95 86 79 78 92 98 100 84 74 85 92 91 96 94 97 94 100 100
12 12 14 6 5 7 12 16 19 22 35 43 39 38 42 48 54 55 54 56 56 56 58 69 97 100 95 83 89 91 100 100 88 86 100 95 97 98 98 93 91 91 99 99
13 13 15 7 6 7 12 16 22 30 41 50 54 62 84 93 99 92 82 73 67 69 68 80 96 94 89 94 90 78 80 89 95 100 99 100 100 100 97 86 96 99 96 93
14 16 19 8 6 8 13 20 28 33 49 60 69 76 93 100 90 77 70 66 58 61 61 69 94 98 95 86 82 78 83 85 90 100 100 100 100 100 98 95 95 99 100 100
17 18 22 12 8 8 15 20 28 37 58 60 80 88 98 100 87 83 80 73 72 76 74 76 84 91 82 79 75 84 85 95 100 98 100 100 100 100 100 96 92 99 94 98
17 23 26 18 10 9 15 20 28 41 60 66 84 96 98 99 99 84 84 83 79 83 83 85 75 73 83 97 96 100 100 100 100 95 97 98 100 99 99 100 100 99 96 99
18 20 33 28 14 10 12 19 26 40 57 70 81 95 100 100 100 98 92 99 100 93 92 93 90 97 96 94 95 93 90 93 96 98 98 95 88 96 100 100 100 100 100 100
20 20 30 39 24 14 12 10 22 35 61 72 83 89 97 100 100 100 100 97 99 100 100 100 94 92 89 80 71 74 83 87 88 92 95 90 84 83 93 94 94 98 98 98
22 21 21 41 40 22 14 11 14 28 44 75 84 91 98 99 100 98 99 100 97 94 97 100 100 97 92 86 82 81 84 86 88 83 86 89 87 85 91 97 95 90 96 100
24 23 22 28 49 39 22 15 15 17 26 50 82 94 97 100 100 100 99 98 94 91 93 94 94 96 97 99 98 94 98 100 100 100 100 100 100 99 100 100 100 100 96 97
26 23 24 26 38 56 42 22 16 15 20 23 40 79 96 100 100 100 100 100 100 95 90 96 98 94 94 99 100 100 100 100 100 100 100 100 100 100 100 100 100 100 100 100

GFSNW_250_rhum_048.txt.gz
RH
5 5 4 4 5 3 2 3 2 2 2 2 3 4 8 14 53 64 71 94 84 82 78 85 88 98 96 91 87 87 82 78 77 84 85 82 75 66 63 60 65 71 60 74
5 5 4 4 5 3 3 3 2 2 2 3 4 7 12 28 56 71 70 77 87 96 96 98 98 96 94 94 83 67 60 54 51 47 62 69 75 70 69 81 93 94 80 64
5 5 4 4 6 3 3 3 3 3 3 4 5 9 17 56 67 64 68 80 95 99 99 98 100 100 94 78 54 52 64 57 59 73 94 97 71 84 88 87 85 79 76 67
6 6 5 4 6 3 4 4 3 3 3 4 6 11 19 45 59 70 72 94 97 100 100 100 100 91 68 53 52 62 63 68 83 100 100 84 85 83 85 70 72 73 98 62
6 6 5 5 7 4 4 5 4 4 4 6 7 10 13 31 49 71 83 100 97 99 100 100 97 75 60 54 54 61 82 87 77 91 90 82 91 82 65 72 71 90 80 94
7 8 6 6 8 4 6 6 5 4 5 7 9 9 14 35 68 77 99 99 98 100 100 100 100 93 86 82 79 80 80 80 84 79 89 96 68 74 64 78 96 100 86 86
7 8 7 7 8 5 5 7 6 6 7 9 11 16 29 67 79 88 100 100 100 100 100 100 100 99 89 83 80 83 83 79 85 96 99 66 64 63 62 78 98 98 100 93
6 8 7 7 8 6 5 8 8 8 8 9 13 21 44 71 83 100 100 100 100 100 100 100 100 99 91 93 88 85 81 93 100 95 78 70 100 91 58 65 85 100 88 91
7 8 6 7 9 9 5 9 9 9 10 10 14 23 39 61 85 100 100 100 95 100 100 100 100 100 100 94 86 80 93 99 100 84 58 75 100 80 61 64 90 89 96 94
8 9 7 8 10 12 6 9 10 11 10 11 13 18 34 60 84 97 100 100 100 98 99 99 98 100 100 92 89 96 100 100 96 80 60 97 76 72 68 77 95 98 89 100
10 9 9 9 11 14 6 8 11 12 12 11 13 14 25 58 78 89 94 96 99 96 94 94 95 95 93 91 96 100 100 96 92 83 68 77 62 73 97 100 81 100 96 97
10 11 9 11 11 15 6 8 12 12 13 13 12 13 19 30 52 71 86 93 97 96 89 93 96 90 97 100 100 100 98 98 96 80 69 78 73 70 93 100 73 100 97 89
9 11 10 10 11 14 7 6 12 13 14 13 13 12 15 26 47 57 76 89 90 90 89 94 97 99 100 100 100 100 100 100 97 77 65 66 74 79 81 95 92 100 100 88
9 10 10 10 11 13 6 6 11 13 13 14 13 14 13 15 24 40 62 82 87 86 86 97 100 95 100 100 100 100 100 93 100 85 78 70 60 57 66 79 97 100 100 99
9 10 11 10 11 11 6 6 12 14 14 15 14 16 16 15 18 30 46 65 87 86 92 98 100 96 100 100 100 99 88 100 100 93 83 68 56 58 59 71 82 100 100 89
10 11 11 10 12 10 5 6 11 14 15 16 16 17 18 18 19 21 35 57 83 88 90 100 99 100 100 100 100 90 92 96 95 84 77 64 62 57 72 77 90 100 99 92
10 11 11 11 12 8 5 7 13 15 15 16 17 18 18 20 20 21 23 35 68 96 100 99 96 100 100 100 96 99 96 91 82 94 100 92 68 80 78 84 94 100 100 99
10 11 11 11 11 8 6 10 14 17 16 21 21 22 22 24 23 22 24 31 42 64 80 94 100 100 100 98 86 100 100 93 96 100 100 91 90 99 91 88 92 89 98 100
10 10 12 11 13 7 8 11 16 19 22 30 29 29 32 33 32 31 30 33 41 57 72 99 100 100 96 87 100 95 78 96 94 100 100 86 100 100 100 91 89 93 100 98
12 12 12 12 15 9 9 14 22 25 30 48 44 44 46 46 56 57 52 46 43 47 55 68 85 90 83 100 90 81 78 82 86 90 92 100 99 100 100 93 92 99 97 92
14 15 13 14 17 11 10 16 24 28 39 57 53 60 74 83 83 93 90 84 77 74 68 60 59 66 92 94 83 77 84 82 78 90 86 100 98 99 99 90 94 95 87 81
16 15 16 15 22 17 10 19 26 33 51 69 72 78 93 93 98 86 81 72 63 57 60 67 79 90 100 100 100 100 94 85 74 76 93 100 99 96 94 99 98 94 98 97
18 16 18 17 23 25 12 17 25 35 46 80 83 90 95 98 95 86 84 84 74 72 68 69 82 91 99 100 100 94 85 82 81 98 100 100 98 100 100 97 100 100 100 99
20 18 19 18 20 33 25 14 19 29 48 77 88 94 99 100 96 90 91 94 89 88 85 82 86 93 92 96 100 99 90 95 100 100 100 100 95 92 96 91 86 86 82 83
21 20 21 20 20 27 38 20 16 27 36 55 82 100 100 100 100 100 97 92 88 93 96 90 88 89 90 87 92 100 100 100 100 100 100 100 95 86 84 82 81 81 87 87
22 24 22 21 22 25 35 40 19 18 34 44 58 84 100 100 100 100 98 99 94 88 91 97 100 100 100 100 100 100 100 100 100 95 95 98 98 95 97 95 100 100 100 100
22 26 24 22 22 24 28 44 41 19 17 31 58 70 88 100 100 100 94 93 96 95 97 98 100 100 100 100 100 100 100 100 100 99 100 100 100 100 100 100 100 100 100 100

GFSNW_250_rhum_051.txt.gz
RH
6 6 6 6 4 4 4 2 3 2 2 2 3 3 5 12 25 39 52 56 66 61 68 70 65 67 78 91 99 100 100 91 80 99 100 100 100 91 83 80 87 93 85 100
6 6 6 6 4 4 5 2 3 3 3 3 3 4 6 12 34 55 69 89 88 91 85 82 92 97 100 100 100 100 100 99 100 100 100 99 88 88 98 100 99 86 83 80
6 6 6 6 5 4 5 3 4 3 3 3 4 5 10 28 49 64 82 96 83 84 100 98 93 100 100 100 99 92 91 91 89 94 92 88 84 78 73 72 65 93 88 93
7 6 7 7 6 5 6 3 4 4 4 5 4 6 16 32 51 69 93 100 95 100 100 99 100 100 98 94 91 91 79 71 69 70 75 69 67 77 79 91 97 88 82 63
7 7 7 7 6 6 7 3 5 5 5 7 6 7 16 39 54 71 94 99 100 100 100 98 94 89 91 91 81 62 62 73 78 87 76 77 92 95 100 87 77 75 67 61
7 7 7 8 6 7 9 4 6 6 7 8 9 9 16 44 71 88 100 100 96 100 100 100 100 91 73 60 50 58 71 72 88 91 95 89 93 89 72 78 82 67 53 71
7 7 8 8 7 6 11 5 7 7 9 9 16 28 45 63 80 96 100 100 100 100 100 100 96 75 59 55 61 72 77 82 86 85 82 71 73 72 83 68 65 72 66 67
8 7 8 8 7 6 10 8 7 8 10 11 15 25 50 67 84 92 98 99 98 100 100 100 100 87 81 82 77 74 75 81 78 69 72 78 84 100 66 64 65 89 72 70
8 7 8 8 7 8 10 11 6 9 10 12 14 19 40 67 79 92 96 92 92 96 94 98 100 96 95 85 80 83 81 76 66 72 82 92 81 80 77 70 82 98 94 97
8 7 8 8 8 7 12 15 7 9 11 12 14 15 26 46 67 80 93 91 88 93 94 93 96 100 98 97 89 84 80 71 70 77 97 90 80 71 64 78 78 100 100 100
8 8 9 9 8 6 9 16 9 9 11 12 14 16 22 34 53 73 84 88 91 83 90 92 98 100 99 96 97 87 77 76 73 91 98 96 78 62 60 76 99 100 100 100
7 8 10 9 9 7 9 14 10 7 12 12 14 14 17 22 32 50 69 81 90 89 90 91 96 96 98 95 91 82 82 78 86 93 100 83 77 59 76 85 90 96 99 100
7 7 10 10 9 8 9 13 10 7 10 13 14 14 14 15 19 30 60 73 87 92 91 93 97 94 99 91 87 89 88 93 93 95 100 91 73 68 59 77 86 86 100 100
6 7 10 9 9 7 9 12 9 7 10 13 13 15 16 18 23 31 52 71 78 86 96 99 97 92 96 91 88 83 95 90 88 91 100 94 70 58 61 70 73 88 100 89
7 7 10 9 8 8 9 12 8 7 10 12 12 14 16 16 18 28 48 65 82 86 94 96 93 92 95 96 92 78 95 99 100 97 97 98 80 62 59 56 67 76 90 83
6 7 9 9 8 8 9 13 7 7 10 13 13 13 16 18 18 19 43 62 84 95 92 89 93 96 100 100 82 86 90 100 90 86 89 94 79 94 62 68 78 87 75 90
6 7 10 9 8 9 10 11 7 7 9 14 15 14 14 14 16 20 26 55 90 99 96 90 84 96 100 98 78 81 92 99 89 74 86 91 99 74 84 86 93 99 91 97
6 7 10 9 8 9 12 9 7 9 13 17 18 18 18 16 17 17 20 28 68 92 100 94 94 100 98 87 84 96 100 94 77 82 88 100 86 86 98 92 90 100 100 100
6 8 10 10 9 10 13 10 8 10 15 18 18 19 20 18 19 18 18 21 30 66 94 100 100 95 81 81 100 100 100 88 83 92 88 77 73 100 99 94 88 91 94 100
7 8 10 10 11 12 14 10 8 11 19 18 22 20 20 22 23 23 22 23 28 34 72 100 100 97 99 100 100 100 92 80 82 83 85 86 88 99 100 98 85 87 92 97
9 10 10 10 13 12 18 13 11 15 20 24 26 27 25 31 33 30 28 29 32 38 42 67 92 100 100 100 100 100 100 82 88 78 78 80 91 96 100 97 89 82 93 99
11 12 12 12 14 15 20 15 14 17 21 28 32 33 36 43 51 45 42 37 37 40 44 50 62 80 94 100 100 100 91 81 90 85 77 86 89 85 100 100 94 81 87 94
12 14 14 15 18 17 22 23 14 18 21 38 40 44 52 59 67 72 67 65 64 54 46 46 51 61 75 88 90 84 82 89 95 85 89 97 83 100 100 100 94 89 88 91
13 16 16 16 19 19 22 30 17 20 29 42 52 63 77 78 82 90 85 72 70 66 69 65 56 52 58 66 72 92 98 96 100 99 93 94 93 96 97 89 92 92 87 85
14 17 19 18 20 19 21 34 27 15 27 35 55 72 88 95 96 88 88 77 64 59 56 66 69 70 78 86 100 100 99 90 96 95 100 100 100 100 100 100 98 97 94 93
17 18 20 18 20 21 21 28 45 24 18 36 46 66 80 94 100 99 94 89 77 74 74 74 78 83 94 100 100 100 100 98 100 100 100 98 98 100 100 100 99 99 97 98
18 20 22 20 21 22 24 25 37 47 24 22 34 69 78 88 98 100 100 99 98 100 99 91 91 89 91 98 100 100 100 100 100 100 100 100 100 100 100 100 100 100 100 100

GFSNW_250_rhum_054.txt.gz
RH
6 6 5 6 6 5 4 4 3 3 3 3 3 3 4 7 15 33 42 48 48 72 82 79 81 62 65 65 57 49 52 66 88 95 96 93 97 88 72 71 84 78 77 82
7 6 5 7 6 6 4 5 3 3 4 4 4 4 6 12 23 38 52 65 84 85 77 77 62 75 71 72 61 54 59 64 76 74 81 78 77 77 72 73 70 60 87 74
6 6 6 8 6 6 5 6 4 4 5 6 5 5 7 20 37 64 82 90 90 92 97 90 94 98 96 95 93 94 95 100 100 100 90 82 80 85 95 97 80 92 91 100
6 7 7 8 8 7 6 6 5 5 7 8 8 10 11 29 48 66 88 96 90 85 90 100 100 100 93 95 100 98 92 100 96 92 95 95 100 100 91 86 100 86 81 95
7 7 8 7 8 7 6 8 6 6 7 11 11 21 29 47 68 78 83 74 80 89 93 99 96 100 98 95 94 95 95 95 98 100 100 99 99 89 78 83 99 88 82 86
7 8 8 7 8 8 7 8 8 7 9 12 24 39 36 59 78 89 85 89 94 96 99 100 97 97 100 100 98 98 98 92 91 85 74 70 83 92 98 95 96 83 74 61
8 8 7 8 9 8 7 9 11 7 10 14 27 39 44 65 81 92 96 92 96 100 98 98 93 88 91 95 97 91 74 76 78 66 76 98 99 97 97 91 79 72 69 62
8 9 7 7 9 8 8 8 13 7 11 13 17 33 47 66 78 85 89 92 96 92 99 98 100 100 93 71 58 60 69 76 74 84 89 95 88 93 88 75 84 76 63 56
9 9 8 6 7 8 8 8 11 11 10 14 14 22 36 55 69 75 82 88 85 87 90 96 97 74 60 53 62 75 84 82 82 85 88 93 79 74 98 85 69 67 62 65
8 8 8 6 7 7 8 8 10 16 8 14 15 16 26 45 57 68 76 82 77 82 87 93 85 66 62 72 82 86 83 81 80 74 80 78 72 95 93 75 79 80 88 75
8 7 8 6 6 7 8 9 10 15 8 12 15 16 19 36 51 65 79 82 81 76 81 90 96 87 84 82 86 86 80 80 74 75 86 85 84 99 78 73 79 89 100 77
7 6 7 6 6 6 7 9 11 12 12 8 15 15 16 16 28 53 73 79 79 73 76 90 94 96 93 92 90 84 79 77 69 77 78 93 88 90 74 76 84 92 97 100
6 6 6 6 7 6 7 7 9 13 14 6 12 16 17 20 24 32 50 74 84 78 77 88 92 89 89 97 94 88 78 74 65 74 71 86 86 98 76 59 74 85 88 97
6 6 6 6 7 7 7 7 9 12 13 7 9 14 15 15 16 18 43 67 80 81 80 82 86 87 85 90 87 84 79 70 70 70 70 91 100 92 88 70 60 75 78 84
6 6 6 6 7 8 8 8 8 11 10 6 8 14 14 14 17 20 34 54 73 80 83 82 86 89 90 94 86 84 84 80 71 76 72 98 100 100 81 69 62 62 65 80
6 5 6 6 7 7 8 7 8 10 9 6 8 13 14 14 16 20 32 56 64 76 84 89 92 96 96 92 85 94 84 77 74 72 76 88 99 100 98 80 62 63 65 72
6 6 6 6 7 7 8 7 8 10 8 5 9 14 15 15 14 16 27 50 81 82 86 92 92 100 99 86 77 89 86 92 88 78 78 86 93 92 95 97 70 88 84 86
6 6 6 6 7 8 8 8 10 10 8 7 12 14 15 15 14 14 15 25 60 80 88 94 95 100 99 81 85 94 88 89 85 88 98 79 76 84 90 93 100 100 97 96
6 6 6 7 8 8 8 9 11 10 10 9 12 15 16 16 15 15 16 16 24 55 83 94 100 100 93 75 98 98 89 88 85 96 100 90 73 75 77 92 99 90 96 100
6 6 6 7 9 9 10 11 12 13 8 10 15 17 18 19 18 16 17 17 19 27 55 91 100 100 92 91 100 96 87 90 88 92 98 96 89 70 75 94 90 88 89 95
7 7 7 8 10 11 10 12 13 13 12 12 16 20 23 21 22 20 19 19 19 21 32 61 91 100 96 94 100 99 94 96 98 100 100 100 94 82 84 100 100 86 87 86
7 8 8 10 11 12 12 14 15 15 14 14 21 26 27 26 24 24 24 22 20 20 24 36 72 99 95 100 100 100 96 97 99 100 100 95 79 86 87 94 100 97 82 86
8 8 9 12 13 14 14 16 16 18 16 16 26 34 36 37 31 30 29 27 24 24 26 29 44 77 99 98 99 100 100 98 98 100 100 92 87 83 82 96 100 100 98 87
10 10 11 14 14 16 16 18 19 20 21 17 24 40 44 41 41 45 39 40 37 29 31 34 36 41 64 88 100 100 100 98 100 100 100 84 89 89 94 100 100 100 100 100
12 12 15 16 15 17 18 20 22 25 27 17 23 37 48 49 51 58 69 62 57 47 42 41 41 46 51 60 78 93 99 99 100 97 91 89 98 100 100 100 100 100 100 100
13 14 16 17 17 19 20 22 23 27 34 23 22 33 54 64 74 78 84 92 84 78 80 71 61 52 53 60 66 74 77 80 78 75 93 98 96 97 100 100 100 100 95 90
14 16 18 20 19 20 22 24 26 27 38 36 26 22 37 65 82 91 95 98 98 94 87 71 64 66 69 69 74 78 72 68 70 96 100 100 100 100 100 100 100 100 98 90

GFSNW_250_rhum_057.txt.gz
RH
7 7 5 6 7 8 6 5 5 4 4 5 5 6 5 6 10 15 19 27 37 43 45 46 56 70 80 82 80 78 57 62 67 82 96 100 98 100 100 96 96 100 99 88
7 7 6 6 7 9 7 6 6 5 5 5 8 7 7 9 14 26 34 37 43 48 67 84 95 95 92 83 73 74 81 74 85 87 93 97 91 91 93 100 100 98 98 78
7 7 6 6 7 9 8 7 7 6 6 8 11 9 14 21 34 49 59 72 84 86 92 97 100 92 84 83 78 77 78 80 87 91 85 84 79 88 97 99 89 91 88 82
6 6 7 7 8 9 9 7 8 8 8 11 19 20 20 28 32 46 62 80 92 87 91 93 98 93 84 79 79 79 75 69 64 74 87 96 96 93 97 92 98 82 79 70
6 6 7 7 7 9 8 7 8 10 8 10 25 39 40 34 44 57 66 80 84 83 75 70 72 72 75 74 78 95 92 98 99 89 86 90 96 97 88 82 97 84 98 99
6 5 7 8 7 8 8 7 8 11 10 13 25 31 44 58 56 62 76 87 81 81 86 82 88 98 99 100 100 100 100 100 100 98 100 100 100 95 90 99 100 90 96 100
6 5 7 7 7 8 8 8 9 11 12 13 22 36 40 55 66 69 74 78 85 96 96 92 90 91 98 99 94 93 96 100 100 100 100 100 100 100 99 93 90 96 95 86
6 5 6 7 6 7 8 8 9 11 14 13 14 30 40 40 60 74 76 80 85 90 95 91 97 93 96 98 100 100 100 100 100 100 100 93 84 82 84 97 100 88 74 68
5 5 6 7 6 7 8 8 9 12 14 14 14 22 33 42 49 67 66 74 81 77 78 85 95 90 94 95 97 99 100 93 80 72 76 89 91 94 96 99 96 84 78 68
5 5 6 6 6 7 8 7 9 13 14 16 12 16 23 33 46 61 65 65 68 74 76 82 86 90 94 90 80 65 67 65 67 87 100 96 92 90 98 96 84 86 77 67
5 5 6 7 6 6 8 7 8 11 14 17 14 14 19 28 48 64 67 67 62 69 77 82 92 96 74 58 52 57 64 73 88 89 84 80 83 90 88 97 94 84 77 73
5 5 6 7 6 6 7 7 8 10 13 15 17 10 16 24 38 62 66 68 66 66 71 85 92 71 54 57 67 72 76 80 86 81 74 80 81 80 92 97 93 89 84 97
5 5 6 6 6 6 6 7 7 9 10 15 18 10 12 17 22 32 50 64 67 72 70 83 89 68 70 77 79 80 86 87 86 79 76 76 89 92 79 92 91 80 84 79
5 5 6 6 6 6 6 6 6 8 9 11 15 10 9 14 17 21 31 46 72 73 78 78 94 90 82 84 87 86 84 84 88 82 75 85 96 98 95 95 100 74 62 73
5 5 6 6 7 6 6 6 6 8 10 10 13 10 8 13 15 17 26 46 62 81 77 76 94 100 96 96 88 87 87 85 80 77 72 81 92 94 100 99 98 89 73 60
5 5 6 6 6 6 6 7 7 7 9 10 11 8 7 12 14 14 19 38 66 71 83 79 80 92 97 99 87 98 82 90 86 78 75 73 95 100 100 100 88 87 58 56
5 5 6 6 6 6 6 7 7 8 9 11 10 8 8 14 15 15 20 31 51 81 78 88 77 84 97 91 86 95 97 99 89 84 75 72 100 96 96 100 98 80 66 63
6 6 6 6 6 6 6 7 7 8 9 11 10 9 10 15 16 15 16 20 33 62 88 86 83 89 90 84 82 100 96 100 96 87 76 83 98 94 99 99 96 81 76 88
6 6 7 7 7 7 7 7 7 8 9 11 10 11 13 16 16 16 15 15 20 30 56 85 85 93 94 74 87 100 99 100 98 94 76 87 99 88 84 84 85 82 98 97
6 6 7 7 8 8 7 8 8 8 10 12 12 12 14 17 18 17 17 16 16 23 31 57 83 93 97 72 81 100 100 98 86 87 82 99 100 99 84 72 78 87 97 94
6 6 7 8 9 8 8 9 10 10 12 14 14 13 15 20 19 20 19 18 18 18 21 37 67 95 99 74 77 100 88 81 94 92 92 100 100 94 100 93 70 89 96 88
7 7 8 10 10 9 10 11 12 12 13 16 15 14 18 20 22 21 21 20 19 17 17 21 43 76 97 81 85 99 87 87 93 96 99 99 96 100 100 97 78 80 95 97
8 8 9 11 10 11 12 14 14 14 16 19 17 15 16 24 26 24 22 22 21 19 18 19 26 48 76 86 83 94 98 97 91 97 100 100 100 100 100 84 81 84 90 97
8 10 11 12 11 12 14 16 16 16 16 20 21 18 19 25 33 34 29 24 24 23 23 22 22 31 52 87 90 92 99 100 100 99 100 100 100 99 99 93 78 82 90 92
10 12 13 14 14 14 15 17 17 18 18 20 23 20 20 28 43 49 44 37 33 32 32 30 27 25 32 58 96 98 100 100 100 100 100 100 100 100 100 98 87 92 98 93
13 14 13 15 16 16 19 19 20 22 20 21 24 24 21 24 43 57 62 55 50 51 55 44 38 36 32 35 58 91 99 100 100 100 100 100 100 100 100 100 97 100 91 91
15 15 16 17 18 19 21 22 22 24 23 24 28 29 23 28 33 51 66 65 69 74 92 96 77 61 49 48 48 48 69 91 94 100 100 99 100 100 98 100 100 95 96 90

GFSNW_250_rhum_060.txt.gz
RH
6 5 5 6 6 6 6 6 5 5 5 5 6 8 8 8 7 7 13 17 21 35 34 35 35 34 46 48 51 53 50 56 85 95 100 100 96 96 100 100 100 99 85 87
5 5 5 6 6 7 7 6 5 6 6 6 6 11 11 12 18 20 25 32 39 42 44 42 63 61 67 69 66 70 56 53 62 90 100 100 100 100 91 100 100 98 92 84
5 5 5 5 6 7 7 6 6 6 7 8 9 16 18 18 25 33 41 41 48 53 60 72 73 73 72 72 74 68 65 61 70 78 86 85 100 100 100 100 96 94 88 90
5 5 6 6 6 7 7 7 6 7 9 9 12 15 24 30 24 35 42 44 50 57 58 57 66 77 72 68 65 73 73 69 67 67 76 93 100 100 100 100 99 91 89 74
6 5 6 6 6 7 8 7 7 6 8 9 12 16 23 37 33 36 48 61 67 69 82 83 88 89 93 85 77 71 67 71 76 77 81 89 97 99 96 97 96 77 84 69
6 6 6 6 6 7 8 7 7 7 9 11 12 18 24 29 42 46 50 57 63 75 67 68 67 77 82 81 82 79 69 65 64 75 82 92 94 93 91 94 87 75 82 91
6 6 6 6 6 7 8 8 7 7 9 11 12 15 23 29 36 42 51 57 59 62 63 60 66 79 82 84 76 75 78 78 77 75 79 85 89 87 86 86 84 86 93 97
6 6 6 6 6 6 8 8 7 8 9 11 12 16 25 33 40 40 50 58 54 62 63 65 76 89 90 90 87 84 87 89 93 91 96 97 92 90 99 100 99 100 98 96
7 6 6 6 6 6 7 8 7 8 8 11 12 16 20 42 41 53 48 53 58 62 62 74 82 87 99 98 100 100 100 100 100 100 100 96 94 96 99 96 90 85 96 100
7 7 6 6 6 6 7 8 7 8 9 10 12 15 19 28 49 44 58 59 64 65 73 77 77 85 92 94 96 97 99 98 97 96 96 94 86 82 81 92 100 100 97 84
6 7 7 6 6 6 7 8 8 8 9 10 12 13 19 16 34 69 57 62 63 67 74 74 82 86 88 93 100 100 100 98 90 79 75 71 76 86 95 99 92 92 86 83
6 6 6 6 6 6 6 7 7 8 8 10 13 14 16 20 20 38 68 72 66 69 65 69 75 84 95 100 95 86 71 59 65 67 73 85 98 98 98 96 97 84 87 96
6 6 6 6 6 6 6 7 8 8 8 9 13 14 14 19 16 21 43 62 75 71 70 68 72 82 93 84 65 53 58 61 73 83 88 90 91 92 94 92 92 80 95 99
5 5 6 6 6 6 6 6 7 8 8 9 11 14 15 18 17 13 22 41 77 77 79 73 73 84 84 60 53 59 65 74 83 80 88 89 92 92 95 94 92 87 89 97
5 5 5 6 6 6 6 6 7 7 7 8 10 11 15 17 15 10 17 22 43 75 78 78 75 82 82 62 66 70 75 82 81 97 94 86 80 76 74 94 100 99 100 93
5 5 5 6 6 6 6 7 7 7 7 7 9 10 13 15 12 8 14 18 25 55 89 87 81 77 92 83 82 91 86 88 86 98 89 88 84 89 100 100 100 100 99 92
5 5 5 6 6 6 6 7 8 7 7 7 8 9 11 12 9 7 12 16 19 36 72 92 86 83 100 100 94 100 95 92 88 97 91 93 90 91 97 98 100 100 98 86
5 5 5 6 6 6 6 7 8 8 7 7 8 10 12 11 9 8 14 16 20 30 50 76 80 90 92 100 90 100 94 98 99 99 96 99 92 86 95 96 100 95 94 89
4 5 5 6 6 6 6 7 8 8 8 8 9 10 11 10 10 11 14 16 17 18 26 46 81 97 96 84 83 100 100 100 100 100 97 100 97 87 88 88 87 95 99 83
5 5 6 6 6 6 6 7 8 8 8 8 10 11 12 11 11 14 16 17 17 17 18 20 44 85 98 88 79 98 100 100 100 97 93 94 99 91 91 91 87 92 90 79
5 6 6 6 7 6 7 8 9 9 9 9 10 12 13 12 13 16 18 18 19 18 18 21 30 44 86 90 80 88 100 100 91 90 99 100 99 91 91 84 94 92 82 78
6 6 7 7 7 7 8 9 10 10 10 10 12 14 15 14 16 18 19 20 19 18 18 19 22 33 50 76 75 87 100 100 87 90 97 100 100 96 95 91 95 100 99 86
6 6 8 8 9 9 10 10 11 12 12 11 13 16 17 16 17 21 22 22 21 20 20 20 19 21 34 52 64 77 98 100 85 87 89 98 100 100 100 99 96 99 98 97
7 8 9 10 10 10 12 13 13 14 13 13 15 18 20 18 19 22 26 26 25 26 23 22 20 21 22 40 64 77 94 100 90 91 96 98 100 100 100 100 100 100 100 98
9 10 11 11 12 13 14 15 15 16 15 16 17 20 22 21 20 27 29 30 28 28 30 25 24 23 24 26 50 72 85 95 96 96 100 100 100 100 100 98 97 99 100 100
10 11 11 13 16 16 16 17 18 19 18 17 19 22 23 22 24 28 34 33 33 40 40 34 30 29 27 28 32 58 86 99 100 99 100 100 100 100 100 100 98 100 100 100
11 12 13 15 17 18 18 19 20 22 20 19 21 21 27 26 23 27 32 28 39 52 52 49 45 42 36 33 32 33 52 93 100 100 100 100 100 100 100 99 100 100 100 100

GFSNW_250_rhum_066.txt.gz
RH
21 17 9 8 7 7 8 7 7 7 6 6 6 6 10 15 18 19 19 20 26 20 22 27 28 28 28 28 28 29 29 28 30 34 39 35 29 24 45 70 85 76 71 69
19 19 10 9 7 7 7 8 7 8 6 6 7 7 10 17 22 24 25 24 25 30 30 31 29 27 28 31 30 31 31 33 40 43 35 35 39 45 48 54 69 96 99 100
17 14 15 8 8 7 7 7 7 8 7 7 7 8 10 18 27 32 29 28 28 28 28 29 31 30 29 29 30 34 36 35 39 47 56 48 59 66 70 67 75 92 97 100
22 22 19 8 8 7 7 6 7 8 8 7 7 8 9 15 29 37 40 32 31 29 30 30 30 32 35 39 37 34 37 38 37 38 50 83 80 81 81 82 71 79 87 100
20 22 19 10 8 7 7 6 7 7 8 7 8 8 9 12 24 37 48 55 43 39 39 36 36 38 39 42 48 53 57 53 40 41 43 45 66 78 85 85 85 85 91 86
18 18 20 10 8 7 7 6 6 6 8 8 8 8 9 11 17 34 48 64 68 59 51 53 58 57 57 62 62 66 74 80 69 60 57 60 73 89 95 96 99 100 99 96
22 22 25 11 9 7 7 6 6 6 7 8 8 8 9 11 15 31 52 65 76 74 72 67 69 66 64 66 68 68 74 82 78 71 71 82 84 89 92 97 98 96 97 94
33 27 10 9 9 7 7 6 6 6 7 8 8 9 9 10 13 19 43 66 85 85 71 69 66 71 75 72 74 78 76 82 86 73 71 76 79 81 86 86 84 90 94 96
24 11 8 8 8 7 6 6 6 6 6 8 8 8 9 10 12 14 21 46 65 76 75 63 61 62 62 62 65 68 68 71 80 93 93 85 77 83 85 88 96 99 98 100
14 16 9 8 7 7 6 6 6 6 6 7 8 8 9 10 11 14 17 27 52 78 88 69 64 69 73 71 70 80 80 76 73 73 82 88 93 97 99 100 99 100 100 95
16 15 8 8 7 6 6 5 6 6 6 6 8 8 8 10 11 13 16 19 42 68 89 91 77 76 83 89 91 100 99 100 99 100 97 94 94 98 97 95 99 100 100 100
13 10 8 8 7 6 6 5 5 6 6 7 7 7 8 9 11 12 15 19 21 44 74 94 88 86 86 98 97 97 92 94 99 99 99 100 100 100 100 100 100 100 100 100
10 17 7 7 6 6 6 5 5 6 6 7 7 8 7 9 11 12 14 18 22 23 61 87 95 92 93 100 100 96 88 88 89 95 89 95 96 100 100 100 93 83 89 100
6 9 7 6 6 6 6 5 5 6 6 6 7 8 7 8 10 11 13 16 20 22 30 72 94 95 91 95 97 96 96 94 96 94 94 92 87 90 81 84 83 89 98 100
5 6 8 5 5 5 6 5 5 5 6 6 7 8 8 9 9 10 14 16 19 23 21 37 73 92 99 93 92 100 92 90 88 84 84 78 73 72 79 86 91 92 96 99
5 6 6 5 4 5 6 5 5 6 6 6 7 8 8 8 10 11 11 13 18 21 24 19 47 73 92 96 92 96 90 93 71 65 60 57 70 74 76 92 92 95 96 100
4 5 6 5 4 5 6 6 5 5 6 6 7 8 8 8 9 11 14 14 15 18 23 26 20 48 79 89 89 86 93 83 59 56 54 66 70 70 73 85 78 74 81 89
4 5 4 4 5 6 6 5 6 6 6 6 7 8 8 8 9 10 12 14 15 17 20 24 21 21 76 88 69 76 99 72 62 60 62 74 73 71 72 76 74 73 80 89
4 4 3 4 5 6 6 6 6 6 6 7 7 8 8 8 9 10 10 12 15 17 18 18 17 16 50 72 54 78 97 70 70 70 72 85 81 76 78 81 80 81 85 91
4 4 4 5 6 7 6 6 6 6 6 7 8 8 8 9 9 10 11 11 13 14 14 14 12 14 20 46 51 70 96 76 78 81 85 88 91 89 89 94 95 98 97 94
4 4 4 6 7 7 6 6 6 7 7 8 9 10 10 9 10 11 11 12 13 14 13 12 11 10 15 36 51 61 90 83 80 86 95 93 95 99 98 94 94 98 100 97
4 5 5 6 8 7 7 7 7 8 8 9 9 10 10 11 10 11 12 14 13 13 14 14 13 15 18 24 34 54 72 89 80 90 99 98 100 100 100 97 100 100 100 100
5 5 6 8 9 7 8 7 8 9 10 10 10 11 11 11 11 12 14 14 14 15 16 17 18 20 20 22 27 38 62 78 93 79 89 99 96 99 100 96 93 98 98 100
6 6 7 9 8 8 9 9 11 11 11 12 12 12 12 13 13 15 16 17 17 18 19 20 20 21 21 21 21 24 34 64 72 90 80 75 93 99 100 100 100 96 94 94
6 7 9 8 9 9 10 10 12 12 12 13 14 14 15 16 15 17 18 18 18 19 21 21 22 22 22 21 21 21 23 30 60 79 89 91 82 88 100 100 100 100 100 100
7 9 10 10 11 11 11 13 14 13 15 16 15 16 17 19 19 19 20 19 20 22 23 25 26 25 24 23 23 22 21 21 23 35 80 100 97 90 98 100 100 100 100 100
8 10 11 11 11 12 13 14 15 15 17 19 17 17 19 19 20 20 20 19 24 24 25 25 29 28 26 24 23 23 23 22 22 23 28 68 98 100 100 100 100 100 100 100

GFSNW_250_rhum_069.txt.gz
RH
36 32 34 32 15 14 11 6 8 7 6 6 7 6 7 9 14 19 21 20 23 23 18 22 29 30 30 32 30 27 28 28 25 24 22 21 21 21 21 21 20 19 19 22
51 54 37 38 26 14 10 6 8 8 6 6 7 7 8 9 13 21 24 27 24 28 31 30 30 30 30 30 28 30 30 30 30 30 28 24 24 26 27 30 27 26 25 30
70 48 73 31 28 25 21 8 7 9 7 6 7 7 8 9 16 24 31 29 28 27 25 29 32 32 34 33 33 32 32 32 35 35 35 30 32 35 49 50 53 55 43 47
59 41 61 33 26 24 15 9 7 8 8 7 6 8 7 9 11 23 37 42 35 32 30 26 28 32 33 35 35 34 35 35 36 39 40 40 38 40 38 60 71 71 84 91
74 59 41 35 23 22 18 15 6 8 8 7 6 7 8 8 10 21 34 49 51 43 38 31 28 30 34 36 39 39 45 41 38 40 38 35 39 40 46 50 56 71 80 94
77 52 48 45 23 27 18 18 7 8 8 7 7 7 8 8 10 14 28 45 54 64 62 50 44 39 40 39 37 35 38 38 40 40 43 50 47 50 68 69 62 74 87 99
69 71 51 47 21 19 15 16 9 7 8 7 7 7 8 8 10 11 22 41 60 67 73 78 69 57 60 60 60 54 48 50 49 47 38 39 44 52 60 74 90 80 78 81
48 56 45 41 18 21 17 12 11 6 8 7 7 7 8 8 10 11 15 30 60 73 65 66 80 77 79 76 72 75 78 79 79 80 69 52 49 59 69 83 90 87 91 98
58 45 51 27 22 17 10 9 9 6 7 7 6 7 7 8 9 10 13 20 42 68 73 68 69 75 78 78 86 86 86 79 74 79 73 72 65 77 86 90 97 100 100 100
44 26 32 28 25 13 9 8 8 6 6 7 6 6 7 8 9 10 12 16 25 52 72 61 57 63 72 68 68 70 81 88 84 80 84 79 74 79 85 97 96 97 95 98
52 58 21 15 20 13 9 7 7 6 6 7 6 6 7 8 9 10 11 14 20 33 62 70 60 67 79 77 78 75 78 74 72 81 89 96 89 87 92 96 95 94 99 98
38 38 32 21 20 10 8 7 6 6 5 6 6 6 7 7 8 9 10 12 16 23 48 65 74 76 83 90 88 88 89 94 100 94 85 77 80 83 93 96 95 95 98 99
32 44 45 19 15 10 7 7 6 5 5 6 6 6 6 7 9 8 10 12 14 18 25 54 69 80 87 89 99 100 99 97 89 92 95 96 92 95 96 95 91 92 90 96
20 23 23 8 12 7 7 6 5 5 5 6 6 6 7 7 8 9 10 11 12 16 22 30 63 74 84 95 96 95 97 96 98 97 91 90 96 98 96 97 93 94 98 99
22 20 30 10 7 5 6 6 5 5 4 5 6 6 7 7 8 9 10 10 12 14 18 24 40 65 77 86 97 96 99 90 88 91 96 90 95 90 93 95 94 97 100 100
18 14 10 7 6 5 5 5 5 5 4 5 6 7 7 7 8 8 9 11 12 14 17 20 26 42 73 70 84 98 96 97 94 96 96 96 96 99 97 96 91 82 87 95
15 7 9 6 5 5 5 5 5 5 4 5 6 7 7 7 8 8 9 10 12 12 15 20 22 25 48 81 66 71 88 94 97 92 96 88 88 89 93 76 69 78 87 95
11 14 7 6 5 4 5 5 5 4 5 6 6 7 7 7 7 8 9 10 11 13 15 19 19 21 27 60 82 64 68 84 92 90 93 80 67 69 66 70 73 80 80 83
19 6 6 5 5 5 5 5 5 5 6 6 7 8 7 7 8 9 9 11 13 13 14 15 16 21 30 33 29 46 81 69 72 81 86 62 58 55 68 74 75 73 67 62
6 5 6 5 6 5 5 6 6 7 7 7 8 8 7 8 9 9 9 10 11 13 14 12 17 22 22 26 24 26 76 75 61 70 80 56 53 61 71 76 73 73 72 72
6 6 6 6 5 5 6 6 7 8 8 8 8 8 8 8 9 9 10 10 11 12 12 16 19 18 17 23 24 21 32 79 69 59 67 56 56 65 76 78 82 80 79 80
6 6 5 6 5 6 6 7 8 9 10 9 9 9 9 9 10 10 11 10 11 11 13 15 15 15 15 15 15 15 18 68 76 62 66 58 63 69 75 81 83 83 85 90
6 6 6 5 6 6 7 8 9 10 10 10 10 10 10 10 11 12 12 12 12 14 16 16 16 15 13 12 11 11 13 42 72 68 69 65 65 78 83 84 86 86 89 93
6 6 6 6 7 7 8 9 10 10 10 10 10 11 11 12 12 13 14 14 14 14 15 16 16 16 15 15 13 13 14 28 77 76 70 74 73 77 86 89 89 88 88 91
6 6 6 6 7 7 9 10 11 11 11 11 11 12 13 15 16 15 14 14 15 15 17 18 18 18 19 19 18 17 19 27 60 76 73 74 78 86 86 88 94 96 93 92
6 6 6 7 8 9 11 11 11 12 12 12 14 15 16 16 16 16 16 15 16 19 20 20 20 20 20 21 22 21 20 22 28 45 71 76 79 80 88 94 93 92 92 95
5 6 7 8 9 10 12 12 12 13 12 13 16 17 18 18 18 17 16 16 20 22 22 22 22 23 22 24 25 23 22 22 21 23 30 59 78 81 80 80 84 94 100 99

GFSNW_250_rhum_072.txt.gz
RH
58 38 50 56 40 60 44 20 22 21 11 7 6 6 6 7 6 9 14 17 15 16 18 19 20 20 19 21 24 23 21 18 21 22 23 23 21 19 19 19 18 17 15 14
69 57 47 70 56 42 30 35 32 24 11 8 6 6 6 7 8 8 13 20 22 20 20 24 28 30 31 33 30 30 29 31 31 29 28 27 26 24 26 25 20 18 17 17
67 72 52 62 57 43 44 31 50 21 15 10 7 7 6 7 8 9 14 19 23 24 25 23 26 32 34 36 35 35 38 35 37 36 32 32 29 29 29 28 24 21 20 19
72 57 54 74 54 54 46 51 49 29 21 10 8 7 6 6 8 9 11 21 25 27 28 26 27 27 32 35 37 40 39 40 38 37 38 34 33 35 34 33 29 28 28 23
80 53 74 72 86 62 64 80 60 23 20 9 8 7 7 6 8 8 10 16 27 31 34 32 30 26 25 27 30 34 37 37 38 36 35 37 39 40 50 61 55 42 59 47
80 54 60 86 99 93 70 45 58 23 20 11 8 7 8 7 7 9 9 12 24 33 40 42 43 36 33 32 33 34 34 33 35 35 31 32 42 40 51 63 68 64 70 81
59 50 61 66 83 88 70 56 57 25 38 11 8 7 7 7 7 8 9 10 16 27 39 43 54 52 48 44 35 33 33 34 34 34 33 33 28 36 42 48 65 75 86 86
45 40 44 56 63 58 68 61 59 39 39 11 7 7 7 7 7 8 9 10 12 16 34 46 42 60 69 68 70 64 55 46 43 44 36 36 36 37 39 46 49 57 78 88
51 44 39 40 50 68 87 63 57 53 31 10 7 7 7 7 7 8 9 10 11 14 28 44 49 54 69 80 82 80 77 72 68 58 54 54 42 41 41 41 52 62 64 66
42 36 36 33 44 62 100 63 60 31 33 8 7 6 6 7 7 8 8 10 11 13 20 38 46 45 53 60 67 78 84 78 78 77 80 73 68 55 52 54 56 61 67 72
27 32 27 41 54 80 96 82 40 21 8 7 7 6 6 8 7 7 9 9 11 13 15 23 46 45 50 57 61 65 66 70 77 78 76 80 74 68 64 62 62 72 82 83
29 25 28 33 51 58 77 72 36 21 6 5 6 6 7 7 7 8 9 9 11 12 14 20 31 48 55 64 62 66 68 69 73 76 76 76 85 82 83 83 79 82 87 89
33 22 38 35 47 50 45 38 31 10 6 5 6 6 6 7 8 7 8 9 11 13 14 18 27 46 53 65 75 78 83 82 77 76 69 75 84 92 96 96 93 98 100 100
35 26 30 28 62 73 33 24 10 5 6 5 5 5 6 7 8 7 8 9 10 10 12 16 23 29 47 60 72 92 89 93 96 84 80 80 83 78 75 84 92 92 96 96
24 21 25 32 45 38 21 13 4 4 6 5 5 6 6 8 9 8 9 9 9 11 13 15 18 26 40 50 68 87 93 99 98 100 96 93 88 82 88 86 87 89 93 96
26 33 52 27 28 20 17 8 4 4 5 5 4 6 6 8 9 8 8 9 9 11 12 14 16 19 30 51 63 71 82 96 100 100 95 100 97 100 96 92 87 80 81 87
22 31 38 34 27 10 6 6 5 5 5 5 5 6 7 9 10 9 8 9 9 10 12 14 16 17 25 35 63 68 65 78 88 100 93 94 98 94 100 100 100 98 92 93
39 27 46 54 46 19 5 5 5 5 5 6 6 6 7 10 10 8 9 8 9 11 13 14 15 16 22 33 34 42 86 83 73 82 91 92 96 92 93 94 97 99 100 100
26 37 39 57 34 10 5 5 5 6 6 6 7 8 8 11 11 9 9 9 9 11 13 14 14 17 24 28 24 22 44 82 91 81 75 83 82 86 90 83 80 92 100 87
29 38 33 35 8 5 5 5 5 6 6 6 8 8 10 11 10 9 8 8 10 11 12 12 16 19 18 19 20 20 26 54 83 87 91 80 76 76 80 67 63 77 74 79
21 26 23 21 5 6 6 5 5 7 6 7 9 9 11 11 10 9 8 10 10 11 11 13 17 16 13 19 21 22 23 29 40 63 77 85 79 74 73 57 55 56 67 79
21 11 12 16 8 7 6 5 6 7 7 8 9 9 11 11 10 9 9 9 12 12 13 14 14 14 16 18 21 22 24 27 32 34 56 74 82 82 74 57 51 56 68 71
18 18 40 9 8 6 6 6 7 8 8 9 9 10 10 10 10 10 11 10 10 11 12 13 14 16 17 18 19 20 22 24 26 27 33 54 77 81 77 63 54 64 68 69
41 24 11 9 7 5 6 6 8 9 8 10 11 11 10 10 10 11 11 12 12 13 13 12 14 15 17 18 18 17 16 16 18 21 27 40 64 78 78 68 59 65 72 73
30 26 10 8 6 5 6 7 8 9 9 11 12 11 10 10 12 13 13 12 14 14 14 15 16 16 17 18 18 15 16 16 14 13 18 26 55 80 85 77 65 65 73 76
18 9 9 7 4 5 6 8 9 10 11 12 12 11 10 11 12 11 12 13 15 16 16 17 16 18 19 20 19 17 17 18 16 14 14 19 45 75 82 80 72 70 75 80
8 8 8 5 4 5 7 9 11 11 13 13 12 12 13 12 12 10 12 15 17 18 18 17 20 22 21 21 20 21 21 20 20 19 18 19 46 64 75 82 84 78 78 85

GFSNW_250_rhum_075.txt.gz
RH
38 23 28 42 44 57 58 75 64 34 44 33 26 13 8 9 8 7 6 9 12 12 13 12 12 13 14 14 13 11 12 12 12 14 17 24 23 23 19 17 20 23 17 16
33 22 32 42 50 52 74 71 65 57 49 35 21 22 7 9 9 8 8 8 13 15 15 17 15 18 20 22 22 20 20 22 24 27 28 27 26 25 28 26 22 22 20 19
29 26 29 35 49 58 51 61 65 59 55 56 40 20 9 7 9 9 8 10 11 17 17 19 21 20 22 29 31 33 34 39 38 40 40 38 38 35 33 30 26 24 22 20
31 23 30 43 50 54 62 66 60 57 52 51 43 21 9 7 8 10 8 9 13 18 23 19 22 25 25 27 32 33 35 39 44 43 48 48 43 40 36 30 26 26 24 23
32 25 35 37 38 46 55 66 63 49 51 36 29 21 7 7 7 9 9 8 10 17 28 25 23 24 28 27 30 32 33 34 35 36 38 40 49 46 41 37 35 32 27 26
29 26 29 41 50 53 54 72 71 46 40 35 29 22 8 6 7 8 9 9 8 11 21 28 28 27 26 30 31 32 32 32 34 34 36 34 38 41 44 41 46 52 52 34
35 38 36 31 34 46 52 55 59 59 41 32 26 12 6 5 6 8 8 9 9 11 15 20 38 35 30 30 29 32 34 34 33 34 34 31 28 35 44 44 62 61 63 55
36 34 33 27 33 41 47 63 67 65 53 38 20 12 6 5 5 7 8 10 9 10 14 27 35 46 43 38 37 36 38 42 43 43 34 33 32 34 32 36 43 55 68 75
39 32 33 26 29 35 47 49 70 69 50 45 16 9 4 4 5 6 8 8 9 9 11 14 23 40 46 52 51 54 63 55 45 47 46 36 37 33 35 37 43 56 57 69
28 28 29 24 28 37 39 52 83 75 40 35 10 6 3 4 4 6 7 8 10 9 11 14 17 26 41 49 62 75 78 77 68 69 58 39 52 46 43 40 42 46 47 51
28 28 27 34 34 35 40 53 71 44 31 27 9 4 3 4 4 6 6 8 9 9 9 12 17 20 34 44 47 58 67 72 77 74 66 66 62 58 54 46 41 54 60 58
24 28 22 28 32 33 39 63 63 52 24 12 5 4 3 4 4 5 7 7 9 9 10 12 16 21 26 41 44 51 54 52 65 64 78 80 73 76 77 65 53 49 52 54
26 24 28 32 34 37 54 74 64 38 18 10 4 4 3 3 4 5 6 7 9 9 10 11 13 18 32 39 44 46 53 54 56 58 65 79 79 75 78 77 73 66 68 68
20 21 25 26 27 34 52 60 56 32 32 14 4 4 4 3 4 5 6 8 9 9 8 10 12 14 25 41 50 58 56 59 67 68 72 72 70 74 85 87 80 76 82 85
22 23 29 42 31 36 42 45 50 41 27 10 5 5 4 4 5 6 6 8 9 9 9 11 11 14 19 32 49 58 56 62 65 70 73 70 69 72 84 80 91 90 88 91
27 23 32 35 31 34 44 46 55 28 29 6 5 5 5 5 6 6 7 10 10 10 10 10 12 12 18 21 25 53 59 64 64 68 73 84 86 86 76 75 76 78 83 91
18 24 33 26 37 35 43 49 66 35 25 6 5 5 6 6 6 6 8 10 10 10 10 11 12 13 17 21 24 38 49 69 72 66 82 83 79 84 94 86 82 78 74 74
22 26 21 24 28 36 37 36 37 23 7 5 4 5 6 6 7 7 9 11 12 11 11 11 12 14 19 22 21 20 28 47 81 83 77 80 76 76 87 90 86 86 90 88
15 30 21 35 21 22 30 22 19 21 7 5 4 5 7 7 8 8 10 11 12 11 12 11 11 14 20 23 15 13 20 27 50 96 100 92 98 88 83 88 90 89 88 89
25 27 33 21 27 32 27 17 12 8 7 5 5 6 7 7 8 9 10 11 11 12 12 12 15 16 16 15 14 15 18 28 36 39 70 93 97 93 86 85 90 90 93 92
45 44 34 20 34 39 37 32 32 7 6 5 6 7 8 8 8 10 11 13 12 12 11 11 14 12 12 15 17 18 16 19 28 31 29 45 86 99 93 82 82 86 91 92
54 36 28 28 28 35 21 16 15 8 6 5 6 8 8 9 10 10 11 12 12 11 13 13 12 13 15 19 17 16 17 17 19 24 28 30 39 63 90 97 93 84 81 90
34 34 24 28 29 23 24 23 8 9 6 5 7 8 9 10 12 12 11 12 13 12 12 12 13 14 15 16 17 18 18 20 21 22 25 28 31 33 38 73 96 97 83 83
35 32 32 25 37 22 25 22 8 8 5 5 7 9 10 11 12 12 12 11 12 12 13 14 15 16 15 14 15 17 17 18 20 22 23 25 28 32 32 35 67 94 89 83
41 31 28 37 24 22 39 9 8 7 4 5 8 10 10 12 14 13 12 11 12 12 14 15 15 16 16 17 17 17 19 20 21 21 20 21 23 26 30 31 37 74 90 79
37 39 35 26 31 48 10 8 7 5 4 6 9 11 11 14 13 12 12 13 14 15 15 15 15 16 17 16 17 18 18 20 20 20 19 19 18 18 22 30 29 37 80 81
40 33 20 28 34 11 9 8 6 4 4 7 10 11 13 14 14 13 16 16 19 20 18 17 17 18 17 17 19 20 20 20 20 20 20 20 18 14 14 20 27 28 53 81

GFSNW_250_rhum_078.txt.gz
RH
52 47 45 43 40 29 30 42 62 60 71 79 65 40 36 25 19 7 6 6 6 9 15 14 10 6 6 8 10 12 14 17 16 16 14 18 21 18 17 19 18 18 21 19
52 39 42 47 44 30 31 48 64 51 87 92 86 46 41 36 19 15 6 6 6 9 14 17 14 12 9 9 11 13 13 15 18 20 19 22 28 27 30 25 25 32 26 22
46 38 40 50 45 29 29 43 49 61 79 84 82 53 49 37 27 17 8 7 7 7 10 18 17 15 15 12 12 16 21 21 19 20 21 27 23 26 32 30 30 38 36 26
50 41 49 56 51 36 34 40 61 52 64 71 81 71 53 39 27 20 11 7 8 7 8 14 23 20 19 21 18 18 20 30 38 38 40 43 42 48 47 49 43 40 38 36
48 49 56 66 54 38 45 45 66 59 66 82 74 84 46 34 22 17 12 7 8 8 8 12 21 22 21 23 25 27 28 34 39 49 58 62 61 59 53 41 38 36 31 28
50 60 68 79 54 40 41 41 44 56 68 77 92 77 46 31 21 13 10 7 8 9 9 11 16 25 26 23 26 27 26 27 33 37 40 47 51 48 46 45 40 36 42 32
62 66 72 76 56 43 40 42 47 39 50 81 82 74 52 25 15 12 7 6 7 9 9 10 12 21 31 28 25 26 29 29 31 35 39 39 43 41 46 50 56 62 58 48
63 69 75 68 57 42 38 41 37 45 55 57 69 66 39 24 16 8 5 6 6 7 9 10 11 13 28 38 30 26 26 28 30 32 33 35 37 34 29 30 40 51 58 61
67 64 75 70 57 38 40 38 34 44 55 56 66 48 22 15 12 5 4 6 6 7 8 9 11 16 19 36 44 34 30 27 29 31 32 32 35 38 42 48 42 30 39 50
60 58 70 70 52 39 36 39 32 38 50 62 57 31 14 14 9 4 4 5 6 7 8 9 11 15 18 24 42 50 43 39 35 33 33 32 40 36 37 40 44 48 42 38
60 50 63 61 50 39 38 38 37 43 53 51 42 21 12 12 7 4 5 5 6 7 8 9 10 13 18 24 37 48 53 59 52 48 47 46 43 40 37 38 37 42 48 57
59 60 59 67 54 34 31 32 37 41 51 53 28 15 8 12 6 4 5 5 6 7 7 9 10 12 15 20 30 42 44 47 62 67 69 62 60 54 49 46 43 40 39 44
66 55 52 62 55 32 27 27 28 40 59 62 32 25 12 9 6 4 6 5 7 7 8 10 10 11 14 16 24 38 44 48 52 60 68 67 71 71 68 66 62 61 46 41
75 54 45 56 48 34 29 32 29 37 48 55 32 15 14 8 5 4 6 6 7 7 8 10 10 10 15 16 20 41 51 52 54 56 60 49 60 71 77 76 81 82 74 63
74 61 42 53 40 32 32 27 27 40 45 47 34 16 11 7 6 5 6 6 7 8 8 10 11 11 14 17 18 23 54 63 62 62 52 50 54 67 70 75 84 87 81 74
81 54 45 47 37 29 34 38 37 38 36 34 37 22 8 6 6 6 6 7 8 8 9 10 12 11 14 16 16 23 32 59 66 66 66 70 62 59 59 62 74 82 88 93
71 59 44 38 34 29 35 33 30 44 46 56 32 45 8 6 6 6 7 7 8 9 11 12 12 12 15 16 15 19 22 34 49 69 78 69 68 73 78 74 68 65 68 77
69 54 39 31 34 27 29 31 24 50 53 47 38 30 9 5 6 7 7 8 9 10 12 12 11 13 16 17 13 18 18 22 26 57 82 77 74 73 80 82 81 82 81 78
62 52 38 32 34 30 39 35 32 43 54 47 32 17 8 6 6 7 8 9 10 12 11 12 13 15 17 15 9 10 18 19 22 31 56 82 88 87 82 88 83 82 85 87
53 48 34 29 30 32 34 25 30 57 50 33 34 9 6 5 7 8 8 10 11 12 12 14 16 16 14 12 10 10 16 27 29 29 37 41 63 71 76 90 96 98 91 89
55 42 38 33 32 37 36 42 69 59 46 61 24 8 6 5 6 8 10 10 11 12 14 15 16 12 13 15 15 15 13 17 22 24 25 30 35 44 60 77 85 96 100 96
53 47 40 36 45 43 32 46 66 39 74 81 71 9 7 5 6 8 10 11 13 13 14 14 13 14 14 15 15 16 15 15 18 24 26 24 24 28 35 55 77 88 91 98
46 37 36 33 36 54 52 48 45 48 55 66 79 9 8 5 5 8 10 10 12 14 15 15 15 15 15 15 16 16 16 16 17 19 23 26 26 25 25 27 35 56 82 94
45 36 35 32 48 52 38 48 61 50 50 66 12 9 8 5 5 8 10 11 13 13 14 15 14 14 14 15 17 18 18 18 18 17 17 19 22 23 22 24 26 26 33 57
44 35 33 39 54 42 45 59 49 54 47 15 8 8 7 5 5 8 10 12 13 14 15 15 15 14 14 17 17 18 18 18 18 18 19 20 21 22 24 25 26 26 26 31
47 45 32 41 38 42 57 62 33 28 41 8 7 7 6 5 5 8 11 13 13 14 16 17 18 17 17 18 17 18 18 18 18 19 20 21 21 23 23 23 24 24 25 27
59 43 25 31 44 59 62 43 49 51 11 8 6 5 6 5 6 8 11 13 13 15 16 16 18 19 20 21 19 19 19 19 20 20 20 21 22 21 20 20 19 19 21 26

GFSNW_250_rhum_081.txt.gz
RH
85 98 88 72 53 39 40 48 54 38 40 52 71 80 64 47 43 26 25 30 18 9 7 8 14 12 7 5 7 9 9 12 14 22 23 28 30 27 26 30 45 36 24 24
84 99 89 69 51 43 43 54 56 41 35 47 64 77 60 51 37 27 24 24 20 12 7 7 14 16 12 7 7 9 11 12 12 14 17 18 26 38 44 36 38 35 35 75
92 97 84 57 53 45 54 64 62 50 38 54 79 71 68 57 33 23 21 21 20 10 8 8 10 17 16 13 9 9 11 13 14 14 16 22 27 25 30 32 36 52 71 74
94 89 71 54 47 48 66 70 64 62 39 55 71 68 76 52 33 21 18 17 19 9 10 8 8 14 19 17 15 12 12 14 14 14 16 18 22 25 33 47 60 51 74 68
90 80 61 51 55 57 65 80 65 65 45 50 63 73 58 44 27 15 14 14 17 7 7 8 8 12 20 20 18 17 16 18 22 23 23 26 32 25 31 51 57 66 61 61
85 70 54 57 71 64 73 82 69 63 45 48 59 68 52 39 23 14 12 11 11 6 6 8 8 11 17 25 23 22 23 19 24 31 35 31 34 31 36 44 54 63 63 48
76 57 49 68 70 75 74 85 66 67 47 47 56 67 43 30 16 10 11 8 6 6 6 7 8 9 12 25 26 24 25 25 24 30 31 38 38 46 48 53 47 48 45 40
60 46 56 69 71 72 66 72 72 62 45 45 52 64 32 27 13 8 8 6 5 5 6 7 8 8 11 19 30 27 25 28 27 30 30 33 34 42 41 42 40 42 44 42
46 44 63 74 82 72 64 76 63 59 45 44 42 50 41 25 10 7 5 6 5 5 6 7 8 8 10 17 29 35 29 27 30 32 36 32 36 40 42 38 34 34 40 43
46 56 78 75 78 71 58 63 62 63 47 40 45 56 61 27 9 6 5 5 5 5 6 7 9 9 10 13 22 38 39 34 31 30 31 35 35 38 39 42 45 44 39 38
62 62 71 78 77 66 56 71 71 62 44 35 49 78 63 30 15 8 6 4 5 6 6 8 9 10 10 12 17 31 43 43 40 35 33 33 36 38 37 38 40 45 53 62
75 66 58 64 72 64 59 62 81 63 47 40 51 70 60 25 11 12 7 4 5 6 6 8 9 10 11 12 16 25 40 48 53 57 55 47 43 42 39 37 40 42 43 47
73 66 53 55 58 67 64 76 76 57 46 43 54 66 64 32 11 9 6 5 5 7 7 9 11 11 11 12 15 20 32 54 60 61 60 65 68 68 60 54 43 41 45 50
77 69 61 53 54 57 78 90 68 52 40 36 46 63 59 40 17 9 7 6 6 7 8 9 11 12 13 12 14 18 22 39 59 60 61 62 68 74 77 73 66 59 52 51
87 76 62 55 50 61 78 82 64 46 39 28 39 64 58 39 28 16 7 7 7 7 8 9 11 13 14 13 12 14 19 27 42 53 54 53 60 58 57 66 80 83 75 69
88 76 68 54 51 52 78 73 51 42 31 31 51 62 65 48 24 20 7 7 8 8 9 10 11 14 15 16 13 15 18 21 30 43 47 58 68 65 56 55 60 75 83 80
89 81 71 55 51 56 63 56 42 33 24 32 48 70 67 49 23 17 7 6 9 9 9 10 11 14 18 17 14 17 17 20 28 31 40 58 72 79 79 70 66 67 73 87
95 80 67 58 51 54 51 47 33 31 34 39 45 56 58 34 25 17 8 5 8 9 10 11 12 15 20 19 12 16 14 17 23 29 31 40 59 74 90 89 82 82 89 87
96 85 74 62 63 63 50 45 31 33 35 44 42 52 64 47 29 15 8 6 8 10 11 12 15 16 19 15 10 14 15 17 21 25 28 30 40 56 76 95 99 95 96 95
96 87 72 76 66 59 42 41 32 38 32 45 42 48 68 55 41 14 8 6 7 10 12 13 14 16 16 16 13 14 19 17 19 25 29 34 32 34 52 76 98 100 100 97
94 91 88 77 67 64 46 33 44 45 39 35 41 60 69 62 48 10 8 6 6 10 13 14 15 16 18 20 16 13 16 20 18 18 20 22 24 24 27 37 69 86 94 98
96 94 87 75 70 51 37 34 46 40 43 42 55 66 73 76 70 10 8 7 6 9 11 14 16 17 17 18 17 15 14 16 21 22 22 23 25 27 26 25 28 48 76 88
99 97 82 70 57 43 33 34 39 44 39 53 55 74 68 63 80 8 8 6 6 10 12 14 15 16 18 18 18 16 15 14 16 21 24 24 24 23 24 24 25 26 30 49
99 89 74 62 45 33 29 35 37 45 59 74 78 80 89 36 31 7 7 6 5 9 12 14 15 15 15 17 17 17 18 17 15 16 19 22 24 23 22 21 22 23 25 27
94 79 60 52 38 37 39 41 44 57 58 65 74 68 92 56 15 6 6 5 5 8 12 14 14 15 14 16 15 15 16 17 18 18 18 18 18 20 22 23 23 22 22 23
80 71 56 54 41 36 35 39 49 58 66 65 73 65 66 70 7 6 6 5 5 7 12 14 14 15 14 15 16 16 19 20 19 19 19 19 19 19 20 21 22 23 22 22
71 73 60 55 55 41 41 54 65 82 75 66 57 97 71 18 6 6 6 5 6 8 13 15 15 16 15 16 17 16 18 19 20 20 19 18 19 20 20 21 22 23 23 23

GFSNW_250_rhum_084.txt.gz
RH
100 97 95 93 84 91 84 63 40 39 40 55 61 62 57 70 62 35 18 16 15 14 11 9 5 6 11 7 5 5 6 7 11 19 23 27 29 24 29 46 45 40 48 42
100 97 100 93 96 93 80 61 41 46 41 59 63 69 68 81 66 38 15 12 12 13 10 10 6 6 9 13 7 6 7 9 11 16 25 29 30 31 40 43 43 49 56 71
91 95 100 97 99 89 79 55 42 41 45 61 61 61 68 83 69 34 12 11 11 9 8 8 6 8 8 14 13 7 8 8 13 16 24 28 38 42 45 41 49 56 73 97
86 98 99 100 99 83 74 51 45 38 43 70 64 58 61 67 59 31 12 9 9 7 6 6 5 7 9 11 16 13 9 9 12 15 19 23 26 32 37 54 78 69 84 90
98 100 100 100 96 80 65 54 50 36 54 78 70 58 56 53 48 30 12 8 8 8 5 5 5 7 8 12 16 16 13 10 10 14 14 20 30 35 43 49 57 81 94 100
97 100 100 96 87 76 59 65 48 46 62 72 81 57 60 52 42 31 14 7 9 6 5 5 6 7 9 11 19 19 18 15 12 11 13 16 25 31 44 46 49 55 75 63
100 100 91 89 80 65 62 64 46 48 64 68 63 50 63 64 55 31 17 7 6 5 5 5 6 7 9 11 15 24 22 22 20 16 15 16 15 21 26 31 39 58 67 67
100 97 87 82 69 62 65 60 49 49 57 62 66 48 46 63 57 29 18 8 5 4 5 5 6 8 9 10 15 24 28 26 25 26 25 23 19 20 22 23 25 40 48 43
94 84 83 71 64 61 71 67 58 48 57 64 63 50 45 56 56 30 18 7 6 4 5 5 6 8 10 11 12 21 32 29 28 28 26 27 34 33 31 33 33 39 41 39
87 82 70 66 60 66 70 67 65 60 55 63 64 56 40 46 51 28 15 10 7 4 5 6 7 8 11 11 12 16 32 39 32 30 30 31 36 40 40 42 40 41 38 36
80 73 67 68 57 67 70 74 72 66 52 58 63 64 51 40 45 29 19 11 9 5 5 6 7 8 11 11 11 14 22 36 41 38 33 30 32 34 35 38 38 39 41 43
78 72 65 67 64 70 61 79 63 60 50 60 68 70 47 47 44 39 20 14 10 7 5 6 8 10 12 13 13 17 22 31 45 49 48 41 37 35 38 41 42 43 44 47
77 68 67 74 63 66 69 74 54 54 60 56 56 68 60 43 61 44 23 14 10 7 5 7 8 12 13 13 13 14 21 25 32 51 59 61 61 54 49 44 44 47 44 45
96 81 69 70 66 68 67 62 51 54 60 72 66 57 68 40 57 40 28 25 13 8 6 7 9 11 14 15 15 14 16 23 29 38 56 65 72 76 78 72 69 67 62 54
96 93 82 77 66 69 62 57 52 64 55 59 58 56 58 38 53 46 37 32 27 8 7 7 9 11 13 16 17 16 17 22 25 32 46 58 71 72 78 81 88 96 88 81
100 95 89 86 65 62 58 47 50 60 58 60 54 59 51 39 56 60 46 60 31 8 7 7 9 11 14 16 16 20 19 20 23 28 34 46 66 76 72 67 66 72 82 85
100 100 85 70 60 59 46 45 58 71 62 48 46 49 50 40 57 81 74 59 42 11 7 6 9 12 16 16 15 18 19 20 20 22 26 36 57 67 73 74 76 74 78 82
100 90 85 72 56 50 57 60 58 58 67 56 55 50 46 41 47 69 87 68 63 26 8 6 9 12 13 16 10 17 20 19 19 19 22 27 39 53 67 76 87 91 86 91
100 99 87 75 68 74 67 51 55 70 61 60 55 46 45 41 66 64 78 81 55 50 8 7 6 11 13 14 14 20 21 20 19 19 20 24 29 39 56 67 76 87 98 98
100 100 99 87 76 70 62 53 52 58 66 66 59 43 50 67 56 56 54 76 99 90 8 7 6 10 14 13 14 18 22 21 20 20 20 20 22 24 30 41 49 67 84 97
100 100 95 85 82 69 58 58 55 60 71 70 51 50 42 48 62 62 43 53 72 57 8 7 6 8 12 14 14 16 20 24 20 20 21 21 20 19 21 25 32 43 64 79
100 100 92 81 78 75 61 58 55 63 69 66 54 48 56 56 68 50 49 71 63 15 7 7 6 7 12 16 17 16 17 21 24 20 19 21 21 22 23 24 26 28 32 45
100 100 96 85 89 79 69 62 59 61 61 60 54 50 43 52 64 60 64 50 57 11 6 6 6 8 11 14 17 18 18 18 20 24 21 18 18 20 21 21 21 22 26 28
100 100 100 100 97 93 84 64 60 57 49 49 46 44 60 66 74 78 42 48 21 7 6 6 6 7 11 16 20 21 20 19 18 20 23 22 20 19 20 20 21 21 20 20
100 100 100 100 100 99 84 68 64 49 41 45 55 54 54 64 71 78 72 22 12 5 5 5 6 6 11 16 20 20 19 18 17 16 17 19 21 21 20 20 20 20 22 22
100 100 100 100 96 89 75 66 56 52 40 47 50 60 56 94 79 75 43 13 6 5 5 5 5 6 10 15 19 19 19 20 20 20 20 19 20 21 21 22 23 24 23 22
100 99 96 94 86 77 72 67 62 46 50 46 52 64 67 79 84 90 18 7 5 5 4 5 5 6 9 15 19 19 19 19 18 18 18 18 19 20 21 21 21 22 22 21

GFSNW_250_rhum_087.txt.gz
RH
100 92 96 86 83 100 96 85 87 72 66 53 40 40 46 55 65 51 18 14 10 8 5 6 4 4 4 6 4 4 5 6 9 11 18 21 24 24 20 21 29 35 37 27
100 100 90 86 78 100 94 89 96 78 59 50 38 36 49 68 73 58 16 13 10 13 6 5 4 4 5 6 7 5 6 8 11 18 25 30 33 32 31 32 31 41 44 39
100 100 91 90 91 100 88 88 82 70 53 48 39 36 43 67 79 60 15 12 10 11 7 5 5 5 5 6 8 6 6 8 16 20 24 33 29 32 43 43 64 67 69 54
100 100 91 99 100 96 85 89 82 68 57 48 40 37 48 61 72 73 24 15 11 10 6 5 5 5 5 6 9 11 7 8 12 16 22 28 29 31 36 43 47 56 64 57
100 99 85 100 98 97 85 83 74 58 52 45 41 42 51 48 62 68 46 13 12 9 6 5 5 5 6 7 10 12 12 9 9 15 18 22 29 35 39 43 50 78 86 83
100 98 88 100 100 100 87 85 70 61 55 49 55 44 42 48 61 69 54 18 12 9 5 5 5 6 6 7 9 12 14 14 11 11 14 24 34 38 52 67 73 76 82 63
100 100 94 100 100 98 81 73 65 63 51 52 50 43 42 42 54 61 62 18 13 9 6 5 6 6 7 8 9 14 16 16 16 12 13 16 22 36 49 62 74 84 81 73
100 100 100 100 100 89 85 67 63 65 51 56 55 48 41 42 51 51 65 22 13 11 7 5 7 6 7 8 10 13 17 18 19 19 15 14 15 24 34 43 52 62 65 58
100 100 99 100 100 95 84 72 65 64 54 58 52 51 49 52 53 59 51 57 17 18 8 5 7 7 7 8 10 14 20 21 21 21 20 21 20 18 20 24 34 40 33 34
100 100 100 100 100 93 82 74 65 71 65 62 46 43 41 44 52 55 56 61 31 19 14 7 6 8 8 9 11 13 19 30 30 26 25 24 24 26 27 25 22 22 23 25
100 100 100 96 94 94 80 75 82 72 71 57 45 39 43 51 46 59 54 57 42 25 15 9 6 8 9 10 13 15 17 25 35 37 33 33 31 32 32 37 36 37 36 34
100 100 100 97 87 84 70 87 87 70 65 57 49 47 46 52 46 66 59 57 57 28 29 14 7 6 9 10 12 15 17 21 32 41 43 42 40 39 38 41 41 42 43 41
100 96 96 98 86 74 80 91 88 83 66 56 57 42 44 54 47 62 62 58 65 49 31 25 9 7 8 10 12 15 16 17 22 34 44 46 48 44 46 43 44 46 51 50
100 99 100 93 79 87 100 79 92 73 68 68 56 45 49 59 44 61 76 53 64 58 41 33 14 8 7 10 11 13 18 18 20 27 35 44 54 58 60 60 55 54 56 54
100 100 98 90 96 99 90 77 88 71 64 63 53 52 46 60 47 51 70 58 56 69 48 36 30 10 8 10 11 13 15 19 19 19 27 38 54 63 77 75 76 85 88 87
100 100 98 98 100 100 78 86 70 77 66 62 60 59 52 55 44 49 58 52 67 63 52 37 18 17 7 8 10 12 13 17 21 23 25 32 47 56 66 70 69 76 92 93
100 99 98 100 100 100 80 74 76 70 68 65 63 59 50 48 59 56 43 53 63 64 52 41 28 17 6 6 6 15 18 19 19 21 22 25 39 54 65 76 76 74 78 84
96 99 100 100 100 88 75 68 66 61 67 69 71 70 60 53 54 57 42 52 58 68 57 38 24 18 7 6 7 17 18 18 19 22 22 23 25 39 54 72 89 87 77 80
100 100 100 100 100 98 80 69 61 69 68 80 82 68 62 52 48 49 54 50 57 69 55 32 23 16 7 5 5 14 16 16 19 21 21 21 23 26 31 41 60 85 86 78
100 100 100 100 100 100 99 55 69 77 72 83 74 69 59 48 52 47 50 53 55 62 49 37 25 15 9 6 5 10 17 17 17 21 21 21 20 20 21 23 28 42 67 85
100 100 100 100 100 95 78 70 72 68 71 77 66 73 57 60 43 58 65 54 61 73 30 34 12 11 8 6 5 7 15 20 19 19 23 23 22 20 19 21 24 28 35 45
100 100 100 100 100 100 84 88 75 62 73 72 54 56 53 58 58 52 68 70 60 41 31 27 10 7 7 6 5 6 10 16 21 21 21 23 24 22 21 19 21 25 26 26
100 100 100 100 100 100 94 79 81 76 77 56 52 55 54 44 57 68 64 70 55 40 24 26 9 6 6 6 5 6 10 15 18 23 25 22 22 22 22 21 20 21 22 22
100 100 100 100 100 85 79 100 92 80 73 63 53 61 51 50 62 71 72 65 54 52 40 16 8 6 5 5 6 5 7 12 16 20 26 29 26 24 22 21 20 20 21 21
100 100 100 100 100 100 100 99 86 86 71 62 67 58 53 60 68 64 73 57 50 41 56 10 7 6 5 5 6 5 6 10 15 18 21 25 28 28 26 22 20 19 19 20
100 100 100 100 100 100 91 97 85 78 79 75 69 58 56 68 59 74 64 52 48 27 38 9 6 6 5 5 5 6 6 9 14 18 20 22 23 25 27 26 23 21 20 20
100 100 100 100 100 99 97 92 93 86 86 77 70 63 66 60 71 72 60 53 48 18 17 8 7 5 5 5 5 5 6 9 13 18 20 20 19 20 21 20 20 21 21 21

GFSNW_250_rhum_090.txt.gz
RH
100 100 100 95 89 82 81 99 82 76 82 90 62 45 30 34 50 52 36 11 9 8 5 4 4 4 5 7 5 4 4 6 7 8 12 24 30 30 25 20 19 23 24 24
100 100 100 94 95 73 90 98 90 79 83 82 59 42 29 35 49 56 45 13 9 8 4 4 3 4 5 6 6 4 5 8 9 10 17 27 28 32 33 30 27 25 26 28
100 100 100 97 88 69 98 85 88 85 89 74 57 43 32 35 64 57 55 29 9 8 6 4 4 5 5 6 8 5 5 9 14 15 16 28 29 30 30 29 30 33 34 26
100 100 100 87 83 69 100 95 89 78 89 73 55 42 34 40 63 55 63 50 12 10 8 5 4 5 6 6 9 9 6 9 13 22 27 32 34 34 36 36 35 38 36 33
100 100 100 84 82 80 100 97 86 82 91 73 48 41 37 44 59 57 73 56 21 14 10 7 5 5 6 7 7 12 9 7 16 19 26 29 32 34 33 38 42 44 40 39
100 100 100 76 75 93 94 99 76 83 80 70 43 44 45 49 56 49 57 65 40 19 16 14 6 6 6 6 7 13 14 10 9 18 23 24 31 35 35 33 35 42 46 37
100 100 91 86 82 98 96 99 81 85 85 63 46 45 42 41 47 43 52 56 60 26 20 18 13 6 7 7 7 9 17 16 12 12 18 26 32 38 39 38 40 45 46 48
100 100 87 84 94 94 100 90 86 79 83 51 50 47 41 36 43 42 46 57 56 64 27 23 25 11 6 8 8 9 11 18 20 15 14 18 26 38 43 49 59 61 58 62
100 100 91 90 95 92 100 88 87 87 73 52 53 49 44 40 45 46 43 54 52 65 63 27 27 27 11 8 9 10 10 16 21 22 19 16 18 28 33 38 47 55 58 54
100 100 95 94 98 98 99 85 81 90 63 57 57 56 46 47 44 48 42 51 52 62 73 53 35 30 29 10 10 10 11 11 17 24 24 23 21 22 26 33 44 39 40 44
100 100 100 92 100 96 93 83 80 80 59 67 65 65 54 52 45 52 43 51 54 67 72 64 44 29 25 24 8 11 13 14 14 18 27 28 27 29 31 32 29 31 40 42
100 100 100 96 97 93 92 75 90 72 63 74 67 64 58 52 50 55 51 46 47 67 78 69 50 28 21 26 11 10 12 15 16 17 25 28 31 29 28 31 35 38 38 36
100 100 100 100 91 98 89 92 85 66 62 66 61 79 63 60 55 53 49 44 48 58 71 67 59 33 25 16 17 8 11 14 17 20 26 30 33 37 36 34 35 34 35 38
100 100 100 100 98 88 98 100 83 62 67 63 70 80 66 65 56 61 55 46 48 48 66 73 57 36 24 17 14 8 10 14 17 19 25 32 35 43 46 43 40 41 43 43
100 100 100 99 89 97 100 88 80 71 71 64 74 85 71 64 57 59 59 51 48 49 62 73 51 32 24 23 13 8 9 13 16 21 23 30 36 43 51 55 55 52 54 56
100 100 100 97 100 100 96 97 96 96 81 74 85 87 75 68 57 62 70 52 49 51 58 73 54 33 25 18 13 7 8 15 17 19 21 26 32 41 47 57 68 70 70 77
99 99 100 100 100 100 93 100 100 100 75 81 72 70 93 76 61 64 70 53 55 57 57 71 60 41 25 18 10 9 7 8 15 17 21 23 24 32 42 52 62 72 80 84
99 100 100 100 100 100 100 100 100 98 95 83 74 80 79 64 71 74 65 57 57 58 56 66 56 44 25 17 8 9 8 7 9 15 17 22 22 24 25 32 42 51 60 70
100 100 100 100 100 100 100 100 100 100 99 69 89 92 70 72 91 89 59 58 57 64 54 59 47 38 30 17 7 7 7 8 8 14 16 18 22 23 22 22 24 33 40 52
100 100 100 100 100 100 100 100 100 100 99 74 74 78 72 82 97 77 56 65 65 72 56 55 52 31 29 16 8 6 6 8 8 10 16 18 20 23 25 23 21 22 28 37
100 100 100 100 100 100 100 100 98 100 100 77 73 77 75 77 75 63 71 64 63 52 56 56 58 23 28 15 7 6 6 7 9 10 13 18 20 21 23 25 27 27 26 27
100 100 100 100 100 99 100 100 100 100 82 66 69 69 74 74 71 74 62 72 72 56 54 55 67 20 30 19 7 6 6 6 7 11 13 16 18 20 21 23 25 26 26 27
100 100 100 100 100 100 100 100 100 95 78 55 73 74 81 70 70 71 56 82 65 62 54 55 70 26 39 30 7 6 6 6 6 7 13 17 19 20 20 22 23 24 25 25
100 100 100 100 100 100 100 100 100 100 78 66 72 82 72 64 81 62 64 71 71 57 54 74 70 34 53 35 7 6 6 6 7 7 8 15 21 20 21 22 24 24 24 23
100 100 100 100 100 100 100 95 88 86 76 88 100 90 87 89 74 73 76 66 61 65 55 67 68 39 38 31 7 6 6 6 6 7 8 10 17 22 23 21 21 22 23 24
96 100 100 100 100 100 100 100 100 90 91 100 96 90 89 80 80 81 78 64 59 65 61 68 69 26 37 53 8 6 6 6 6 6 7 8 13 19 23 25 24 24 23 24
100 100 100 100 100 100 100 100 99 94 100 100 92 84 92 94 91 80 74 62 66 60 71 73 54 27 18 26 7 7 7 6 6 6 6 6 9 14 18 20 22 23 22 22

GFSNW_250_rhum_093.txt.gz
RH
100 100 100 100 100 100 100 77 74 80 83 89 82 76 58 31 33 40 46 46 25 11 8 6 4 4 4 5 6 4 4 5 6 7 8 16 22 23 20 15 15 19 20 21
100 100 100 100 100 100 92 98 77 83 90 91 81 75 51 31 33 39 45 50 39 13 12 8 4 5 5 6 7 6 4 5 7 9 13 18 24 28 26 21 18 20 23 24
100 100 100 100 96 87 93 95 81 84 87 86 78 68 50 32 33 40 44 51 53 30 12 11 5 6 5 6 8 8 5 5 7 14 24 23 25 27 28 24 20 23 22 22
100 100 100 100 93 97 90 96 87 80 81 87 82 67 45 30 34 40 43 48 55 34 14 13 14 8 6 6 9 11 8 6 7 12 27 32 33 35 33 30 24 22 22 20
100 100 100 100 90 88 100 96 94 90 85 89 74 67 43 35 34 43 43 45 47 48 29 16 14 19 13 7 8 12 12 9 8 8 15 18 25 30 32 35 33 29 24 23
100 100 100 100 90 93 100 86 95 90 83 94 76 68 42 39 38 42 44 42 44 48 52 23 17 17 21 10 8 9 15 14 12 10 12 14 16 24 28 34 32 32 30 24
100 100 100 100 79 100 100 86 99 94 78 95 77 63 42 38 42 40 48 42 43 55 59 43 19 18 19 22 9 10 11 18 17 16 13 14 18 22 27 33 37 36 34 34
100 100 100 100 95 99 95 98 100 92 79 84 74 60 40 42 40 40 46 47 45 55 65 56 31 18 21 25 17 11 12 13 20 18 17 21 22 26 30 32 39 42 38 35
100 100 100 99 96 100 100 95 100 88 93 81 84 58 44 47 47 48 45 45 45 51 62 66 58 22 20 23 21 12 11 13 16 22 21 21 25 31 32 38 42 45 41 40
100 100 100 98 100 100 100 95 92 89 97 79 93 56 45 46 48 50 43 47 52 48 61 65 73 38 23 27 27 19 11 12 18 20 22 25 24 26 35 38 52 41 45 51
100 100 100 100 100 97 100 93 90 100 89 78 85 51 52 58 63 60 48 53 52 48 56 65 66 67 25 20 24 21 15 11 14 18 26 30 27 26 25 29 35 33 39 42
100 100 100 100 100 97 99 95 91 100 79 75 76 50 62 66 66 65 48 56 54 46 51 59 63 72 46 18 20 18 15 11 12 16 22 28 34 33 32 30 30 32 33 36
100 100 100 100 100 97 99 98 95 93 78 84 67 54 64 69 66 62 58 64 59 45 42 53 63 66 58 27 15 17 12 12 10 14 18 23 31 42 40 36 39 38 39 37
100 100 100 100 100 99 99 100 99 91 85 85 65 60 65 84 76 70 64 62 53 43 43 48 59 63 63 44 13 17 10 10 9 11 16 20 25 29 37 43 42 39 40 43
100 100 100 100 100 100 100 100 99 94 98 84 60 63 73 87 91 82 76 63 60 48 41 46 53 60 66 53 15 16 14 9 9 10 14 19 23 28 31 40 49 50 46 40
100 100 100 100 100 100 100 94 100 95 98 76 71 68 72 88 72 81 71 69 59 52 39 43 50 58 68 71 22 16 15 8 9 9 11 16 20 23 30 33 43 52 57 58
100 100 100 100 100 100 98 100 99 100 96 90 84 74 73 89 70 71 63 59 55 49 42 46 49 54 62 76 43 20 18 8 7 8 10 14 18 20 22 29 36 46 54 56
99 100 100 100 100 100 100 100 100 100 100 89 83 83 76 65 74 65 57 55 53 64 45 41 48 53 62 74 56 20 19 8 6 7 8 10 14 18 21 22 26 32 40 47
100 100 100 100 100 100 100 100 100 100 100 90 88 84 66 68 68 66 54 56 62 54 50 44 46 51 62 60 61 38 14 13 7 6 6 8 12 18 21 25 25 25 29 39
100 100 100 100 100 100 100 100 100 100 100 100 100 88 79 72 68 72 55 64 80 52 48 54 50 57 61 66 63 45 12 14 6 7 6 7 10 14 18 20 26 29 29 33
100 100 100 100 100 100 100 100 100 100 100 100 95 94 88 62 65 70 81 91 77 63 48 53 49 56 60 63 76 90 35 18 9 6 6 6 7 11 15 19 22 24 27 29
100 100 100 100 100 100 100 100 100 100 100 100 88 94 89 60 64 73 65 75 86 74 56 50 56 53 60 62 75 74 65 34 10 7 6 6 6 8 11 17 21 23 24 26
100 100 100 100 100 100 100 100 100 100 100 100 92 88 80 72 60 79 87 91 100 91 66 56 58 52 63 60 77 58 54 24 12 6 7 7 7 7 8 12 19 22 25 26
100 100 100 100 100 100 100 100 100 100 100 95 89 68 67 63 86 87 97 95 97 84 76 59 61 57 62 66 84 57 48 20 15 6 6 6 7 7 8 9 12 20 23 25
100 100 100 100 100 100 100 100 100 100 98 85 84 77 62 80 99 100 100 93 90 76 73 75 64 59 66 59 82 74 51 22 12 6 6 6 6 6 7 8 10 13 20 22
100 100 100 100 100 100 100 100 100 98 83 91 92 77 67 92 100 100 99 95 74 72 71 68 67 63 74 63 68 83 50 21 11 6 6 6 5 6 6 7 8 11 16 21
100 100 100 100 100 100 100 100 98 94 82 98 90 73 100 100 100 100 79 74 74 66 73 75 73 65 60 70 72 77 44 22 10 6 6 6 5 5 6 6 7 8 12 18

GFSNW_250_rhum_096.txt.gz
RH
61 56 73 100 100 100 100 100 98 90 76 92 81 74 67 57 42 26 30 35 49 35 14 9 10 6 4 4 5 5 4 4 5 5 7 14 19 21 19 15 12 14 12 13
61 60 93 100 100 100 100 95 94 82 89 98 84 74 63 57 38 27 32 43 55 37 17 12 9 7 5 5 5 6 5 5 6 8 10 16 17 24 25 22 16 13 12 13
61 72 98 100 100 100 100 94 90 94 90 99 89 75 66 61 35 28 35 41 48 47 25 14 12 11 11 5 6 7 8 6 6 8 10 13 15 20 26 26 21 16 14 14
79 93 99 100 100 100 98 100 80 98 98 99 91 76 65 61 38 31 37 41 46 49 43 18 15 12 12 13 7 8 10 9 7 7 10 14 18 22 27 26 23 19 16 17
87 100 100 97 100 100 100 98 93 99 95 98 89 84 71 69 40 32 35 38 44 43 52 31 14 15 17 18 16 8 10 12 11 9 13 19 20 27 34 31 27 19 16 17
95 100 100 100 100 96 93 90 98 100 98 100 95 87 73 72 42 36 34 39 38 44 50 51 25 17 15 14 19 17 9 14 14 13 10 14 26 33 34 36 33 28 22 19
96 99 97 100 100 91 97 100 100 100 98 99 87 88 69 75 45 33 31 39 40 43 47 58 44 30 20 17 17 19 17 10 15 17 16 15 17 24 33 37 37 34 31 27
100 100 100 100 100 84 90 100 100 100 100 98 86 84 66 67 43 36 36 41 41 38 42 54 61 60 35 23 17 18 16 15 12 19 20 20 20 20 27 29 34 36 35 32
100 100 100 96 100 86 96 100 100 100 100 99 85 77 70 60 46 40 36 41 44 36 49 54 61 58 56 33 14 17 14 13 13 14 21 26 24 26 26 30 34 37 38 40
100 100 100 100 100 81 99 100 100 93 100 100 91 76 68 59 49 47 49 46 43 40 47 52 53 68 72 53 35 12 16 14 13 10 17 25 25 30 33 36 44 35 36 42
100 100 100 100 100 100 100 100 100 94 100 95 88 76 66 58 47 57 54 51 44 39 43 43 50 60 68 79 47 20 12 12 11 12 12 19 26 28 30 37 40 41 49 50
93 97 100 100 100 100 98 100 97 100 100 95 84 76 62 57 50 50 50 52 51 44 38 40 47 51 63 70 82 42 15 12 9 11 11 12 17 26 32 33 39 40 44 46
85 84 100 100 100 100 100 100 100 98 86 93 84 71 63 63 56 60 58 52 54 38 35 47 43 49 58 65 73 69 24 20 13 7 11 11 14 20 27 34 34 33 30 34
81 87 100 100 100 100 98 100 100 98 91 95 81 68 70 60 63 67 60 54 53 42 42 48 51 60 53 60 71 73 47 20 15 12 8 10 12 16 21 32 40 40 33 30
80 82 99 100 100 100 100 100 100 100 90 93 87 72 76 71 66 73 62 61 49 46 44 47 67 61 53 57 69 69 55 30 12 11 7 8 10 12 16 25 34 45 48 45
86 90 100 100 100 100 100 100 98 97 100 100 83 72 73 78 72 72 62 64 54 50 52 57 66 52 55 50 61 76 59 30 13 12 7 7 8 10 12 17 23 34 46 57
92 99 100 100 100 92 100 100 99 100 100 100 79 79 75 86 95 81 65 66 61 59 50 52 55 61 54 52 57 67 68 63 22 12 8 6 6 8 10 12 17 21 26 36
97 99 100 100 100 100 100 99 100 100 100 94 82 81 81 93 96 98 70 63 60 59 42 52 53 59 53 56 58 69 77 78 61 20 13 7 6 7 8 11 14 20 22 25
100 100 100 100 100 98 99 100 100 100 100 100 95 93 88 93 100 100 79 61 60 52 46 59 55 50 45 52 54 62 74 80 47 46 15 11 6 7 7 8 12 17 22 25
100 100 100 100 100 100 100 100 100 100 100 100 100 100 100 94 100 100 82 64 64 56 50 44 57 45 48 51 49 63 62 70 84 62 20 10 8 6 7 7 9 14 18 22
100 100 100 100 100 100 100 100 100 100 100 100 100 100 100 100 100 100 87 64 63 69 57 53 46 49 58 58 50 56 56 65 78 79 38 14 9 7 7 7 7 10 15 20
100 100 100 100 100 100 100 100 100 100 100 100 100 100 100 100 100 98 84 63 84 73 69 52 54 65 56 52 49 56 59 62 80 81 55 21 9 8 7 7 7 8 10 16
100 100 100 99 100 100 100 100 100 100 100 100 100 100 100 100 100 94 79 81 71 71 64 61 57 59 62 54 52 46 61 67 71 91 56 26 11 8 7 7 7 7 8 12
100 100 98 100 100 100 100 100 100 100 100 100 100 100 100 100 93 94 79 70 74 67 72 66 61 74 54 52 53 49 60 65 71 77 76 27 12 8 7 7 6 6 7 8
100 100 100 100 100 100 100 100 100 100 100 100 100 100 100 90 99 95 79 67 70 66 72 67 62 63 66 65 61 57 61 62 66 82 86 28 12 8 7 7 6 6 6 7
100 100 100 100 100 100 100 100 100 100 100 100 100 100 100 96 97 87 71 64 65 69 78 69 74 71 64 62 63 76 57 66 65 71 89 39 13 8 7 7 6 6 6 6
100 100 100 100 100 100 100 100 100 100 100 100 100 94 90 97 100 85 65 69 80 81 93 77 78 78 74 67 63 79 58 78 61 66 75 54 14 9 7 7 7 6 6 6

GFSNW_250_rhum_099.txt.gz
RH
100 100 100 98 76 69 84 100 100 100 95 84 85 88 75 72 53 48 28 22 37 37 26 10 9 7 7 5 4 4 4 4 4 4 5 6 7 8 9 14 14 13 16 15
100 100 99 78 67 77 100 100 100 100 89 92 91 95 79 71 53 48 27 29 36 41 33 14 13 8 7 8 5 6 6 5 5 5 5 7 8 12 14 18 19 15 16 15
100 100 80 66 70 74 100 100 99 100 97 89 91 89 81 64 50 44 28 32 36 44 47 23 14 10 8 9 10 6 7 7 6 6 6 6 8 12 15 18 20 19 15 13
100 89 64 75 69 81 100 99 100 94 95 99 88 87 79 64 51 49 28 31 39 41 57 44 28 13 10 9 11 12 8 9 10 10 8 9 10 11 17 20 23 21 18 15
99 68 78 74 86 96 92 93 100 94 100 94 95 91 77 68 56 46 30 29 35 41 52 54 46 33 18 13 10 13 13 10 10 13 12 12 13 13 17 25 31 28 23 19
78 64 88 79 98 91 90 98 93 99 100 99 96 88 77 64 60 45 34 32 33 37 46 53 55 53 40 28 20 12 13 14 12 13 16 16 17 18 19 23 27 31 31 27
64 78 82 83 97 82 94 94 100 100 100 100 90 89 75 64 59 49 40 34 34 32 37 49 58 59 56 47 32 25 12 12 14 14 13 17 20 23 24 28 30 32 33 32
67 74 83 91 83 81 100 99 100 100 92 95 94 92 73 65 60 52 42 43 39 33 33 44 52 64 72 63 44 34 23 14 10 14 13 17 20 20 21 27 33 31 37 35
70 84 91 84 77 82 93 100 100 100 91 90 96 86 72 65 62 56 50 48 39 33 33 33 47 55 69 76 72 46 26 20 14 10 13 12 18 23 27 25 30 34 37 37
77 86 93 89 80 99 98 100 100 100 83 88 95 92 76 65 62 56 58 59 47 40 33 29 38 49 58 74 74 66 44 41 20 13 10 12 15 21 27 31 31 29 34 40
77 79 89 79 94 100 100 100 100 95 82 86 89 90 74 70 61 58 55 67 54 47 40 33 33 40 48 63 68 66 67 42 29 15 12 8 12 16 21 27 30 31 36 41
73 79 83 83 100 100 100 97 100 91 80 85 90 81 78 69 57 64 63 63 62 56 47 38 34 33 41 52 59 64 73 49 44 15 12 9 9 13 16 23 26 30 37 44
77 80 79 94 100 100 100 100 100 89 80 84 89 74 72 75 58 59 69 59 66 62 55 48 40 32 40 48 54 62 70 60 55 21 12 10 7 10 12 17 22 30 32 36
87 80 82 100 100 100 100 100 92 89 83 82 88 85 70 75 57 56 68 74 73 70 63 52 43 35 38 44 52 57 64 68 57 36 14 10 7 7 10 12 16 26 33 37
82 78 80 100 100 100 100 90 94 99 85 88 93 84 77 74 59 58 58 74 80 93 73 61 52 44 41 41 48 53 59 69 65 56 28 13 8 6 7 10 12 15 23 32
80 79 88 98 100 95 97 85 93 96 87 90 92 75 71 75 61 63 64 79 89 100 85 66 56 44 40 40 45 51 54 58 63 59 49 15 10 6 7 8 10 12 15 22
87 88 89 78 81 90 92 91 99 100 94 94 85 69 79 80 65 66 75 90 92 100 91 70 56 54 40 38 38 51 56 59 58 65 54 35 12 8 6 7 8 10 12 16
99 92 83 72 73 91 100 100 100 99 96 100 83 79 81 80 65 76 75 77 97 92 87 70 58 59 48 40 35 43 53 61 60 63 69 62 16 9 7 6 7 8 9 12
97 100 88 76 79 83 99 100 100 99 100 100 89 81 84 77 84 92 78 91 100 98 83 72 62 57 46 37 39 45 55 57 55 62 72 70 48 11 7 7 7 7 8 9
99 97 92 93 95 86 93 100 93 99 100 100 91 97 88 84 95 93 93 100 100 100 79 73 63 55 45 41 44 48 47 51 52 68 68 76 70 25 9 7 7 7 7 8
95 94 97 100 100 98 93 95 100 100 100 100 100 100 98 95 96 85 92 98 100 98 86 74 61 62 51 43 44 45 45 52 61 63 64 75 81 79 18 7 7 7 7 8
100 100 100 100 100 100 86 100 100 100 100 100 100 100 100 100 100 92 93 99 95 94 84 79 69 61 52 50 46 43 48 53 68 65 70 80 76 78 32 9 7 7 7 8
100 100 100 100 100 98 100 100 100 100 100 100 100 100 100 100 100 98 95 99 93 94 88 75 71 65 52 53 50 55 56 59 67 64 73 79 83 71 42 16 7 7 7 8
100 100 100 100 100 100 100 100 100 100 100 100 100 100 100 100 100 100 98 96 99 95 92 73 75 64 60 62 73 63 62 60 72 69 65 73 79 92 43 18 8 6 6 7
100 100 100 100 100 100 100 100 100 100 100 100 100 100 100 100 100 95 96 100 98 85 87 82 68 63 63 67 65 65 71 61 67 76 69 65 78 79 60 22 8 6 6 6
100 100 100 100 100 100 100 100 100 100 100 100 100 100 100 100 100 97 94 100 83 67 76 78 75 70 62 67 76 73 81 78 72 79 73 69 86 75 67 24 9 6 6 6
100 100 100 100 100 100 100 100 100 100 100 100 100 100 100 100 100 100 100 87 74 76 80 72 65 62 78 73 78 78 95 73 79 81 74 78 81 90 62 24 11 6 6 6

GFSNW_250_rhum_102.txt.gz
RH
71 100 100 100 100 100 100 100 100 79 76 74 90 89 58 58 64 52 37 24 32 32 27 20 10 9 4 4 6 4 4 4 4 3 3 4 5 6 6 9 18 18 18 20
97 100 100 100 100 100 100 100 87 75 71 81 95 84 60 66 59 47 33 28 29 31 33 30 13 10 9 6 5 7 5 6 4 5 4 4 5 8 8 11 20 19 18 19
100 100 100 100 100 100 100 91 80 75 74 96 97 70 64 68 54 50 35 27 32 34 38 40 27 14 13 10 7 6 9 6 7 6 6 7 6 6 10 13 18 21 19 18
100 100 100 100 100 100 93 73 77 73 91 94 93 71 66 69 53 53 43 30 30 36 45 50 47 23 20 18 15 11 7 10 9 9 7 8 10 8 8 14 17 21 20 16
100 100 100 100 100 100 79 71 75 80 93 95 80 75 70 63 54 52 46 39 30 35 43 55 58 42 35 28 28 15 12 8 8 10 11 9 11 12 15 16 18 20 22 20
100 100 100 100 100 90 72 84 84 86 90 95 74 75 72 67 56 54 48 46 35 33 36 44 55 55 53 50 45 36 22 16 10 8 11 10 11 13 15 16 17 22 28 29
100 100 100 100 100 86 73 100 90 98 95 82 81 77 73 71 58 54 49 45 42 39 34 37 48 56 61 64 61 50 34 21 16 11 9 11 12 14 15 19 22 22 30 30
100 100 100 100 95 87 91 97 99 98 85 84 90 84 77 81 61 56 49 48 45 43 35 37 40 51 62 63 65 66 56 27 19 13 10 9 12 15 18 16 20 26 29 33
100 100 100 98 96 91 91 100 100 97 86 88 91 84 82 88 65 57 50 47 46 46 44 40 36 45 52 57 63 66 64 58 31 19 13 11 9 13 16 21 20 23 31 35
100 100 94 98 86 88 98 100 97 94 83 83 91 83 86 88 74 59 53 48 42 48 54 53 42 36 45 52 58 64 71 66 49 27 18 13 10 10 14 15 21 27 24 31
100 94 88 94 74 91 100 100 99 98 80 81 95 78 88 86 76 61 55 45 45 54 57 60 54 42 38 45 54 60 67 70 71 58 25 13 10 9 9 14 17 23 31 31
98 80 88 84 87 96 100 100 100 88 75 82 89 75 84 74 76 60 55 51 51 56 70 66 53 47 40 43 47 55 60 64 74 75 41 21 10 11 8 8 12 17 26 33
79 75 79 87 96 96 100 100 100 81 80 88 85 77 77 71 72 64 59 56 56 64 69 68 60 56 50 41 40 48 54 61 69 74 67 30 16 8 10 7 9 12 14 21
78 83 77 85 97 99 100 100 97 84 77 96 84 74 76 69 71 64 64 61 58 70 75 73 60 59 49 47 39 43 49 58 68 69 78 62 47 16 9 8 7 8 12 14
89 98 86 84 87 97 100 100 91 80 80 93 90 75 78 77 67 63 66 67 60 63 73 73 67 61 54 51 41 42 41 57 61 68 72 76 60 42 11 8 8 7 8 12
97 94 86 82 89 100 100 99 86 76 82 96 94 78 79 77 64 64 65 63 73 75 65 75 68 64 57 57 51 39 41 51 57 63 68 79 78 60 44 13 8 8 8 8
90 82 81 90 83 93 99 84 84 85 88 92 96 79 70 77 66 63 59 60 88 89 76 79 71 64 64 59 55 44 45 44 55 68 62 67 79 71 70 20 10 8 8 8
85 76 84 90 89 80 76 86 84 88 91 95 91 81 80 76 75 62 58 62 77 72 81 87 69 73 66 61 61 54 46 48 52 62 60 63 77 80 67 59 20 9 7 8
92 77 85 87 78 71 74 83 93 99 100 91 87 83 93 92 85 66 63 58 70 78 80 71 84 81 68 69 62 60 57 53 54 60 64 65 66 86 75 77 28 11 8 7
91 84 88 96 92 83 85 97 100 100 97 93 91 86 99 94 82 67 67 61 72 76 79 81 85 87 79 65 62 61 57 55 53 64 63 67 65 88 74 92 36 18 8 7
91 96 99 100 100 99 91 98 100 97 96 100 98 100 100 96 77 80 77 67 82 98 83 78 80 83 77 66 66 55 63 55 52 56 67 60 62 74 87 85 60 19 12 6
100 100 100 100 100 94 89 93 100 99 99 99 100 100 100 95 84 93 73 85 82 100 88 79 78 83 74 70 69 55 50 52 45 55 70 64 68 70 84 93 81 55 15 8
100 100 100 100 98 89 99 100 100 90 100 100 100 100 100 92 95 92 86 84 89 100 96 76 87 84 74 70 77 58 55 53 51 62 69 75 69 76 82 85 84 87 25 12
100 100 100 100 98 100 100 100 99 100 100 100 100 100 100 100 100 94 84 71 99 84 92 83 88 96 77 77 74 63 57 52 56 67 82 72 80 75 80 81 75 91 82 14
100 100 100 100 100 100 100 100 100 100 98 87 99 100 100 100 98 89 79 95 98 85 100 96 82 76 72 68 76 64 57 60 57 60 78 84 76 73 80 90 84 94 79 26
100 100 100 100 100 100 100 100 100 99 90 98 100 100 100 100 99 85 82 100 83 91 96 91 91 92 82 65 65 67 59 53 57 71 79 90 69 84 84 89 85 100 81 28
100 100 100 100 100 100 100 100 100 100 100 100 100 100 100 100 100 95 100 99 80 94 93 82 91 85 76 65 69 60 62 61 76 72 83 84 76 86 77 83 92 95 80 25

GFSNW_250_rhum_105.txt.gz
RH
8 19 70 100 89 100 100 100 100 100 100 100 97 77 85 60 58 44 44 35 32 29 29 29 13 7 8 5 4 4 4 4 3 3 3 3 4 6 7 10 15 20 36 43
11 35 78 100 100 100 100 100 100 100 100 100 81 88 84 63 51 47 47 36 35 32 36 39 31 9 7 8 7 6 6 6 5 4 4 4 5 6 6 8 17 20 26 37
34 86 100 96 100 100 100 100 100 100 100 91 84 91 67 67 49 48 44 39 38 33 34 39 40 23 10 9 9 8 7 7 7 7 5 5 5 7 9 13 25 25 25 29
63 100 100 100 100 100 100 100 100 100 99 80 96 82 70 61 52 49 46 45 39 38 39 42 45 33 17 12 10 10 10 8 8 8 9 6 6 6 9 10 18 23 23 25
69 87 100 100 100 100 100 100 100 100 84 97 92 75 73 61 54 50 45 46 37 38 40 44 48 45 33 27 22 16 13 11 10 9 10 11 8 9 8 10 12 22 30 26
88 98 100 100 100 100 100 100 100 93 86 97 92 77 72 62 56 52 46 44 37 36 42 47 46 53 51 49 46 36 26 17 13 12 11 11 14 12 10 11 12 16 26 30
87 100 100 100 100 100 100 100 99 82 98 100 84 81 73 69 58 56 51 41 41 39 44 46 44 50 53 62 68 60 46 30 18 13 9 10 10 15 15 14 16 17 20 26
86 98 100 100 100 100 100 100 99 90 100 94 85 77 76 74 66 61 54 45 41 40 46 46 41 42 47 59 65 71 65 56 35 23 13 10 8 10 14 18 17 17 20 25
94 100 95 100 100 100 100 100 100 99 100 81 84 77 80 72 70 67 55 47 38 42 45 49 46 44 42 48 55 63 66 70 66 39 29 15 8 8 9 13 18 19 21 21
100 100 100 98 99 100 100 100 100 100 90 84 87 81 77 73 74 68 56 51 43 40 46 47 48 48 43 44 45 57 63 76 82 68 42 28 16 11 7 8 11 16 20 22
100 100 100 100 97 100 100 100 100 100 75 88 89 86 76 71 75 62 58 50 47 39 45 44 50 45 49 44 46 50 56 68 82 88 74 53 22 14 8 7 7 8 13 20
100 100 100 100 100 95 100 100 100 98 78 86 94 88 81 72 69 67 61 52 51 44 44 44 47 51 49 54 52 46 53 61 74 81 87 64 37 24 15 10 7 7 7 11
100 100 100 100 98 100 100 100 100 94 74 80 95 90 80 72 68 66 59 53 50 47 45 47 51 56 56 58 61 49 50 52 63 70 81 86 57 34 27 21 10 7 7 7
100 100 100 89 99 100 100 100 98 77 69 91 98 92 87 69 63 63 65 57 52 47 46 50 51 62 64 66 65 58 49 52 55 63 72 76 88 78 40 32 21 12 8 7
100 100 100 91 100 100 100 100 96 79 82 86 94 89 87 76 59 61 66 61 53 49 48 52 51 60 78 66 66 65 52 47 47 57 67 68 78 95 77 79 51 18 11 8
100 100 89 96 100 100 100 100 93 91 92 80 91 86 85 83 64 62 63 66 57 51 44 53 55 61 61 65 71 57 56 42 45 52 61 67 77 79 84 82 73 64 16 10
100 100 83 100 100 99 94 86 83 86 76 79 88 84 84 85 73 69 65 70 63 54 48 50 52 62 62 60 69 58 64 53 46 48 53 64 68 78 82 79 78 77 63 16
100 89 84 100 96 98 82 86 92 90 76 74 84 84 80 83 81 76 75 77 66 55 50 49 54 61 63 58 68 61 62 52 47 51 48 63 64 70 72 76 87 90 79 81
100 82 90 100 98 99 84 80 90 91 81 78 84 88 82 85 86 78 74 67 66 57 55 57 55 61 65 66 72 61 62 59 53 50 50 62 64 63 62 79 86 89 76 93
99 83 80 100 94 98 82 79 81 92 87 85 91 92 78 78 84 77 69 68 68 61 64 64 59 65 74 71 65 69 70 58 60 58 46 54 61 50 68 79 85 78 80 76
97 76 92 100 100 94 75 67 83 88 94 91 92 92 83 83 84 74 75 76 69 62 67 69 59 62 70 72 69 72 72 63 60 59 48 46 59 66 74 73 90 80 94 63
99 85 92 100 100 93 83 93 98 100 100 89 100 95 95 87 82 78 81 76 80 71 67 70 65 69 73 79 84 74 71 66 69 62 54 50 56 70 67 72 93 80 88 88
97 91 99 100 97 98 100 100 100 100 99 100 100 100 100 100 90 89 77 71 85 77 71 72 70 82 76 80 90 80 75 76 70 67 52 47 66 84 66 89 97 88 93 95
98 97 98 94 100 100 100 100 100 100 100 100 100 96 95 95 93 90 74 76 99 88 73 73 80 85 72 85 90 82 80 83 78 73 61 48 54 70 65 85 94 88 88 100
100 100 89 88 100 100 100 100 100 100 100 100 95 85 84 90 91 94 81 86 100 95 70 81 93 90 85 86 81 80 80 88 81 77 64 47 46 69 68 91 94 92 85 97
100 100 95 94 100 100 100 100 100 100 100 100 100 83 88 88 92 95 82 91 100 88 78 89 96 90 87 81 83 84 81 89 79 66 60 54 58 71 72 89 89 95 83 95
100 100 96 100 100 100 100 100 100 100 100 100 100 79 88 97 99 90 94 99 100 81 91 93 90 90 83 76 78 92 83 78 77 70 60 60 59 71 69 100 79 97 90 94

GFSNW_250_rhum_108.txt.gz
RH
6 6 9 10 35 56 85 100 100 100 100 99 100 100 81 86 74 50 50 37 33 33 38 34 17 11 9 6 4 4 4 4 3 3 4 5 7 10 11 13 14 14 25 43
7 8 9 21 57 98 100 100 100 100 100 100 100 93 93 79 63 49 49 37 33 36 44 42 35 14 9 11 8 6 5 5 5 4 4 5 5 7 12 12 20 24 30 43
8 9 12 26 50 100 98 91 100 100 100 100 98 94 92 78 52 44 48 42 33 35 41 43 45 29 11 11 12 10 8 7 7 6 5 5 5 7 10 16 21 30 42 52
11 15 48 66 93 100 86 100 100 100 100 100 91 97 85 70 48 44 48 47 37 35 39 45 49 40 21 15 12 13 12 8 7 7 8 6 5 5 9 16 31 31 38 58
10 20 42 65 100 100 92 100 100 100 100 93 100 85 84 63 47 44 48 49 43 37 38 43 47 49 39 32 20 16 15 14 8 6 7 10 8 6 7 13 22 30 42 54
15 34 55 69 87 85 100 100 100 100 94 98 96 84 80 59 48 48 52 50 45 39 43 43 44 53 55 48 45 30 24 18 15 13 8 8 10 11 8 9 12 16 28 42
36 60 84 88 71 100 100 100 100 97 92 100 88 86 78 58 53 55 57 48 46 39 42 41 39 52 58 64 54 49 41 34 21 18 15 11 9 10 13 13 10 11 14 22
44 81 82 75 83 100 100 100 100 93 98 96 86 81 77 63 63 61 55 47 46 43 41 43 42 50 52 58 68 62 59 52 41 27 18 15 10 8 10 13 16 17 17 17
53 75 58 71 84 100 100 100 92 93 98 95 79 81 77 64 66 60 52 45 48 43 44 44 44 44 51 51 66 71 75 71 63 49 29 24 16 13 8 9 12 17 19 21
88 80 70 74 92 100 100 100 93 94 99 89 78 83 74 70 67 58 52 46 46 46 44 45 42 46 49 50 51 63 76 82 79 70 64 45 28 20 17 10 9 9 14 19
74 73 78 80 96 100 100 100 100 97 100 79 79 80 75 70 63 60 52 49 46 48 43 43 45 45 56 48 48 54 59 70 73 78 73 85 55 41 23 25 13 8 9 11
69 77 91 84 93 100 100 100 100 100 91 77 81 84 81 73 58 61 54 51 46 46 44 43 47 48 45 47 55 56 51 56 61 68 76 80 80 60 44 41 26 17 11 8
73 85 96 91 98 100 100 100 100 100 86 78 88 88 89 73 66 59 54 54 49 49 44 44 48 52 54 51 51 56 54 54 51 56 67 67 71 80 55 49 45 29 29 12
78 90 82 100 99 97 100 100 99 99 81 77 93 97 97 79 68 59 60 58 53 54 50 44 48 50 52 51 53 51 60 59 54 49 56 72 73 72 75 66 64 49 41 26
80 84 82 100 100 100 100 100 100 95 86 83 100 100 96 87 76 62 57 56 54 54 54 48 47 50 52 58 58 57 58 61 50 51 50 65 69 72 70 69 67 59 76 53
73 86 82 99 100 100 100 100 100 91 87 81 99 98 100 94 80 79 58 58 59 59 58 51 52 52 54 61 62 64 64 66 64 58 51 50 58 69 66 68 71 74 66 80
83 80 85 100 100 100 99 100 97 87 93 84 87 96 100 96 84 80 64 65 66 60 57 54 54 56 57 57 64 62 60 61 66 64 51 47 52 69 76 71 80 66 78 75
95 81 99 100 100 100 100 100 100 86 98 94 94 96 97 99 88 78 71 75 66 58 54 57 58 58 59 58 62 63 60 66 72 71 64 52 56 54 72 76 75 81 79 62
88 88 100 100 100 100 100 100 100 96 100 88 88 86 86 91 85 77 79 79 65 65 59 60 65 60 62 56 58 63 60 66 69 75 71 78 54 52 64 86 75 80 84 78
81 92 97 100 100 100 100 100 100 100 93 83 77 79 88 89 82 81 82 75 68 67 66 63 70 66 65 60 60 66 64 61 70 73 70 69 60 55 62 81 89 86 82 88
73 87 95 100 100 100 97 100 100 100 95 82 80 89 93 92 83 77 81 76 70 65 62 67 76 76 63 60 58 61 65 60 66 75 78 72 63 60 69 72 95 82 88 92
96 89 99 100 100 99 98 100 100 100 93 86 84 92 99 95 93 89 84 77 75 71 64 70 80 93 63 58 62 66 62 66 63 75 78 80 71 66 59 78 82 76 98 90
98 92 92 100 100 100 100 100 100 100 85 87 100 100 100 100 97 91 86 85 80 79 73 77 79 92 67 56 68 68 64 66 65 77 73 76 74 68 62 73 76 86 100 100
96 98 100 100 100 100 100 100 100 96 95 100 100 100 100 96 94 89 88 88 88 91 92 76 70 73 69 61 76 71 59 64 65 76 74 79 64 67 65 68 76 91 92 100
100 100 98 99 100 100 100 100 100 100 100 100 100 100 98 96 96 100 94 87 90 98 95 78 67 78 73 64 70 69 61 67 66 76 78 71 65 72 71 74 89 97 100 100
100 100 99 94 100 100 100 100 100 100 100 100 100 100 100 100 100 100 93 81 88 100 86 73 72 76 73 70 74 68 63 64 75 84 74 72 61 72 73 74 86 89 98 100
100 100 100 100 100 100 100 100 100 100 100 100 100 100 100 100 100 96 94 91 94 92 84 86 75 70 70 71 75 73 62 67 75 83 76 73 66 71 87 74 79 97 97 100

GFSNW_250_rhum_111.txt.gz
RH
3 3 4 7 10 15 26 24 91 100 100 100 100 100 100 100 85 53 41 39 36 37 34 23 12 12 9 6 3 3 3 4 3 3 4 4 7 8 11 16 22 23 48 49
3 4 7 9 12 14 19 50 100 100 100 100 100 100 100 91 64 44 42 39 40 41 44 33 22 12 10 9 6 4 4 5 4 3 3 5 5 10 12 17 16 28 33 45
5 6 9 12 13 17 35 89 100 100 100 100 100 100 100 78 46 44 46 43 42 44 50 40 34 16 10 10 12 8 6 5 6 6 5 5 6 9 16 17 17 20 27 46
6 9 11 12 14 26 68 100 99 100 100 100 100 100 86 62 44 48 45 47 43 46 48 57 51 28 16 12 14 14 12 9 6 6 7 5 6 9 11 16 20 25 29 38
8 11 12 16 30 72 100 93 97 100 100 100 100 96 78 51 47 52 48 48 46 44 45 62 72 44 39 19 22 21 16 16 12 7 6 9 7 7 9 9 13 26 35 41
9 9 9 14 63 95 92 95 100 100 100 100 100 83 65 50 49 48 48 47 47 45 47 52 58 60 61 41 37 34 29 22 16 14 11 7 9 10 8 8 10 15 27 40
11 11 28 62 80 80 90 100 100 100 100 100 98 76 60 52 53 51 46 48 49 44 51 48 56 61 66 62 61 63 47 36 30 19 18 17 8 8 12 11 10 10 13 19
10 16 50 79 76 78 94 100 100 100 100 100 92 69 60 60 51 47 46 49 45 43 48 45 48 51 56 57 64 65 66 61 48 34 29 25 16 12 8 9 15 16 15 15
20 33 68 68 74 88 100 100 100 100 100 100 82 70 66 59 52 49 49 50 48 46 43 44 45 47 52 51 54 67 71 73 68 55 44 40 29 25 19 14 10 8 13 16
24 45 70 82 87 98 100 100 100 100 100 90 81 72 69 57 50 50 51 47 48 47 46 44 46 46 52 48 50 61 76 71 68 62 62 46 44 34 28 26 22 16 10 10
49 69 86 82 90 100 100 100 100 100 97 84 78 72 71 56 52 53 49 49 45 48 49 46 46 50 47 52 51 52 53 55 66 69 63 69 56 45 42 30 29 28 25 14
52 71 68 80 91 100 100 100 100 98 98 80 86 79 74 60 54 55 51 51 49 49 48 49 48 44 51 58 54 56 53 54 55 70 68 72 65 56 52 51 44 36 31 26
75 75 63 85 99 100 100 100 100 93 100 85 92 79 77 69 59 55 54 50 48 50 50 51 50 50 48 58 61 57 57 57 53 59 67 67 70 68 78 69 67 63 52 33
79 67 76 85 100 100 100 100 100 100 100 87 83 88 83 79 70 60 53 51 50 48 48 51 52 51 51 48 54 56 62 61 56 60 59 77 71 74 71 61 70 57 61 74
78 78 86 90 86 100 100 100 100 100 100 100 95 96 84 87 79 70 58 52 53 53 48 53 56 51 48 54 54 59 57 54 61 59 56 64 70 75 74 88 80 81 61 67
73 82 91 93 94 100 100 99 100 100 100 100 100 100 94 86 82 72 62 55 56 55 53 53 56 54 55 51 58 50 54 58 57 62 60 60 60 68 69 73 76 86 90 83
67 93 97 99 100 100 99 94 93 95 100 100 100 99 98 96 86 74 69 58 56 56 57 57 55 58 55 51 54 51 50 56 59 59 64 62 63 60 74 68 88 85 85 70
57 87 87 99 100 100 99 93 92 96 100 100 100 99 100 100 96 89 81 71 66 60 60 57 58 54 55 50 51 54 54 49 56 61 60 61 62 61 69 76 81 88 95 77
69 88 86 99 100 100 100 99 98 99 100 97 96 100 100 100 100 100 96 83 75 61 61 62 61 57 59 52 49 49 51 55 53 60 61 56 62 64 64 72 76 96 84 98
73 80 99 95 100 100 99 100 91 95 100 94 94 100 100 98 98 98 97 89 79 76 63 63 63 63 59 54 54 57 49 55 56 54 58 60 69 69 64 66 82 89 92 95
81 81 90 100 100 100 100 100 100 99 92 94 91 91 96 91 91 94 98 91 83 79 70 69 70 69 73 57 53 60 54 53 58 54 54 63 65 69 73 71 76 90 96 99
86 75 90 97 100 100 100 100 100 100 100 100 94 97 93 88 87 96 99 99 96 86 76 80 78 82 77 66 59 55 58 56 53 54 56 64 64 68 68 72 78 84 85 99
93 71 75 95 96 100 100 100 100 100 100 87 88 99 96 91 100 100 98 99 97 88 83 84 87 89 77 76 64 56 62 54 54 59 58 61 66 67 65 79 84 82 92 98
98 81 70 82 91 100 100 100 100 100 88 94 96 99 100 100 100 99 97 97 98 92 96 84 95 88 86 84 65 58 57 62 57 60 58 60 60 64 68 72 82 86 85 99
100 91 81 91 99 100 100 100 100 100 94 100 100 100 99 100 100 100 97 95 94 95 96 97 92 81 80 83 71 67 65 58 56 64 60 62 67 66 67 72 85 88 93 100
96 88 98 100 100 100 100 100 100 100 100 100 100 100 100 100 100 100 96 90 90 87 84 85 82 74 74 85 76 67 66 58 66 66 61 67 69 67 70 78 90 78 90 93
93 91 95 100 100 100 100 100 100 100 100 100 100 100 100 98 100 96 97 100 99 96 87 79 72 74 85 80 73 68 63 60 66 72 64 66 69 69 67 82 98 89 94 97

GFSNW_250_rhum_114.txt.gz
RH
2 2 3 5 7 10 17 20 48 70 100 97 100 100 100 100 96 68 44 32 26 16 14 12 13 12 5 3 2 2 3 3 2 2 3 4 7 8 15 20 17 18 21 34
2 3 4 6 9 14 25 44 67 95 89 98 100 100 100 99 66 46 36 35 32 22 18 14 13 14 8 5 4 3 3 4 4 3 3 5 8 12 20 25 25 28 31 40
3 4 5 7 11 14 35 60 79 89 91 100 100 100 100 70 48 40 38 41 41 34 25 17 14 12 14 11 9 7 4 4 5 4 3 5 8 16 22 24 30 30 41 47
4 5 8 10 10 20 41 71 75 95 100 100 100 100 78 51 44 40 42 45 44 40 34 28 22 15 12 13 15 10 10 6 4 6 4 4 6 11 19 30 31 34 45 51
4 8 10 10 13 22 47 60 83 100 100 100 100 96 52 49 43 43 44 46 45 43 42 40 31 23 23 14 14 18 17 18 12 5 7 8 6 8 13 16 23 26 31 39
5 8 10 14 20 37 57 70 91 100 100 100 100 74 53 45 42 43 43 49 48 45 45 49 42 35 31 27 22 16 17 22 21 19 11 7 10 10 9 11 22 25 39 53
9 12 15 18 27 42 66 80 100 100 100 100 96 58 48 43 44 44 45 48 49 45 47 54 52 46 50 44 35 31 29 24 24 26 26 21 12 12 15 13 22 33 43 51
11 15 20 32 51 75 72 97 100 98 100 100 83 58 46 43 47 44 44 46 49 48 46 48 49 50 59 65 51 40 38 34 32 21 22 25 25 24 18 12 20 29 38 49
11 13 23 51 73 82 82 100 100 100 99 97 78 64 46 48 48 46 47 47 48 50 50 47 47 47 56 65 58 61 59 58 48 40 33 39 32 27 27 23 18 11 14 22
13 23 47 66 82 85 94 100 100 98 94 94 79 64 49 47 48 47 48 49 52 52 54 54 52 49 49 52 56 70 65 68 67 52 52 50 39 37 29 29 26 22 23 19
33 55 66 72 79 88 97 100 100 94 91 97 76 64 54 47 50 49 47 49 49 51 49 51 54 57 57 51 52 59 69 66 68 78 58 52 52 45 46 44 32 32 29 24
62 71 68 68 77 99 100 100 100 92 91 94 77 66 56 50 52 50 49 48 48 49 50 51 51 57 49 58 50 50 48 60 70 65 65 59 58 51 47 48 45 42 31 30
87 80 65 62 79 93 100 100 100 92 97 100 78 64 66 58 54 51 47 49 50 49 48 47 48 53 51 55 51 49 51 55 55 63 67 65 66 65 56 47 47 48 49 49
96 83 68 62 79 95 100 100 100 98 100 99 81 76 73 69 58 54 50 50 48 50 50 48 47 51 53 51 50 46 50 53 53 52 58 70 74 80 75 76 60 50 51 55
93 91 65 67 77 99 100 100 98 99 100 100 98 91 87 85 75 58 49 51 48 52 51 50 49 48 52 49 48 47 50 52 50 50 52 61 61 71 90 93 73 72 65 67
82 88 67 74 85 99 100 100 100 100 97 100 98 98 95 86 76 72 55 54 52 52 53 53 54 47 48 47 53 53 49 48 51 54 53 54 63 68 72 76 96 91 96 70
88 84 72 80 83 100 100 100 100 100 100 100 100 98 92 88 81 73 68 62 59 59 55 55 56 52 51 50 48 47 52 54 52 53 52 56 58 61 66 81 87 92 97 93
90 86 77 90 98 100 94 100 100 100 97 100 100 92 91 91 86 81 78 80 72 70 62 59 59 58 58 61 56 50 52 53 54 51 52 55 56 58 67 76 82 96 95 89
94 92 91 97 100 100 96 96 100 100 100 100 100 100 100 97 93 96 96 96 88 78 73 67 62 60 64 61 63 62 55 52 51 52 50 55 59 65 66 72 86 79 87 97
96 97 99 94 98 100 100 100 100 100 100 100 100 100 100 98 99 97 100 99 99 88 83 77 66 67 68 65 69 68 69 59 56 54 52 54 58 66 67 74 82 85 79 92
91 100 100 96 100 100 99 100 100 99 97 98 100 98 100 100 100 98 96 100 100 98 91 86 83 75 73 80 81 77 81 70 62 58 55 54 59 65 66 78 83 83 94 92
93 100 99 96 96 100 100 95 100 100 97 98 98 100 99 100 100 97 94 98 98 100 100 96 93 83 78 79 90 85 78 78 68 60 59 59 58 63 70 71 81 79 94 82
89 98 100 97 94 95 100 100 100 98 96 98 91 91 97 95 93 95 96 96 92 92 95 90 89 85 81 80 95 84 74 75 73 62 62 63 60 64 70 72 73 76 80 96
84 85 97 100 98 100 100 100 100 100 100 95 87 86 83 85 91 100 99 94 93 93 90 86 86 81 74 80 83 77 77 74 80 68 67 66 66 70 73 76 74 77 77 85
83 74 84 100 100 100 100 100 100 100 100 100 100 92 89 94 92 95 100 100 100 98 94 92 91 87 71 68 73 68 72 84 84 77 72 66 69 69 69 73 73 78 76 86
84 66 74 100 100 100 100 96 97 100 100 100 99 100 98 85 92 100 99 92 99 99 96 100 100 98 83 67 67 68 84 99 88 81 74 68 70 71 68 68 70 77 82 93
62 78 81 81 99 100 100 100 100 95 85 99 100 100 96 100 100 100 92 97 100 98 100 100 100 93 84 80 85 89 100 95 86 81 74 66 72 76 65 65 67 78 85 96

GFSNW_250_rhum_117.txt.gz
RH
2 2 2 4 6 6 11 30 39 81 88 100 100 100 100 93 82 68 37 19 16 16 15 14 9 5 3 2 2 2 3 2 2 3 5 6 6 8 11 13 12 11 7 5
2 2 4 5 6 10 18 45 78 81 89 100 100 99 82 61 52 42 25 20 18 14 14 14 12 7 5 3 3 3 4 3 3 4 5 6 6 12 20 19 20 17 13 13
2 3 5 5 7 15 42 62 72 82 95 98 99 76 57 50 41 32 27 26 24 16 13 14 12 16 8 5 4 3 4 3 3 3 5 6 8 20 29 30 26 23 25 23
3 4 5 7 12 21 33 59 77 82 90 100 78 62 52 44 38 37 35 32 29 22 16 14 14 15 17 12 11 7 4 5 4 4 4 5 11 21 26 36 30 26 31 34
4 6 6 10 15 24 44 67 73 84 100 82 64 56 48 42 41 42 42 39 37 34 27 20 18 15 14 16 16 14 9 6 5 6 4 4 8 23 25 33 42 37 33 43
6 7 9 11 16 29 58 69 74 92 90 65 58 54 47 43 42 45 47 46 43 42 38 28 25 20 17 17 16 18 18 14 12 8 7 6 7 11 22 28 32 38 42 50
10 10 10 13 24 41 49 64 86 94 68 62 54 48 45 45 44 46 47 46 47 48 48 42 35 30 23 23 21 18 18 19 22 20 18 9 7 7 13 17 25 32 44 49
14 14 14 23 36 43 57 76 96 85 60 54 51 48 45 46 47 48 50 47 53 52 50 51 45 44 36 37 33 27 24 23 22 21 24 23 21 14 9 13 49 58 62 80
16 22 29 52 49 48 72 86 91 70 60 57 52 48 46 50 49 52 53 55 55 55 52 54 49 52 55 52 45 40 43 35 33 29 29 27 27 28 26 37 28 52 94 100
21 31 48 59 46 63 81 93 90 64 62 52 51 47 47 50 51 54 52 52 56 57 52 50 48 45 57 60 61 54 52 57 51 41 33 35 30 32 34 36 37 32 25 19
30 53 68 58 51 67 84 95 85 63 69 54 52 51 50 49 48 50 52 52 54 53 53 47 48 44 48 50 61 63 62 64 67 68 57 45 40 32 34 39 32 36 34 33
54 66 74 63 55 76 93 93 89 74 75 54 52 49 52 50 48 50 51 52 54 55 50 47 46 45 45 47 50 54 61 63 68 80 81 68 51 44 42 42 37 33 33 37
65 70 72 71 64 86 94 88 85 82 79 65 58 55 53 54 51 50 49 49 51 51 48 51 48 47 48 49 52 50 52 52 58 63 76 84 88 74 67 64 46 39 44 42
73 80 80 72 65 81 90 80 90 98 85 73 66 67 60 56 54 53 51 51 51 49 52 50 50 51 51 50 52 54 55 53 55 55 61 73 72 66 90 78 64 56 40 44
83 84 85 70 55 85 80 80 96 98 90 82 77 69 68 67 59 58 57 51 52 51 46 47 49 47 47 50 49 47 51 53 56 55 59 61 70 75 75 78 76 74 58 56
88 82 79 74 69 81 86 82 99 100 93 89 88 90 84 74 65 61 60 57 54 54 54 53 50 52 52 52 53 49 46 47 52 54 58 64 66 67 68 72 67 55 52 71
99 89 80 75 75 71 96 86 97 100 97 94 92 96 89 80 71 64 60 59 58 57 57 59 59 57 59 59 58 63 58 51 54 57 55 60 66 70 71 68 76 84 61 78
100 100 93 78 73 73 86 99 97 100 98 94 94 96 97 89 85 79 74 72 70 71 68 66 68 62 61 62 65 70 75 72 63 62 61 56 57 68 77 78 73 78 83 72
100 100 100 98 72 74 78 99 100 100 100 100 95 93 99 96 90 89 85 82 84 84 81 78 81 73 67 67 71 72 72 85 76 64 68 63 62 62 69 77 83 81 74 84
100 100 100 100 95 78 80 88 93 99 100 100 100 98 94 100 100 97 92 93 95 96 93 85 87 82 79 73 72 73 76 76 80 66 69 73 70 69 71 70 69 78 78 83
93 100 100 100 100 84 86 86 82 98 99 100 100 98 99 99 100 97 96 96 97 99 100 96 88 88 86 86 79 76 76 87 84 69 71 74 80 74 76 73 68 67 77 84
44 92 99 100 100 99 80 85 88 91 98 100 100 95 100 99 95 95 92 96 99 100 96 98 97 87 84 86 85 80 88 91 85 72 64 76 86 78 72 78 73 70 70 72
39 58 99 100 100 100 99 79 88 97 100 93 100 96 93 98 96 96 93 91 95 96 95 94 89 86 85 82 79 77 81 80 79 70 65 79 84 82 72 70 66 65 67 72
16 46 72 99 100 100 100 100 99 99 96 88 96 100 96 96 90 90 93 90 92 96 88 87 85 86 88 93 85 74 77 75 70 73 75 88 86 81 76 68 56 60 62 71
11 22 48 75 100 100 100 100 100 92 86 88 88 93 96 91 92 92 90 87 94 89 94 92 89 91 100 99 86 78 69 74 74 81 90 96 85 77 72 65 56 58 60 64
12 9 30 93 100 100 100 100 100 100 93 80 74 74 81 84 86 86 80 96 98 91 99 88 92 100 100 100 98 92 96 94 94 96 91 90 78 76 69 63 60 57 61 65
10 10 24 58 100 100 100 100 100 100 100 100 99 85 83 84 76 85 87 99 88 100 99 92 100 100 100 100 100 100 100 100 100 90 88 84 78 73 66 62 60 59 59 68

GFSNW_250_rhum_120.txt.gz
RH
2 2 3 3 5 8 18 59 97 100 100 73 78 66 60 69 32 26 24 23 21 14 9 6 4 3 2 2 3 3 3 2 2 3 5 8 7 8 12 9 6 6 6 6
2 3 4 5 7 14 40 88 86 79 82 80 77 73 46 32 26 22 22 23 20 15 10 7 5 4 3 2 3 3 3 3 3 4 6 8 6 17 22 15 10 8 9 8
2 4 5 6 12 29 50 56 79 76 84 78 63 38 33 29 26 25 22 18 16 16 13 10 8 6 5 4 3 4 3 4 5 6 6 7 16 23 26 23 12 10 16 13
4 5 6 7 14 31 40 61 83 80 79 56 38 36 35 31 32 25 21 17 17 16 17 17 13 12 9 7 5 4 4 4 4 6 5 6 16 25 34 29 22 15 14 19
5 7 8 10 19 32 53 68 76 72 51 39 37 39 40 36 34 29 24 20 19 19 18 16 18 17 16 12 10 6 4 5 4 7 7 7 14 26 45 44 40 26 14 25
6 7 10 13 26 44 67 71 69 47 41 39 39 40 41 43 39 36 35 29 25 23 21 19 18 19 21 21 19 16 12 6 6 6 6 9 13 19 41 59 60 38 30 16
9 10 13 31 48 60 79 74 49 43 41 41 42 43 44 46 44 40 41 39 35 31 28 27 23 20 20 22 23 21 20 17 10 7 6 6 11 15 21 42 61 50 58 48
13 22 40 56 58 84 84 53 45 44 45 43 45 47 48 50 48 48 44 47 42 41 36 36 36 29 26 23 23 23 21 21 23 20 15 11 11 13 15 38 74 64 57 55
19 41 51 65 86 94 61 48 46 45 47 48 50 52 49 50 51 52 49 53 52 49 44 44 40 40 40 37 30 29 27 22 23 23 21 20 17 16 32 26 18 38 66 56
34 45 61 72 84 75 54 47 45 46 50 54 54 55 54 50 50 50 50 50 48 52 51 48 47 47 50 52 48 46 39 37 32 26 24 24 25 26 32 35 29 23 20 17
56 52 63 80 96 68 57 49 47 48 50 52 54 56 56 52 52 49 48 49 45 45 48 49 51 51 52 56 59 62 56 54 47 42 39 38 34 33 31 31 29 31 33 29
60 55 61 81 98 68 64 56 50 49 51 50 51 50 51 52 52 52 47 46 45 46 48 47 49 51 52 54 55 59 72 70 68 59 53 53 49 43 42 35 34 32 29 29
74 65 65 85 97 80 66 68 55 52 54 56 54 50 50 52 49 50 49 48 49 49 47 45 45 48 51 49 51 56 62 72 75 80 80 58 56 50 48 45 43 42 36 35
91 79 76 89 99 90 79 73 74 56 54 59 62 58 53 54 52 50 49 50 50 49 48 46 46 45 44 46 49 48 53 60 69 77 76 78 79 66 53 53 57 58 62 58
98 97 82 74 95 97 89 97 89 78 69 65 66 62 58 57 58 51 51 49 48 52 54 54 53 54 54 54 55 54 56 58 57 59 68 75 72 83 86 78 65 69 61 56
87 99 95 89 75 88 87 94 100 91 87 88 77 70 68 63 65 63 58 55 54 55 60 62 60 58 59 56 54 59 62 61 64 64 63 67 71 69 66 77 79 85 61 71
100 96 100 99 86 72 67 78 90 99 96 97 99 84 78 77 71 65 65 61 62 67 65 64 69 66 66 62 62 66 65 67 67 64 61 70 77 78 72 64 68 76 81 82
72 100 100 100 100 88 80 62 77 93 94 89 97 100 98 88 81 77 72 69 63 65 69 74 74 76 73 69 71 74 76 75 70 74 67 58 70 83 77 70 68 64 67 70
46 64 100 100 100 100 96 86 68 76 92 89 89 98 100 99 98 98 92 89 84 82 82 84 82 82 84 87 83 81 76 78 78 76 82 71 65 80 81 72 62 58 60 60
83 50 55 88 100 100 100 100 86 74 86 100 93 100 97 94 98 98 95 91 90 88 88 92 88 86 88 86 88 93 90 87 83 91 86 76 66 82 81 77 72 63 56 56
74 89 82 51 59 92 100 100 100 92 82 83 91 100 100 89 88 91 94 93 97 94 93 91 90 90 91 92 95 93 88 88 84 84 81 76 64 67 84 80 73 67 60 57
54 70 77 73 59 62 80 100 100 100 98 91 98 100 99 96 89 90 86 86 88 94 97 95 92 89 93 93 90 87 85 79 78 78 78 73 72 76 83 86 74 67 60 59
53 60 76 66 84 40 58 90 100 100 100 100 98 96 95 94 94 87 88 88 88 84 92 90 91 92 94 92 86 81 81 77 74 71 71 80 85 93 81 80 78 73 68 62
67 59 68 52 85 83 57 100 100 100 100 100 100 92 87 92 89 83 86 92 92 93 94 89 90 95 99 96 97 94 86 85 76 74 84 92 92 97 83 80 75 74 69 61
76 55 60 63 51 100 100 88 100 100 100 100 100 100 100 96 86 88 80 77 85 100 90 86 93 92 97 96 100 100 100 94 92 84 85 86 91 87 89 82 75 70 66 58
73 60 57 54 50 66 100 100 100 100 100 100 100 100 100 100 97 91 90 77 96 92 74 86 90 88 87 99 100 100 100 100 100 98 94 88 91 85 84 77 70 67 65 65
76 68 62 45 58 39 66 100 100 100 100 100 100 100 100 100 100 100 100 100 100 81 73 82 98 91 77 78 99 100 100 100 100 100 100 100 100 92 92 89 91 86 84 88

GFSNW_250_rhum_123.txt.gz
RH
2 2 3 4 5 11 13 14 41 47 70 91 61 36 36 32 24 19 15 11 8 6 4 3 2 2 2 2 2 3 3 3 3 4 4 7 8 6 6 6 5 5 5 5
2 3 4 5 8 12 18 38 47 61 82 43 35 33 32 26 22 19 15 11 9 6 4 4 3 2 3 2 3 3 3 3 4 5 9 10 9 9 11 8 8 9 8 6
4 4 5 6 11 18 35 47 60 57 35 31 29 29 24 24 24 22 18 13 11 9 7 6 4 3 3 3 3 3 4 6 8 10 11 12 15 20 22 15 14 18 15 9
6 6 8 13 25 40 48 54 41 32 30 27 24 24 23 24 25 23 20 19 15 13 12 10 8 5 3 4 3 3 4 6 9 10 10 24 29 36 54 30 28 31 17 17
8 11 18 31 47 50 50 33 32 28 28 26 24 25 26 25 24 24 23 24 21 20 18 14 11 8 6 4 4 4 6 12 26 17 26 39 49 57 53 40 37 39 33 29
16 28 41 55 58 42 32 32 31 31 29 28 26 28 30 29 29 26 23 23 22 23 23 21 16 14 11 8 6 6 11 18 20 26 41 55 62 66 63 48 58 59 54 55
46 63 64 55 38 35 34 35 36 34 33 31 31 32 33 35 33 34 32 27 24 25 22 24 21 22 20 16 14 8 8 10 13 24 37 58 71 80 85 64 53 60 63 75
65 65 63 43 38 35 36 38 40 40 41 37 36 39 37 39 40 39 36 40 37 30 27 25 23 23 24 25 23 20 21 15 12 17 24 36 37 50 72 96 88 46 43 72
70 69 53 45 41 39 39 40 42 43 43 44 43 42 41 41 41 43 44 46 44 46 37 31 30 25 22 21 24 27 25 24 22 20 20 27 35 28 22 30 45 70 69 45
92 76 55 49 46 43 42 41 41 45 45 47 47 44 44 42 43 43 43 44 46 48 52 50 44 36 28 25 31 28 25 24 26 26 30 35 37 36 37 27 18 28 44 61
99 99 66 56 51 47 46 45 46 45 46 48 49 49 43 43 44 45 46 44 42 44 46 50 55 56 46 49 45 41 34 32 33 33 33 30 29 32 32 33 28 25 22 33
84 100 100 69 65 56 51 50 47 47 46 49 50 51 50 43 44 45 44 45 44 41 42 43 48 57 61 57 49 46 52 56 50 40 42 38 35 33 31 28 28 27 28 30
92 88 94 100 81 74 65 56 52 51 50 49 50 53 50 50 48 46 47 47 44 46 47 48 48 48 53 59 63 62 64 65 58 61 59 56 49 48 40 31 30 26 25 25
78 94 87 93 99 94 86 75 61 60 57 57 55 54 56 53 53 51 48 46 47 48 50 51 50 51 53 53 56 62 64 64 72 72 68 70 77 63 64 57 45 46 40 33
54 78 98 99 91 95 98 99 87 81 72 67 65 62 60 63 57 54 56 56 56 56 57 58 57 56 56 57 60 64 62 61 60 70 65 72 63 65 62 63 64 56 56 68
46 44 62 100 100 100 99 100 94 94 100 97 80 73 70 70 72 69 62 59 60 65 66 64 64 64 65 67 68 69 73 67 68 71 66 70 67 65 61 58 58 55 54 54
62 63 39 46 79 100 100 100 94 89 93 96 100 98 91 93 83 74 69 67 65 71 74 76 77 76 79 79 80 79 81 76 72 70 74 73 72 70 65 61 64 57 51 52
66 69 73 46 53 53 92 100 100 100 90 94 98 100 100 100 100 100 93 83 75 77 79 83 85 87 88 89 90 94 92 91 88 87 82 79 77 69 66 68 65 65 63 58
83 75 73 71 62 58 54 71 97 100 100 100 98 95 100 100 100 100 100 100 98 92 86 92 94 99 94 92 98 95 95 96 95 91 86 82 78 73 66 69 68 71 70 65
63 67 72 72 64 70 69 59 54 76 100 100 100 100 100 100 100 100 100 100 100 100 98 98 96 100 99 100 98 100 99 100 98 95 91 88 78 71 70 72 76 81 74 68
56 61 51 73 83 80 63 69 88 85 95 100 100 100 100 100 100 100 100 100 100 99 98 98 100 99 99 99 96 99 95 90 89 86 82 80 73 73 77 81 92 83 76 75
66 60 57 68 75 79 72 99 100 100 100 100 100 100 100 100 100 100 97 88 97 100 98 100 100 100 99 98 100 100 97 88 79 75 75 76 76 78 78 84 82 86 88 79
80 75 58 73 70 83 85 81 60 80 100 100 100 100 100 100 99 100 100 99 100 93 92 100 97 100 93 96 100 100 100 97 90 86 76 76 85 79 74 82 85 74 68 68
90 66 66 77 63 89 97 92 81 72 57 87 100 100 100 100 100 89 94 100 100 100 100 100 84 95 94 94 95 100 100 100 100 100 100 96 99 96 87 81 83 86 93 94
76 72 80 89 62 59 85 72 81 67 57 57 78 100 100 100 95 88 84 98 100 100 100 100 100 96 88 87 95 100 100 100 100 100 100 100 100 100 100 100 100 100 100 100
70 86 75 70 69 56 55 60 63 65 56 52 53 66 94 98 96 94 91 95 100 100 100 100 100 100 94 95 100 100 100 96 98 100 100 100 100 100 100 100 100 100 100 100
88 98 91 92 72 43 48 47 58 59 54 34 34 46 56 73 87 99 100 100 100 100 100 100 100 100 96 98 100 100 99 100 100 100 100 100 100 100 100 100 100 100 100 97